<?xml version="1.0" encoding="UTF-8" standalone="no" ?>
<gpx xmlns="http://www.topografix.com/GPX/1/1" xmlns:xsi="http://www.w3.org/2001/XMLSchema-instance" xsi:schemaLocation="http://www.topografix.com/GPX/1/1 http://www.topografix.com/GPX/1/1/gpx.xsd" version="1.1" creator="VisuGPX - https://www.visugpx.com">
  <metadata>
    <name>Sortie VTT seboine</name>
    <desc><![CDATA[sortie VTT du 25 mars 2012]]></desc>
  </metadata>
  <trk>
    <name><![CDATA[25 mars 2012]]></name>
    <trkseg>
      <trkpt lat="48.68544" lon="6.15964">
        <ele>228</ele>
        <time>2012-03-25T13:41:53Z</time>
      </trkpt>
      <trkpt lat="48.68545" lon="6.15963">
        <ele>228</ele>
        <time>2012-03-25T13:41:57Z</time>
      </trkpt>
      <trkpt lat="48.68552" lon="6.15977">
        <ele>228</ele>
        <time>2012-03-25T13:41:59Z</time>
      </trkpt>
      <trkpt lat="48.6855" lon="6.15973">
        <ele>236</ele>
        <time>2012-03-25T13:42:01Z</time>
      </trkpt>
      <trkpt lat="48.68559" lon="6.15985">
        <ele>246</ele>
        <time>2012-03-25T13:42:05Z</time>
      </trkpt>
      <trkpt lat="48.68564" lon="6.15988">
        <ele>249</ele>
        <time>2012-03-25T13:42:07Z</time>
      </trkpt>
      <trkpt lat="48.68568" lon="6.1599">
        <ele>249</ele>
        <time>2012-03-25T13:42:09Z</time>
      </trkpt>
      <trkpt lat="48.68573" lon="6.15988">
        <ele>250</ele>
        <time>2012-03-25T13:42:11Z</time>
      </trkpt>
      <trkpt lat="48.68576" lon="6.15985">
        <ele>250</ele>
        <time>2012-03-25T13:42:13Z</time>
      </trkpt>
      <trkpt lat="48.68579" lon="6.15978">
        <ele>251</ele>
        <time>2012-03-25T13:42:15Z</time>
      </trkpt>
      <trkpt lat="48.68583" lon="6.1597">
        <ele>254</ele>
        <time>2012-03-25T13:42:17Z</time>
      </trkpt>
      <trkpt lat="48.68586" lon="6.15963">
        <ele>255</ele>
        <time>2012-03-25T13:42:19Z</time>
      </trkpt>
      <trkpt lat="48.68588" lon="6.15957">
        <ele>249</ele>
        <time>2012-03-25T13:42:21Z</time>
      </trkpt>
      <trkpt lat="48.68591" lon="6.15953">
        <ele>250</ele>
        <time>2012-03-25T13:42:23Z</time>
      </trkpt>
      <trkpt lat="48.68593" lon="6.1595">
        <ele>249</ele>
        <time>2012-03-25T13:42:25Z</time>
      </trkpt>
      <trkpt lat="48.68601" lon="6.15943">
        <ele>252</ele>
        <time>2012-03-25T13:42:29Z</time>
      </trkpt>
      <trkpt lat="48.68606" lon="6.1594">
        <ele>251</ele>
        <time>2012-03-25T13:42:31Z</time>
      </trkpt>
      <trkpt lat="48.68611" lon="6.15936">
        <ele>249</ele>
        <time>2012-03-25T13:42:33Z</time>
      </trkpt>
      <trkpt lat="48.68613" lon="6.15928">
        <ele>249</ele>
        <time>2012-03-25T13:42:35Z</time>
      </trkpt>
      <trkpt lat="48.68613" lon="6.15917">
        <ele>247</ele>
        <time>2012-03-25T13:42:37Z</time>
      </trkpt>
      <trkpt lat="48.68611" lon="6.15906">
        <ele>244</ele>
        <time>2012-03-25T13:42:39Z</time>
      </trkpt>
      <trkpt lat="48.68609" lon="6.15894">
        <ele>247</ele>
        <time>2012-03-25T13:42:41Z</time>
      </trkpt>
      <trkpt lat="48.68606" lon="6.15882">
        <ele>246</ele>
        <time>2012-03-25T13:42:43Z</time>
      </trkpt>
      <trkpt lat="48.68602" lon="6.15872">
        <ele>243</ele>
        <time>2012-03-25T13:42:45Z</time>
      </trkpt>
      <trkpt lat="48.68599" lon="6.15861">
        <ele>245</ele>
        <time>2012-03-25T13:42:47Z</time>
      </trkpt>
      <trkpt lat="48.68598" lon="6.15851">
        <ele>242</ele>
        <time>2012-03-25T13:42:49Z</time>
      </trkpt>
      <trkpt lat="48.68596" lon="6.1584">
        <ele>242</ele>
        <time>2012-03-25T13:42:51Z</time>
      </trkpt>
      <trkpt lat="48.68594" lon="6.15828">
        <ele>246</ele>
        <time>2012-03-25T13:42:53Z</time>
      </trkpt>
      <trkpt lat="48.68592" lon="6.15817">
        <ele>248</ele>
        <time>2012-03-25T13:42:55Z</time>
      </trkpt>
      <trkpt lat="48.68589" lon="6.15806">
        <ele>247</ele>
        <time>2012-03-25T13:42:57Z</time>
      </trkpt>
      <trkpt lat="48.68588" lon="6.15795">
        <ele>249</ele>
        <time>2012-03-25T13:42:59Z</time>
      </trkpt>
      <trkpt lat="48.68586" lon="6.15784">
        <ele>246</ele>
        <time>2012-03-25T13:43:01Z</time>
      </trkpt>
      <trkpt lat="48.68582" lon="6.15772">
        <ele>250</ele>
        <time>2012-03-25T13:43:03Z</time>
      </trkpt>
      <trkpt lat="48.68578" lon="6.15761">
        <ele>247</ele>
        <time>2012-03-25T13:43:05Z</time>
      </trkpt>
      <trkpt lat="48.68574" lon="6.15751">
        <ele>254</ele>
        <time>2012-03-25T13:43:07Z</time>
      </trkpt>
      <trkpt lat="48.6857" lon="6.1574">
        <ele>254</ele>
        <time>2012-03-25T13:43:09Z</time>
      </trkpt>
      <trkpt lat="48.68568" lon="6.15725">
        <ele>258</ele>
        <time>2012-03-25T13:43:11Z</time>
      </trkpt>
      <trkpt lat="48.68567" lon="6.15709">
        <ele>267</ele>
        <time>2012-03-25T13:43:13Z</time>
      </trkpt>
      <trkpt lat="48.68562" lon="6.15697">
        <ele>266</ele>
        <time>2012-03-25T13:43:15Z</time>
      </trkpt>
      <trkpt lat="48.68557" lon="6.15685">
        <ele>271</ele>
        <time>2012-03-25T13:43:17Z</time>
      </trkpt>
      <trkpt lat="48.68553" lon="6.1567">
        <ele>269</ele>
        <time>2012-03-25T13:43:19Z</time>
      </trkpt>
      <trkpt lat="48.6855" lon="6.15653">
        <ele>267</ele>
        <time>2012-03-25T13:43:21Z</time>
      </trkpt>
      <trkpt lat="48.68547" lon="6.15636">
        <ele>264</ele>
        <time>2012-03-25T13:43:23Z</time>
      </trkpt>
      <trkpt lat="48.68545" lon="6.1562">
        <ele>265</ele>
        <time>2012-03-25T13:43:25Z</time>
      </trkpt>
      <trkpt lat="48.6854" lon="6.15605">
        <ele>263</ele>
        <time>2012-03-25T13:43:27Z</time>
      </trkpt>
      <trkpt lat="48.68535" lon="6.15589">
        <ele>262</ele>
        <time>2012-03-25T13:43:29Z</time>
      </trkpt>
      <trkpt lat="48.6853" lon="6.15574">
        <ele>259</ele>
        <time>2012-03-25T13:43:31Z</time>
      </trkpt>
      <trkpt lat="48.68527" lon="6.15558">
        <ele>258</ele>
        <time>2012-03-25T13:43:33Z</time>
      </trkpt>
      <trkpt lat="48.68522" lon="6.15543">
        <ele>258</ele>
        <time>2012-03-25T13:43:35Z</time>
      </trkpt>
      <trkpt lat="48.68518" lon="6.15528">
        <ele>259</ele>
        <time>2012-03-25T13:43:37Z</time>
      </trkpt>
      <trkpt lat="48.68515" lon="6.15514">
        <ele>255</ele>
        <time>2012-03-25T13:43:39Z</time>
      </trkpt>
      <trkpt lat="48.68512" lon="6.155">
        <ele>252</ele>
        <time>2012-03-25T13:43:41Z</time>
      </trkpt>
      <trkpt lat="48.68509" lon="6.15484">
        <ele>253</ele>
        <time>2012-03-25T13:43:43Z</time>
      </trkpt>
      <trkpt lat="48.68505" lon="6.15467">
        <ele>251</ele>
        <time>2012-03-25T13:43:45Z</time>
      </trkpt>
      <trkpt lat="48.68502" lon="6.15451">
        <ele>250</ele>
        <time>2012-03-25T13:43:47Z</time>
      </trkpt>
      <trkpt lat="48.68499" lon="6.15433">
        <ele>252</ele>
        <time>2012-03-25T13:43:49Z</time>
      </trkpt>
      <trkpt lat="48.68495" lon="6.15415">
        <ele>252</ele>
        <time>2012-03-25T13:43:51Z</time>
      </trkpt>
      <trkpt lat="48.6849" lon="6.15396">
        <ele>253</ele>
        <time>2012-03-25T13:43:53Z</time>
      </trkpt>
      <trkpt lat="48.68486" lon="6.1538">
        <ele>249</ele>
        <time>2012-03-25T13:43:55Z</time>
      </trkpt>
      <trkpt lat="48.68484" lon="6.15364">
        <ele>255</ele>
        <time>2012-03-25T13:43:57Z</time>
      </trkpt>
      <trkpt lat="48.6848" lon="6.15349">
        <ele>257</ele>
        <time>2012-03-25T13:43:59Z</time>
      </trkpt>
      <trkpt lat="48.68475" lon="6.15337">
        <ele>253</ele>
        <time>2012-03-25T13:44:01Z</time>
      </trkpt>
      <trkpt lat="48.68472" lon="6.15325">
        <ele>251</ele>
        <time>2012-03-25T13:44:03Z</time>
      </trkpt>
      <trkpt lat="48.68472" lon="6.15309">
        <ele>251</ele>
        <time>2012-03-25T13:44:05Z</time>
      </trkpt>
      <trkpt lat="48.68468" lon="6.15295">
        <ele>248</ele>
        <time>2012-03-25T13:44:07Z</time>
      </trkpt>
      <trkpt lat="48.68464" lon="6.15281">
        <ele>249</ele>
        <time>2012-03-25T13:44:09Z</time>
      </trkpt>
      <trkpt lat="48.6846" lon="6.15267">
        <ele>252</ele>
        <time>2012-03-25T13:44:11Z</time>
      </trkpt>
      <trkpt lat="48.68457" lon="6.15254">
        <ele>252</ele>
        <time>2012-03-25T13:44:13Z</time>
      </trkpt>
      <trkpt lat="48.68456" lon="6.15241">
        <ele>254</ele>
        <time>2012-03-25T13:44:15Z</time>
      </trkpt>
      <trkpt lat="48.68452" lon="6.1523">
        <ele>252</ele>
        <time>2012-03-25T13:44:17Z</time>
      </trkpt>
      <trkpt lat="48.68449" lon="6.15222">
        <ele>252</ele>
        <time>2012-03-25T13:44:19Z</time>
      </trkpt>
      <trkpt lat="48.68446" lon="6.15211">
        <ele>249</ele>
        <time>2012-03-25T13:44:21Z</time>
      </trkpt>
      <trkpt lat="48.68445" lon="6.15198">
        <ele>257</ele>
        <time>2012-03-25T13:44:23Z</time>
      </trkpt>
      <trkpt lat="48.68442" lon="6.15186">
        <ele>252</ele>
        <time>2012-03-25T13:44:25Z</time>
      </trkpt>
      <trkpt lat="48.68437" lon="6.15175">
        <ele>251</ele>
        <time>2012-03-25T13:44:27Z</time>
      </trkpt>
      <trkpt lat="48.68432" lon="6.15164">
        <ele>252</ele>
        <time>2012-03-25T13:44:29Z</time>
      </trkpt>
      <trkpt lat="48.68423" lon="6.15154">
        <ele>248</ele>
        <time>2012-03-25T13:44:31Z</time>
      </trkpt>
      <trkpt lat="48.68417" lon="6.1514">
        <ele>247</ele>
        <time>2012-03-25T13:44:33Z</time>
      </trkpt>
      <trkpt lat="48.68415" lon="6.15127">
        <ele>248</ele>
        <time>2012-03-25T13:44:35Z</time>
      </trkpt>
      <trkpt lat="48.68414" lon="6.15114">
        <ele>252</ele>
        <time>2012-03-25T13:44:37Z</time>
      </trkpt>
      <trkpt lat="48.68412" lon="6.151">
        <ele>254</ele>
        <time>2012-03-25T13:44:39Z</time>
      </trkpt>
      <trkpt lat="48.68411" lon="6.15088">
        <ele>251</ele>
        <time>2012-03-25T13:44:41Z</time>
      </trkpt>
      <trkpt lat="48.68407" lon="6.15078">
        <ele>249</ele>
        <time>2012-03-25T13:44:43Z</time>
      </trkpt>
      <trkpt lat="48.68404" lon="6.15067">
        <ele>242</ele>
        <time>2012-03-25T13:44:45Z</time>
      </trkpt>
      <trkpt lat="48.68401" lon="6.15057">
        <ele>240</ele>
        <time>2012-03-25T13:44:47Z</time>
      </trkpt>
      <trkpt lat="48.68399" lon="6.15047">
        <ele>241</ele>
        <time>2012-03-25T13:44:49Z</time>
      </trkpt>
      <trkpt lat="48.68394" lon="6.15038">
        <ele>245</ele>
        <time>2012-03-25T13:44:51Z</time>
      </trkpt>
      <trkpt lat="48.68391" lon="6.15032">
        <ele>246</ele>
        <time>2012-03-25T13:44:53Z</time>
      </trkpt>
      <trkpt lat="48.68387" lon="6.15025">
        <ele>237</ele>
        <time>2012-03-25T13:44:55Z</time>
      </trkpt>
      <trkpt lat="48.68381" lon="6.1502">
        <ele>239</ele>
        <time>2012-03-25T13:44:57Z</time>
      </trkpt>
      <trkpt lat="48.68374" lon="6.15015">
        <ele>243</ele>
        <time>2012-03-25T13:44:59Z</time>
      </trkpt>
      <trkpt lat="48.68369" lon="6.15007">
        <ele>236</ele>
        <time>2012-03-25T13:45:01Z</time>
      </trkpt>
      <trkpt lat="48.68364" lon="6.14999">
        <ele>233</ele>
        <time>2012-03-25T13:45:03Z</time>
      </trkpt>
      <trkpt lat="48.68361" lon="6.14993">
        <ele>232</ele>
        <time>2012-03-25T13:45:05Z</time>
      </trkpt>
      <trkpt lat="48.68356" lon="6.14987">
        <ele>236</ele>
        <time>2012-03-25T13:45:07Z</time>
      </trkpt>
      <trkpt lat="48.68352" lon="6.14983">
        <ele>239</ele>
        <time>2012-03-25T13:45:09Z</time>
      </trkpt>
      <trkpt lat="48.68347" lon="6.14978">
        <ele>240</ele>
        <time>2012-03-25T13:45:11Z</time>
      </trkpt>
      <trkpt lat="48.68343" lon="6.14971">
        <ele>231</ele>
        <time>2012-03-25T13:45:13Z</time>
      </trkpt>
      <trkpt lat="48.68339" lon="6.14964">
        <ele>239</ele>
        <time>2012-03-25T13:45:15Z</time>
      </trkpt>
      <trkpt lat="48.68336" lon="6.14958">
        <ele>242</ele>
        <time>2012-03-25T13:45:17Z</time>
      </trkpt>
      <trkpt lat="48.68331" lon="6.14951">
        <ele>237</ele>
        <time>2012-03-25T13:45:19Z</time>
      </trkpt>
      <trkpt lat="48.68326" lon="6.14944">
        <ele>237</ele>
        <time>2012-03-25T13:45:21Z</time>
      </trkpt>
      <trkpt lat="48.68321" lon="6.14936">
        <ele>236</ele>
        <time>2012-03-25T13:45:23Z</time>
      </trkpt>
      <trkpt lat="48.68317" lon="6.14929">
        <ele>236</ele>
        <time>2012-03-25T13:45:25Z</time>
      </trkpt>
      <trkpt lat="48.68313" lon="6.14922">
        <ele>235</ele>
        <time>2012-03-25T13:45:27Z</time>
      </trkpt>
      <trkpt lat="48.6831" lon="6.14915">
        <ele>237</ele>
        <time>2012-03-25T13:45:29Z</time>
      </trkpt>
      <trkpt lat="48.68305" lon="6.14911">
        <ele>238</ele>
        <time>2012-03-25T13:45:31Z</time>
      </trkpt>
      <trkpt lat="48.683" lon="6.14907">
        <ele>237</ele>
        <time>2012-03-25T13:45:33Z</time>
      </trkpt>
      <trkpt lat="48.68296" lon="6.14901">
        <ele>235</ele>
        <time>2012-03-25T13:45:35Z</time>
      </trkpt>
      <trkpt lat="48.68293" lon="6.14896">
        <ele>234</ele>
        <time>2012-03-25T13:45:37Z</time>
      </trkpt>
      <trkpt lat="48.68289" lon="6.14891">
        <ele>237</ele>
        <time>2012-03-25T13:45:39Z</time>
      </trkpt>
      <trkpt lat="48.68285" lon="6.14885">
        <ele>240</ele>
        <time>2012-03-25T13:45:41Z</time>
      </trkpt>
      <trkpt lat="48.6828" lon="6.1488">
        <ele>241</ele>
        <time>2012-03-25T13:45:43Z</time>
      </trkpt>
      <trkpt lat="48.68274" lon="6.14874">
        <ele>244</ele>
        <time>2012-03-25T13:45:45Z</time>
      </trkpt>
      <trkpt lat="48.68269" lon="6.14869">
        <ele>244</ele>
        <time>2012-03-25T13:45:47Z</time>
      </trkpt>
      <trkpt lat="48.68264" lon="6.14865">
        <ele>244</ele>
        <time>2012-03-25T13:45:49Z</time>
      </trkpt>
      <trkpt lat="48.68262" lon="6.14861">
        <ele>247</ele>
        <time>2012-03-25T13:45:51Z</time>
      </trkpt>
      <trkpt lat="48.68261" lon="6.14856">
        <ele>242</ele>
        <time>2012-03-25T13:45:53Z</time>
      </trkpt>
      <trkpt lat="48.68258" lon="6.14849">
        <ele>243</ele>
        <time>2012-03-25T13:45:55Z</time>
      </trkpt>
      <trkpt lat="48.68255" lon="6.14844">
        <ele>240</ele>
        <time>2012-03-25T13:45:57Z</time>
      </trkpt>
      <trkpt lat="48.68251" lon="6.14842">
        <ele>240</ele>
        <time>2012-03-25T13:45:59Z</time>
      </trkpt>
      <trkpt lat="48.68247" lon="6.14838">
        <ele>241</ele>
        <time>2012-03-25T13:46:01Z</time>
      </trkpt>
      <trkpt lat="48.68244" lon="6.14833">
        <ele>237</ele>
        <time>2012-03-25T13:46:03Z</time>
      </trkpt>
      <trkpt lat="48.68241" lon="6.14826">
        <ele>240</ele>
        <time>2012-03-25T13:46:05Z</time>
      </trkpt>
      <trkpt lat="48.68238" lon="6.14819">
        <ele>239</ele>
        <time>2012-03-25T13:46:07Z</time>
      </trkpt>
      <trkpt lat="48.68234" lon="6.14815">
        <ele>238</ele>
        <time>2012-03-25T13:46:09Z</time>
      </trkpt>
      <trkpt lat="48.68227" lon="6.14813">
        <ele>247</ele>
        <time>2012-03-25T13:46:11Z</time>
      </trkpt>
      <trkpt lat="48.68224" lon="6.14809">
        <ele>242</ele>
        <time>2012-03-25T13:46:13Z</time>
      </trkpt>
      <trkpt lat="48.68221" lon="6.14804">
        <ele>238</ele>
        <time>2012-03-25T13:46:15Z</time>
      </trkpt>
      <trkpt lat="48.68217" lon="6.14798">
        <ele>244</ele>
        <time>2012-03-25T13:46:17Z</time>
      </trkpt>
      <trkpt lat="48.68214" lon="6.14791">
        <ele>251</ele>
        <time>2012-03-25T13:46:19Z</time>
      </trkpt>
      <trkpt lat="48.68216" lon="6.14785">
        <ele>253</ele>
        <time>2012-03-25T13:46:21Z</time>
      </trkpt>
      <trkpt lat="48.68214" lon="6.14779">
        <ele>252</ele>
        <time>2012-03-25T13:46:23Z</time>
      </trkpt>
      <trkpt lat="48.68213" lon="6.14775">
        <ele>256</ele>
        <time>2012-03-25T13:46:25Z</time>
      </trkpt>
      <trkpt lat="48.6821" lon="6.14768">
        <ele>255</ele>
        <time>2012-03-25T13:46:27Z</time>
      </trkpt>
      <trkpt lat="48.68208" lon="6.14762">
        <ele>255</ele>
        <time>2012-03-25T13:46:29Z</time>
      </trkpt>
      <trkpt lat="48.68205" lon="6.14757">
        <ele>254</ele>
        <time>2012-03-25T13:46:31Z</time>
      </trkpt>
      <trkpt lat="48.68202" lon="6.14752">
        <ele>256</ele>
        <time>2012-03-25T13:46:33Z</time>
      </trkpt>
      <trkpt lat="48.68199" lon="6.14746">
        <ele>258</ele>
        <time>2012-03-25T13:46:35Z</time>
      </trkpt>
      <trkpt lat="48.68196" lon="6.1474">
        <ele>259</ele>
        <time>2012-03-25T13:46:37Z</time>
      </trkpt>
      <trkpt lat="48.68193" lon="6.14734">
        <ele>257</ele>
        <time>2012-03-25T13:46:39Z</time>
      </trkpt>
      <trkpt lat="48.68189" lon="6.14727">
        <ele>258</ele>
        <time>2012-03-25T13:46:41Z</time>
      </trkpt>
      <trkpt lat="48.68185" lon="6.14722">
        <ele>257</ele>
        <time>2012-03-25T13:46:43Z</time>
      </trkpt>
      <trkpt lat="48.68182" lon="6.14716">
        <ele>253</ele>
        <time>2012-03-25T13:46:45Z</time>
      </trkpt>
      <trkpt lat="48.68179" lon="6.14706">
        <ele>253</ele>
        <time>2012-03-25T13:46:47Z</time>
      </trkpt>
      <trkpt lat="48.68175" lon="6.14698">
        <ele>253</ele>
        <time>2012-03-25T13:46:49Z</time>
      </trkpt>
      <trkpt lat="48.68171" lon="6.14689">
        <ele>257</ele>
        <time>2012-03-25T13:46:51Z</time>
      </trkpt>
      <trkpt lat="48.68166" lon="6.14682">
        <ele>255</ele>
        <time>2012-03-25T13:46:53Z</time>
      </trkpt>
      <trkpt lat="48.68162" lon="6.14673">
        <ele>257</ele>
        <time>2012-03-25T13:46:55Z</time>
      </trkpt>
      <trkpt lat="48.68156" lon="6.14666">
        <ele>252</ele>
        <time>2012-03-25T13:46:57Z</time>
      </trkpt>
      <trkpt lat="48.68151" lon="6.14655">
        <ele>254</ele>
        <time>2012-03-25T13:46:59Z</time>
      </trkpt>
      <trkpt lat="48.68145" lon="6.14645">
        <ele>254</ele>
        <time>2012-03-25T13:47:01Z</time>
      </trkpt>
      <trkpt lat="48.6814" lon="6.14634">
        <ele>255</ele>
        <time>2012-03-25T13:47:03Z</time>
      </trkpt>
      <trkpt lat="48.68137" lon="6.14625">
        <ele>256</ele>
        <time>2012-03-25T13:47:05Z</time>
      </trkpt>
      <trkpt lat="48.68132" lon="6.14617">
        <ele>255</ele>
        <time>2012-03-25T13:47:07Z</time>
      </trkpt>
      <trkpt lat="48.68125" lon="6.14607">
        <ele>250</ele>
        <time>2012-03-25T13:47:09Z</time>
      </trkpt>
      <trkpt lat="48.6812" lon="6.14596">
        <ele>244</ele>
        <time>2012-03-25T13:47:11Z</time>
      </trkpt>
      <trkpt lat="48.68115" lon="6.14589">
        <ele>243</ele>
        <time>2012-03-25T13:47:13Z</time>
      </trkpt>
      <trkpt lat="48.68109" lon="6.14581">
        <ele>245</ele>
        <time>2012-03-25T13:47:15Z</time>
      </trkpt>
      <trkpt lat="48.68105" lon="6.1457">
        <ele>247</ele>
        <time>2012-03-25T13:47:17Z</time>
      </trkpt>
      <trkpt lat="48.68101" lon="6.14561">
        <ele>243</ele>
        <time>2012-03-25T13:47:19Z</time>
      </trkpt>
      <trkpt lat="48.68097" lon="6.14552">
        <ele>240</ele>
        <time>2012-03-25T13:47:21Z</time>
      </trkpt>
      <trkpt lat="48.68095" lon="6.14545">
        <ele>240</ele>
        <time>2012-03-25T13:47:23Z</time>
      </trkpt>
      <trkpt lat="48.68092" lon="6.14537">
        <ele>240</ele>
        <time>2012-03-25T13:47:25Z</time>
      </trkpt>
      <trkpt lat="48.68089" lon="6.14532">
        <ele>240</ele>
        <time>2012-03-25T13:47:27Z</time>
      </trkpt>
      <trkpt lat="48.68086" lon="6.14529">
        <ele>243</ele>
        <time>2012-03-25T13:47:29Z</time>
      </trkpt>
      <trkpt lat="48.68082" lon="6.14523">
        <ele>245</ele>
        <time>2012-03-25T13:47:31Z</time>
      </trkpt>
      <trkpt lat="48.68079" lon="6.14516">
        <ele>244</ele>
        <time>2012-03-25T13:47:33Z</time>
      </trkpt>
      <trkpt lat="48.68076" lon="6.14509">
        <ele>245</ele>
        <time>2012-03-25T13:47:35Z</time>
      </trkpt>
      <trkpt lat="48.68073" lon="6.14504">
        <ele>242</ele>
        <time>2012-03-25T13:47:37Z</time>
      </trkpt>
      <trkpt lat="48.68068" lon="6.14503">
        <ele>247</ele>
        <time>2012-03-25T13:47:39Z</time>
      </trkpt>
      <trkpt lat="48.68065" lon="6.14495">
        <ele>252</ele>
        <time>2012-03-25T13:47:41Z</time>
      </trkpt>
      <trkpt lat="48.68061" lon="6.1449">
        <ele>255</ele>
        <time>2012-03-25T13:47:43Z</time>
      </trkpt>
      <trkpt lat="48.68059" lon="6.14484">
        <ele>251</ele>
        <time>2012-03-25T13:47:45Z</time>
      </trkpt>
      <trkpt lat="48.68058" lon="6.14481">
        <ele>249</ele>
        <time>2012-03-25T13:47:46Z</time>
      </trkpt>
      <trkpt lat="48.68056" lon="6.14478">
        <ele>252</ele>
        <time>2012-03-25T13:47:47Z</time>
      </trkpt>
      <trkpt lat="48.68052" lon="6.14472">
        <ele>250</ele>
        <time>2012-03-25T13:47:49Z</time>
      </trkpt>
      <trkpt lat="48.68048" lon="6.14465">
        <ele>248</ele>
        <time>2012-03-25T13:47:51Z</time>
      </trkpt>
      <trkpt lat="48.68045" lon="6.14459">
        <ele>248</ele>
        <time>2012-03-25T13:47:53Z</time>
      </trkpt>
      <trkpt lat="48.68043" lon="6.14453">
        <ele>248</ele>
        <time>2012-03-25T13:47:55Z</time>
      </trkpt>
      <trkpt lat="48.68041" lon="6.14445">
        <ele>247</ele>
        <time>2012-03-25T13:47:57Z</time>
      </trkpt>
      <trkpt lat="48.68038" lon="6.14439">
        <ele>249</ele>
        <time>2012-03-25T13:47:59Z</time>
      </trkpt>
      <trkpt lat="48.68035" lon="6.14432">
        <ele>250</ele>
        <time>2012-03-25T13:48:01Z</time>
      </trkpt>
      <trkpt lat="48.68033" lon="6.14426">
        <ele>251</ele>
        <time>2012-03-25T13:48:03Z</time>
      </trkpt>
      <trkpt lat="48.6803" lon="6.14419">
        <ele>253</ele>
        <time>2012-03-25T13:48:05Z</time>
      </trkpt>
      <trkpt lat="48.68026" lon="6.14415">
        <ele>253</ele>
        <time>2012-03-25T13:48:07Z</time>
      </trkpt>
      <trkpt lat="48.68024" lon="6.14409">
        <ele>251</ele>
        <time>2012-03-25T13:48:09Z</time>
      </trkpt>
      <trkpt lat="48.68019" lon="6.14403">
        <ele>251</ele>
        <time>2012-03-25T13:48:11Z</time>
      </trkpt>
      <trkpt lat="48.68016" lon="6.14395">
        <ele>255</ele>
        <time>2012-03-25T13:48:13Z</time>
      </trkpt>
      <trkpt lat="48.68012" lon="6.14388">
        <ele>253</ele>
        <time>2012-03-25T13:48:15Z</time>
      </trkpt>
      <trkpt lat="48.68008" lon="6.14381">
        <ele>254</ele>
        <time>2012-03-25T13:48:17Z</time>
      </trkpt>
      <trkpt lat="48.68003" lon="6.14373">
        <ele>251</ele>
        <time>2012-03-25T13:48:19Z</time>
      </trkpt>
      <trkpt lat="48.67999" lon="6.14366">
        <ele>252</ele>
        <time>2012-03-25T13:48:21Z</time>
      </trkpt>
      <trkpt lat="48.67995" lon="6.14359">
        <ele>248</ele>
        <time>2012-03-25T13:48:23Z</time>
      </trkpt>
      <trkpt lat="48.67993" lon="6.14353">
        <ele>246</ele>
        <time>2012-03-25T13:48:25Z</time>
      </trkpt>
      <trkpt lat="48.67989" lon="6.14347">
        <ele>245</ele>
        <time>2012-03-25T13:48:27Z</time>
      </trkpt>
      <trkpt lat="48.67986" lon="6.14341">
        <ele>244</ele>
        <time>2012-03-25T13:48:29Z</time>
      </trkpt>
      <trkpt lat="48.67983" lon="6.14335">
        <ele>243</ele>
        <time>2012-03-25T13:48:31Z</time>
      </trkpt>
      <trkpt lat="48.67982" lon="6.1433">
        <ele>243</ele>
        <time>2012-03-25T13:48:33Z</time>
      </trkpt>
      <trkpt lat="48.67979" lon="6.14326">
        <ele>251</ele>
        <time>2012-03-25T13:48:35Z</time>
      </trkpt>
      <trkpt lat="48.67975" lon="6.14322">
        <ele>248</ele>
        <time>2012-03-25T13:48:37Z</time>
      </trkpt>
      <trkpt lat="48.67972" lon="6.14317">
        <ele>254</ele>
        <time>2012-03-25T13:48:39Z</time>
      </trkpt>
      <trkpt lat="48.67968" lon="6.14311">
        <ele>251</ele>
        <time>2012-03-25T13:48:41Z</time>
      </trkpt>
      <trkpt lat="48.67966" lon="6.14306">
        <ele>254</ele>
        <time>2012-03-25T13:48:43Z</time>
      </trkpt>
      <trkpt lat="48.67964" lon="6.143">
        <ele>252</ele>
        <time>2012-03-25T13:48:45Z</time>
      </trkpt>
      <trkpt lat="48.67962" lon="6.14296">
        <ele>251</ele>
        <time>2012-03-25T13:48:47Z</time>
      </trkpt>
      <trkpt lat="48.6796" lon="6.14292">
        <ele>250</ele>
        <time>2012-03-25T13:48:49Z</time>
      </trkpt>
      <trkpt lat="48.6796" lon="6.14288">
        <ele>253</ele>
        <time>2012-03-25T13:48:51Z</time>
      </trkpt>
      <trkpt lat="48.6796" lon="6.14284">
        <ele>252</ele>
        <time>2012-03-25T13:48:53Z</time>
      </trkpt>
      <trkpt lat="48.67958" lon="6.14281">
        <ele>253</ele>
        <time>2012-03-25T13:48:55Z</time>
      </trkpt>
      <trkpt lat="48.67957" lon="6.14278">
        <ele>256</ele>
        <time>2012-03-25T13:48:57Z</time>
      </trkpt>
      <trkpt lat="48.67955" lon="6.14274">
        <ele>257</ele>
        <time>2012-03-25T13:48:59Z</time>
      </trkpt>
      <trkpt lat="48.67954" lon="6.1427">
        <ele>255</ele>
        <time>2012-03-25T13:49:01Z</time>
      </trkpt>
      <trkpt lat="48.67951" lon="6.14264">
        <ele>257</ele>
        <time>2012-03-25T13:49:03Z</time>
      </trkpt>
      <trkpt lat="48.67947" lon="6.14258">
        <ele>260</ele>
        <time>2012-03-25T13:49:05Z</time>
      </trkpt>
      <trkpt lat="48.67944" lon="6.1425">
        <ele>256</ele>
        <time>2012-03-25T13:49:07Z</time>
      </trkpt>
      <trkpt lat="48.67942" lon="6.14244">
        <ele>255</ele>
        <time>2012-03-25T13:49:09Z</time>
      </trkpt>
      <trkpt lat="48.67938" lon="6.14239">
        <ele>254</ele>
        <time>2012-03-25T13:49:11Z</time>
      </trkpt>
      <trkpt lat="48.67934" lon="6.14235">
        <ele>252</ele>
        <time>2012-03-25T13:49:13Z</time>
      </trkpt>
      <trkpt lat="48.6793" lon="6.14231">
        <ele>251</ele>
        <time>2012-03-25T13:49:15Z</time>
      </trkpt>
      <trkpt lat="48.67926" lon="6.14226">
        <ele>253</ele>
        <time>2012-03-25T13:49:17Z</time>
      </trkpt>
      <trkpt lat="48.67922" lon="6.1422">
        <ele>254</ele>
        <time>2012-03-25T13:49:19Z</time>
      </trkpt>
      <trkpt lat="48.67917" lon="6.14214">
        <ele>252</ele>
        <time>2012-03-25T13:49:21Z</time>
      </trkpt>
      <trkpt lat="48.67915" lon="6.14209">
        <ele>254</ele>
        <time>2012-03-25T13:49:23Z</time>
      </trkpt>
      <trkpt lat="48.67912" lon="6.14204">
        <ele>248</ele>
        <time>2012-03-25T13:49:25Z</time>
      </trkpt>
      <trkpt lat="48.67908" lon="6.14198">
        <ele>250</ele>
        <time>2012-03-25T13:49:27Z</time>
      </trkpt>
      <trkpt lat="48.67905" lon="6.14193">
        <ele>249</ele>
        <time>2012-03-25T13:49:29Z</time>
      </trkpt>
      <trkpt lat="48.67901" lon="6.14187">
        <ele>248</ele>
        <time>2012-03-25T13:49:31Z</time>
      </trkpt>
      <trkpt lat="48.679" lon="6.14181">
        <ele>248</ele>
        <time>2012-03-25T13:49:33Z</time>
      </trkpt>
      <trkpt lat="48.67902" lon="6.14173">
        <ele>254</ele>
        <time>2012-03-25T13:49:35Z</time>
      </trkpt>
      <trkpt lat="48.67905" lon="6.14166">
        <ele>253</ele>
        <time>2012-03-25T13:49:37Z</time>
      </trkpt>
      <trkpt lat="48.67907" lon="6.14162">
        <ele>252</ele>
        <time>2012-03-25T13:49:39Z</time>
      </trkpt>
      <trkpt lat="48.6791" lon="6.14156">
        <ele>253</ele>
        <time>2012-03-25T13:49:41Z</time>
      </trkpt>
      <trkpt lat="48.67913" lon="6.1415">
        <ele>255</ele>
        <time>2012-03-25T13:49:43Z</time>
      </trkpt>
      <trkpt lat="48.67917" lon="6.14148">
        <ele>254</ele>
        <time>2012-03-25T13:49:45Z</time>
      </trkpt>
      <trkpt lat="48.67921" lon="6.14145">
        <ele>252</ele>
        <time>2012-03-25T13:49:47Z</time>
      </trkpt>
      <trkpt lat="48.67928" lon="6.14141">
        <ele>250</ele>
        <time>2012-03-25T13:49:49Z</time>
      </trkpt>
      <trkpt lat="48.67934" lon="6.14142">
        <ele>255</ele>
        <time>2012-03-25T13:49:51Z</time>
      </trkpt>
      <trkpt lat="48.67942" lon="6.14148">
        <ele>261</ele>
        <time>2012-03-25T13:49:53Z</time>
      </trkpt>
      <trkpt lat="48.67948" lon="6.14153">
        <ele>262</ele>
        <time>2012-03-25T13:49:55Z</time>
      </trkpt>
      <trkpt lat="48.67955" lon="6.14157">
        <ele>263</ele>
        <time>2012-03-25T13:49:57Z</time>
      </trkpt>
      <trkpt lat="48.67962" lon="6.14159">
        <ele>263</ele>
        <time>2012-03-25T13:49:59Z</time>
      </trkpt>
      <trkpt lat="48.6797" lon="6.1416">
        <ele>261</ele>
        <time>2012-03-25T13:50:01Z</time>
      </trkpt>
      <trkpt lat="48.67978" lon="6.1416">
        <ele>259</ele>
        <time>2012-03-25T13:50:03Z</time>
      </trkpt>
      <trkpt lat="48.67987" lon="6.14158">
        <ele>259</ele>
        <time>2012-03-25T13:50:05Z</time>
      </trkpt>
      <trkpt lat="48.67992" lon="6.14157">
        <ele>258</ele>
        <time>2012-03-25T13:50:07Z</time>
      </trkpt>
      <trkpt lat="48.67996" lon="6.14154">
        <ele>257</ele>
        <time>2012-03-25T13:50:09Z</time>
      </trkpt>
      <trkpt lat="48.68" lon="6.14151">
        <ele>256</ele>
        <time>2012-03-25T13:50:11Z</time>
      </trkpt>
      <trkpt lat="48.68004" lon="6.14149">
        <ele>258</ele>
        <time>2012-03-25T13:50:13Z</time>
      </trkpt>
      <trkpt lat="48.68009" lon="6.14147">
        <ele>257</ele>
        <time>2012-03-25T13:50:15Z</time>
      </trkpt>
      <trkpt lat="48.68014" lon="6.14145">
        <ele>258</ele>
        <time>2012-03-25T13:50:17Z</time>
      </trkpt>
      <trkpt lat="48.68018" lon="6.14143">
        <ele>259</ele>
        <time>2012-03-25T13:50:19Z</time>
      </trkpt>
      <trkpt lat="48.68023" lon="6.1414">
        <ele>259</ele>
        <time>2012-03-25T13:50:21Z</time>
      </trkpt>
      <trkpt lat="48.68028" lon="6.14139">
        <ele>258</ele>
        <time>2012-03-25T13:50:23Z</time>
      </trkpt>
      <trkpt lat="48.68031" lon="6.14138">
        <ele>257</ele>
        <time>2012-03-25T13:50:25Z</time>
      </trkpt>
      <trkpt lat="48.68035" lon="6.14137">
        <ele>258</ele>
        <time>2012-03-25T13:50:27Z</time>
      </trkpt>
      <trkpt lat="48.68038" lon="6.14136">
        <ele>256</ele>
        <time>2012-03-25T13:50:29Z</time>
      </trkpt>
      <trkpt lat="48.68042" lon="6.14135">
        <ele>256</ele>
        <time>2012-03-25T13:50:31Z</time>
      </trkpt>
      <trkpt lat="48.68045" lon="6.14133">
        <ele>257</ele>
        <time>2012-03-25T13:50:33Z</time>
      </trkpt>
      <trkpt lat="48.6805" lon="6.14131">
        <ele>257</ele>
        <time>2012-03-25T13:50:35Z</time>
      </trkpt>
      <trkpt lat="48.68055" lon="6.1413">
        <ele>257</ele>
        <time>2012-03-25T13:50:37Z</time>
      </trkpt>
      <trkpt lat="48.68059" lon="6.14128">
        <ele>257</ele>
        <time>2012-03-25T13:50:39Z</time>
      </trkpt>
      <trkpt lat="48.68063" lon="6.14125">
        <ele>259</ele>
        <time>2012-03-25T13:50:41Z</time>
      </trkpt>
      <trkpt lat="48.68067" lon="6.14123">
        <ele>261</ele>
        <time>2012-03-25T13:50:43Z</time>
      </trkpt>
      <trkpt lat="48.68072" lon="6.14121">
        <ele>261</ele>
        <time>2012-03-25T13:50:45Z</time>
      </trkpt>
      <trkpt lat="48.68077" lon="6.14118">
        <ele>260</ele>
        <time>2012-03-25T13:50:47Z</time>
      </trkpt>
      <trkpt lat="48.68081" lon="6.14116">
        <ele>258</ele>
        <time>2012-03-25T13:50:49Z</time>
      </trkpt>
      <trkpt lat="48.68084" lon="6.14115">
        <ele>255</ele>
        <time>2012-03-25T13:50:51Z</time>
      </trkpt>
      <trkpt lat="48.68089" lon="6.14114">
        <ele>259</ele>
        <time>2012-03-25T13:50:53Z</time>
      </trkpt>
      <trkpt lat="48.68094" lon="6.14112">
        <ele>264</ele>
        <time>2012-03-25T13:50:55Z</time>
      </trkpt>
      <trkpt lat="48.68099" lon="6.14111">
        <ele>264</ele>
        <time>2012-03-25T13:50:57Z</time>
      </trkpt>
      <trkpt lat="48.68103" lon="6.14109">
        <ele>263</ele>
        <time>2012-03-25T13:50:59Z</time>
      </trkpt>
      <trkpt lat="48.68106" lon="6.14106">
        <ele>262</ele>
        <time>2012-03-25T13:51:01Z</time>
      </trkpt>
      <trkpt lat="48.6811" lon="6.14102">
        <ele>258</ele>
        <time>2012-03-25T13:51:03Z</time>
      </trkpt>
      <trkpt lat="48.68114" lon="6.14099">
        <ele>261</ele>
        <time>2012-03-25T13:51:05Z</time>
      </trkpt>
      <trkpt lat="48.68118" lon="6.14095">
        <ele>258</ele>
        <time>2012-03-25T13:51:07Z</time>
      </trkpt>
      <trkpt lat="48.68122" lon="6.14092">
        <ele>261</ele>
        <time>2012-03-25T13:51:09Z</time>
      </trkpt>
      <trkpt lat="48.68127" lon="6.14088">
        <ele>260</ele>
        <time>2012-03-25T13:51:11Z</time>
      </trkpt>
      <trkpt lat="48.68131" lon="6.14085">
        <ele>262</ele>
        <time>2012-03-25T13:51:13Z</time>
      </trkpt>
      <trkpt lat="48.68134" lon="6.1408">
        <ele>260</ele>
        <time>2012-03-25T13:51:15Z</time>
      </trkpt>
      <trkpt lat="48.68139" lon="6.14076">
        <ele>257</ele>
        <time>2012-03-25T13:51:17Z</time>
      </trkpt>
      <trkpt lat="48.68142" lon="6.14073">
        <ele>257</ele>
        <time>2012-03-25T13:51:19Z</time>
      </trkpt>
      <trkpt lat="48.68146" lon="6.14071">
        <ele>256</ele>
        <time>2012-03-25T13:51:21Z</time>
      </trkpt>
      <trkpt lat="48.68149" lon="6.14068">
        <ele>259</ele>
        <time>2012-03-25T13:51:23Z</time>
      </trkpt>
      <trkpt lat="48.68153" lon="6.14064">
        <ele>258</ele>
        <time>2012-03-25T13:51:25Z</time>
      </trkpt>
      <trkpt lat="48.68156" lon="6.14061">
        <ele>256</ele>
        <time>2012-03-25T13:51:27Z</time>
      </trkpt>
      <trkpt lat="48.68159" lon="6.14058">
        <ele>257</ele>
        <time>2012-03-25T13:51:29Z</time>
      </trkpt>
      <trkpt lat="48.68164" lon="6.14054">
        <ele>259</ele>
        <time>2012-03-25T13:51:31Z</time>
      </trkpt>
      <trkpt lat="48.68166" lon="6.14053">
        <ele>262</ele>
        <time>2012-03-25T13:51:33Z</time>
      </trkpt>
      <trkpt lat="48.6817" lon="6.1405">
        <ele>262</ele>
        <time>2012-03-25T13:51:35Z</time>
      </trkpt>
      <trkpt lat="48.68173" lon="6.14048">
        <ele>259</ele>
        <time>2012-03-25T13:51:37Z</time>
      </trkpt>
      <trkpt lat="48.68176" lon="6.14047">
        <ele>259</ele>
        <time>2012-03-25T13:51:39Z</time>
      </trkpt>
      <trkpt lat="48.68181" lon="6.14045">
        <ele>263</ele>
        <time>2012-03-25T13:51:41Z</time>
      </trkpt>
      <trkpt lat="48.68185" lon="6.14042">
        <ele>267</ele>
        <time>2012-03-25T13:51:43Z</time>
      </trkpt>
      <trkpt lat="48.68189" lon="6.14039">
        <ele>265</ele>
        <time>2012-03-25T13:51:45Z</time>
      </trkpt>
      <trkpt lat="48.68194" lon="6.14034">
        <ele>265</ele>
        <time>2012-03-25T13:51:47Z</time>
      </trkpt>
      <trkpt lat="48.68198" lon="6.14029">
        <ele>265</ele>
        <time>2012-03-25T13:51:49Z</time>
      </trkpt>
      <trkpt lat="48.68203" lon="6.14025">
        <ele>267</ele>
        <time>2012-03-25T13:51:51Z</time>
      </trkpt>
      <trkpt lat="48.68207" lon="6.14021">
        <ele>271</ele>
        <time>2012-03-25T13:51:53Z</time>
      </trkpt>
      <trkpt lat="48.68211" lon="6.14016">
        <ele>269</ele>
        <time>2012-03-25T13:51:55Z</time>
      </trkpt>
      <trkpt lat="48.68215" lon="6.14012">
        <ele>268</ele>
        <time>2012-03-25T13:51:57Z</time>
      </trkpt>
      <trkpt lat="48.68219" lon="6.14007">
        <ele>267</ele>
        <time>2012-03-25T13:51:59Z</time>
      </trkpt>
      <trkpt lat="48.68223" lon="6.14004">
        <ele>268</ele>
        <time>2012-03-25T13:52:01Z</time>
      </trkpt>
      <trkpt lat="48.68227" lon="6.14001">
        <ele>267</ele>
        <time>2012-03-25T13:52:03Z</time>
      </trkpt>
      <trkpt lat="48.6823" lon="6.13999">
        <ele>268</ele>
        <time>2012-03-25T13:52:05Z</time>
      </trkpt>
      <trkpt lat="48.68234" lon="6.13996">
        <ele>267</ele>
        <time>2012-03-25T13:52:07Z</time>
      </trkpt>
      <trkpt lat="48.68237" lon="6.13993">
        <ele>268</ele>
        <time>2012-03-25T13:52:09Z</time>
      </trkpt>
      <trkpt lat="48.68241" lon="6.1399">
        <ele>267</ele>
        <time>2012-03-25T13:52:11Z</time>
      </trkpt>
      <trkpt lat="48.68245" lon="6.13987">
        <ele>264</ele>
        <time>2012-03-25T13:52:13Z</time>
      </trkpt>
      <trkpt lat="48.68249" lon="6.13986">
        <ele>266</ele>
        <time>2012-03-25T13:52:15Z</time>
      </trkpt>
      <trkpt lat="48.68253" lon="6.13983">
        <ele>265</ele>
        <time>2012-03-25T13:52:17Z</time>
      </trkpt>
      <trkpt lat="48.68259" lon="6.13981">
        <ele>266</ele>
        <time>2012-03-25T13:52:19Z</time>
      </trkpt>
      <trkpt lat="48.68263" lon="6.13979">
        <ele>269</ele>
        <time>2012-03-25T13:52:21Z</time>
      </trkpt>
      <trkpt lat="48.68266" lon="6.13976">
        <ele>273</ele>
        <time>2012-03-25T13:52:23Z</time>
      </trkpt>
      <trkpt lat="48.6827" lon="6.13973">
        <ele>271</ele>
        <time>2012-03-25T13:52:25Z</time>
      </trkpt>
      <trkpt lat="48.68273" lon="6.1397">
        <ele>270</ele>
        <time>2012-03-25T13:52:27Z</time>
      </trkpt>
      <trkpt lat="48.68276" lon="6.13968">
        <ele>268</ele>
        <time>2012-03-25T13:52:29Z</time>
      </trkpt>
      <trkpt lat="48.68279" lon="6.13965">
        <ele>270</ele>
        <time>2012-03-25T13:52:31Z</time>
      </trkpt>
      <trkpt lat="48.68282" lon="6.13962">
        <ele>271</ele>
        <time>2012-03-25T13:52:33Z</time>
      </trkpt>
      <trkpt lat="48.68285" lon="6.1396">
        <ele>272</ele>
        <time>2012-03-25T13:52:35Z</time>
      </trkpt>
      <trkpt lat="48.68288" lon="6.13957">
        <ele>275</ele>
        <time>2012-03-25T13:52:37Z</time>
      </trkpt>
      <trkpt lat="48.68291" lon="6.13956">
        <ele>276</ele>
        <time>2012-03-25T13:52:39Z</time>
      </trkpt>
      <trkpt lat="48.68294" lon="6.13954">
        <ele>275</ele>
        <time>2012-03-25T13:52:41Z</time>
      </trkpt>
      <trkpt lat="48.68296" lon="6.13951">
        <ele>277</ele>
        <time>2012-03-25T13:52:43Z</time>
      </trkpt>
      <trkpt lat="48.683" lon="6.13948">
        <ele>276</ele>
        <time>2012-03-25T13:52:45Z</time>
      </trkpt>
      <trkpt lat="48.68303" lon="6.13945">
        <ele>275</ele>
        <time>2012-03-25T13:52:47Z</time>
      </trkpt>
      <trkpt lat="48.68306" lon="6.13942">
        <ele>280</ele>
        <time>2012-03-25T13:52:49Z</time>
      </trkpt>
      <trkpt lat="48.68309" lon="6.13938">
        <ele>282</ele>
        <time>2012-03-25T13:52:51Z</time>
      </trkpt>
      <trkpt lat="48.68313" lon="6.13934">
        <ele>280</ele>
        <time>2012-03-25T13:52:53Z</time>
      </trkpt>
      <trkpt lat="48.68316" lon="6.1393">
        <ele>280</ele>
        <time>2012-03-25T13:52:55Z</time>
      </trkpt>
      <trkpt lat="48.68319" lon="6.13927">
        <ele>281</ele>
        <time>2012-03-25T13:52:57Z</time>
      </trkpt>
      <trkpt lat="48.68322" lon="6.13924">
        <ele>280</ele>
        <time>2012-03-25T13:52:59Z</time>
      </trkpt>
      <trkpt lat="48.68325" lon="6.1392">
        <ele>281</ele>
        <time>2012-03-25T13:53:01Z</time>
      </trkpt>
      <trkpt lat="48.68328" lon="6.13917">
        <ele>282</ele>
        <time>2012-03-25T13:53:03Z</time>
      </trkpt>
      <trkpt lat="48.6833" lon="6.13913">
        <ele>283</ele>
        <time>2012-03-25T13:53:05Z</time>
      </trkpt>
      <trkpt lat="48.68333" lon="6.13913">
        <ele>280</ele>
        <time>2012-03-25T13:53:07Z</time>
      </trkpt>
      <trkpt lat="48.68338" lon="6.13914">
        <ele>284</ele>
        <time>2012-03-25T13:53:09Z</time>
      </trkpt>
      <trkpt lat="48.68346" lon="6.13916">
        <ele>286</ele>
        <time>2012-03-25T13:53:11Z</time>
      </trkpt>
      <trkpt lat="48.68354" lon="6.13916">
        <ele>283</ele>
        <time>2012-03-25T13:53:13Z</time>
      </trkpt>
      <trkpt lat="48.68363" lon="6.13912">
        <ele>282</ele>
        <time>2012-03-25T13:53:15Z</time>
      </trkpt>
      <trkpt lat="48.6837" lon="6.13907">
        <ele>283</ele>
        <time>2012-03-25T13:53:17Z</time>
      </trkpt>
      <trkpt lat="48.68374" lon="6.13904">
        <ele>281</ele>
        <time>2012-03-25T13:53:19Z</time>
      </trkpt>
      <trkpt lat="48.68377" lon="6.13902">
        <ele>278</ele>
        <time>2012-03-25T13:53:21Z</time>
      </trkpt>
      <trkpt lat="48.6838" lon="6.13899">
        <ele>279</ele>
        <time>2012-03-25T13:53:23Z</time>
      </trkpt>
      <trkpt lat="48.68383" lon="6.13897">
        <ele>282</ele>
        <time>2012-03-25T13:53:25Z</time>
      </trkpt>
      <trkpt lat="48.68386" lon="6.13894">
        <ele>283</ele>
        <time>2012-03-25T13:53:27Z</time>
      </trkpt>
      <trkpt lat="48.68389" lon="6.1389">
        <ele>284</ele>
        <time>2012-03-25T13:53:29Z</time>
      </trkpt>
      <trkpt lat="48.68392" lon="6.13888">
        <ele>282</ele>
        <time>2012-03-25T13:53:31Z</time>
      </trkpt>
      <trkpt lat="48.68394" lon="6.13885">
        <ele>280</ele>
        <time>2012-03-25T13:53:33Z</time>
      </trkpt>
      <trkpt lat="48.68398" lon="6.13881">
        <ele>280</ele>
        <time>2012-03-25T13:53:35Z</time>
      </trkpt>
      <trkpt lat="48.68401" lon="6.13877">
        <ele>280</ele>
        <time>2012-03-25T13:53:37Z</time>
      </trkpt>
      <trkpt lat="48.68404" lon="6.13874">
        <ele>280</ele>
        <time>2012-03-25T13:53:39Z</time>
      </trkpt>
      <trkpt lat="48.68407" lon="6.1387">
        <ele>278</ele>
        <time>2012-03-25T13:53:41Z</time>
      </trkpt>
      <trkpt lat="48.68411" lon="6.13865">
        <ele>278</ele>
        <time>2012-03-25T13:53:43Z</time>
      </trkpt>
      <trkpt lat="48.68413" lon="6.13861">
        <ele>279</ele>
        <time>2012-03-25T13:53:45Z</time>
      </trkpt>
      <trkpt lat="48.68416" lon="6.13856">
        <ele>277</ele>
        <time>2012-03-25T13:53:47Z</time>
      </trkpt>
      <trkpt lat="48.68419" lon="6.13851">
        <ele>278</ele>
        <time>2012-03-25T13:53:49Z</time>
      </trkpt>
      <trkpt lat="48.68422" lon="6.13847">
        <ele>279</ele>
        <time>2012-03-25T13:53:51Z</time>
      </trkpt>
      <trkpt lat="48.68426" lon="6.13842">
        <ele>280</ele>
        <time>2012-03-25T13:53:53Z</time>
      </trkpt>
      <trkpt lat="48.68429" lon="6.13837">
        <ele>281</ele>
        <time>2012-03-25T13:53:55Z</time>
      </trkpt>
      <trkpt lat="48.68433" lon="6.13831">
        <ele>284</ele>
        <time>2012-03-25T13:53:57Z</time>
      </trkpt>
      <trkpt lat="48.68435" lon="6.13825">
        <ele>284</ele>
        <time>2012-03-25T13:53:59Z</time>
      </trkpt>
      <trkpt lat="48.68439" lon="6.13819">
        <ele>281</ele>
        <time>2012-03-25T13:54:01Z</time>
      </trkpt>
      <trkpt lat="48.68441" lon="6.13814">
        <ele>282</ele>
        <time>2012-03-25T13:54:03Z</time>
      </trkpt>
      <trkpt lat="48.68444" lon="6.13808">
        <ele>278</ele>
        <time>2012-03-25T13:54:05Z</time>
      </trkpt>
      <trkpt lat="48.68446" lon="6.13803">
        <ele>276</ele>
        <time>2012-03-25T13:54:07Z</time>
      </trkpt>
      <trkpt lat="48.68449" lon="6.13796">
        <ele>278</ele>
        <time>2012-03-25T13:54:09Z</time>
      </trkpt>
      <trkpt lat="48.68452" lon="6.13791">
        <ele>278</ele>
        <time>2012-03-25T13:54:11Z</time>
      </trkpt>
      <trkpt lat="48.68455" lon="6.13784">
        <ele>280</ele>
        <time>2012-03-25T13:54:13Z</time>
      </trkpt>
      <trkpt lat="48.68457" lon="6.13779">
        <ele>284</ele>
        <time>2012-03-25T13:54:15Z</time>
      </trkpt>
      <trkpt lat="48.6846" lon="6.13773">
        <ele>285</ele>
        <time>2012-03-25T13:54:17Z</time>
      </trkpt>
      <trkpt lat="48.68462" lon="6.13767">
        <ele>285</ele>
        <time>2012-03-25T13:54:19Z</time>
      </trkpt>
      <trkpt lat="48.68465" lon="6.13761">
        <ele>285</ele>
        <time>2012-03-25T13:54:21Z</time>
      </trkpt>
      <trkpt lat="48.68468" lon="6.13753">
        <ele>283</ele>
        <time>2012-03-25T13:54:23Z</time>
      </trkpt>
      <trkpt lat="48.6847" lon="6.13746">
        <ele>284</ele>
        <time>2012-03-25T13:54:25Z</time>
      </trkpt>
      <trkpt lat="48.68471" lon="6.13738">
        <ele>285</ele>
        <time>2012-03-25T13:54:27Z</time>
      </trkpt>
      <trkpt lat="48.68473" lon="6.13733">
        <ele>285</ele>
        <time>2012-03-25T13:54:29Z</time>
      </trkpt>
      <trkpt lat="48.68475" lon="6.13726">
        <ele>286</ele>
        <time>2012-03-25T13:54:31Z</time>
      </trkpt>
      <trkpt lat="48.68476" lon="6.1372">
        <ele>286</ele>
        <time>2012-03-25T13:54:33Z</time>
      </trkpt>
      <trkpt lat="48.68477" lon="6.13713">
        <ele>286</ele>
        <time>2012-03-25T13:54:35Z</time>
      </trkpt>
      <trkpt lat="48.68477" lon="6.13705">
        <ele>288</ele>
        <time>2012-03-25T13:54:37Z</time>
      </trkpt>
      <trkpt lat="48.68476" lon="6.13699">
        <ele>290</ele>
        <time>2012-03-25T13:54:39Z</time>
      </trkpt>
      <trkpt lat="48.68478" lon="6.13692">
        <ele>290</ele>
        <time>2012-03-25T13:54:41Z</time>
      </trkpt>
      <trkpt lat="48.6848" lon="6.13686">
        <ele>290</ele>
        <time>2012-03-25T13:54:43Z</time>
      </trkpt>
      <trkpt lat="48.6848" lon="6.1368">
        <ele>293</ele>
        <time>2012-03-25T13:54:45Z</time>
      </trkpt>
      <trkpt lat="48.6848" lon="6.13674">
        <ele>291</ele>
        <time>2012-03-25T13:54:47Z</time>
      </trkpt>
      <trkpt lat="48.68479" lon="6.13669">
        <ele>294</ele>
        <time>2012-03-25T13:54:49Z</time>
      </trkpt>
      <trkpt lat="48.68479" lon="6.13663">
        <ele>297</ele>
        <time>2012-03-25T13:54:51Z</time>
      </trkpt>
      <trkpt lat="48.68479" lon="6.13656">
        <ele>296</ele>
        <time>2012-03-25T13:54:53Z</time>
      </trkpt>
      <trkpt lat="48.68481" lon="6.13648">
        <ele>299</ele>
        <time>2012-03-25T13:54:55Z</time>
      </trkpt>
      <trkpt lat="48.68482" lon="6.13641">
        <ele>298</ele>
        <time>2012-03-25T13:54:57Z</time>
      </trkpt>
      <trkpt lat="48.68481" lon="6.13633">
        <ele>299</ele>
        <time>2012-03-25T13:54:59Z</time>
      </trkpt>
      <trkpt lat="48.68481" lon="6.13626">
        <ele>294</ele>
        <time>2012-03-25T13:55:01Z</time>
      </trkpt>
      <trkpt lat="48.68481" lon="6.13619">
        <ele>294</ele>
        <time>2012-03-25T13:55:03Z</time>
      </trkpt>
      <trkpt lat="48.6848" lon="6.13611">
        <ele>293</ele>
        <time>2012-03-25T13:55:05Z</time>
      </trkpt>
      <trkpt lat="48.68477" lon="6.13606">
        <ele>295</ele>
        <time>2012-03-25T13:55:07Z</time>
      </trkpt>
      <trkpt lat="48.68477" lon="6.13599">
        <ele>295</ele>
        <time>2012-03-25T13:55:09Z</time>
      </trkpt>
      <trkpt lat="48.68477" lon="6.13592">
        <ele>296</ele>
        <time>2012-03-25T13:55:11Z</time>
      </trkpt>
      <trkpt lat="48.68477" lon="6.13584">
        <ele>297</ele>
        <time>2012-03-25T13:55:13Z</time>
      </trkpt>
      <trkpt lat="48.68477" lon="6.13576">
        <ele>299</ele>
        <time>2012-03-25T13:55:15Z</time>
      </trkpt>
      <trkpt lat="48.68477" lon="6.13569">
        <ele>299</ele>
        <time>2012-03-25T13:55:17Z</time>
      </trkpt>
      <trkpt lat="48.68476" lon="6.13562">
        <ele>300</ele>
        <time>2012-03-25T13:55:19Z</time>
      </trkpt>
      <trkpt lat="48.68477" lon="6.13555">
        <ele>301</ele>
        <time>2012-03-25T13:55:21Z</time>
      </trkpt>
      <trkpt lat="48.68477" lon="6.1355">
        <ele>302</ele>
        <time>2012-03-25T13:55:23Z</time>
      </trkpt>
      <trkpt lat="48.68477" lon="6.13544">
        <ele>301</ele>
        <time>2012-03-25T13:55:25Z</time>
      </trkpt>
      <trkpt lat="48.68477" lon="6.13536">
        <ele>300</ele>
        <time>2012-03-25T13:55:27Z</time>
      </trkpt>
      <trkpt lat="48.68477" lon="6.13529">
        <ele>298</ele>
        <time>2012-03-25T13:55:29Z</time>
      </trkpt>
      <trkpt lat="48.68476" lon="6.13523">
        <ele>301</ele>
        <time>2012-03-25T13:55:31Z</time>
      </trkpt>
      <trkpt lat="48.68476" lon="6.13516">
        <ele>301</ele>
        <time>2012-03-25T13:55:33Z</time>
      </trkpt>
      <trkpt lat="48.68475" lon="6.1351">
        <ele>304</ele>
        <time>2012-03-25T13:55:35Z</time>
      </trkpt>
      <trkpt lat="48.68475" lon="6.13502">
        <ele>309</ele>
        <time>2012-03-25T13:55:37Z</time>
      </trkpt>
      <trkpt lat="48.68475" lon="6.13495">
        <ele>308</ele>
        <time>2012-03-25T13:55:39Z</time>
      </trkpt>
      <trkpt lat="48.68475" lon="6.13488">
        <ele>307</ele>
        <time>2012-03-25T13:55:41Z</time>
      </trkpt>
      <trkpt lat="48.68475" lon="6.13481">
        <ele>308</ele>
        <time>2012-03-25T13:55:43Z</time>
      </trkpt>
      <trkpt lat="48.68477" lon="6.13476">
        <ele>308</ele>
        <time>2012-03-25T13:55:45Z</time>
      </trkpt>
      <trkpt lat="48.68477" lon="6.13469">
        <ele>308</ele>
        <time>2012-03-25T13:55:47Z</time>
      </trkpt>
      <trkpt lat="48.68478" lon="6.13461">
        <ele>308</ele>
        <time>2012-03-25T13:55:49Z</time>
      </trkpt>
      <trkpt lat="48.68478" lon="6.13455">
        <ele>308</ele>
        <time>2012-03-25T13:55:51Z</time>
      </trkpt>
      <trkpt lat="48.68478" lon="6.13448">
        <ele>307</ele>
        <time>2012-03-25T13:55:53Z</time>
      </trkpt>
      <trkpt lat="48.68478" lon="6.13443">
        <ele>309</ele>
        <time>2012-03-25T13:55:55Z</time>
      </trkpt>
      <trkpt lat="48.68477" lon="6.13437">
        <ele>311</ele>
        <time>2012-03-25T13:55:57Z</time>
      </trkpt>
      <trkpt lat="48.68478" lon="6.1343">
        <ele>311</ele>
        <time>2012-03-25T13:55:59Z</time>
      </trkpt>
      <trkpt lat="48.6848" lon="6.13423">
        <ele>311</ele>
        <time>2012-03-25T13:56:01Z</time>
      </trkpt>
      <trkpt lat="48.6848" lon="6.13417">
        <ele>311</ele>
        <time>2012-03-25T13:56:03Z</time>
      </trkpt>
      <trkpt lat="48.6848" lon="6.13411">
        <ele>312</ele>
        <time>2012-03-25T13:56:05Z</time>
      </trkpt>
      <trkpt lat="48.68481" lon="6.13405">
        <ele>313</ele>
        <time>2012-03-25T13:56:07Z</time>
      </trkpt>
      <trkpt lat="48.68481" lon="6.13399">
        <ele>313</ele>
        <time>2012-03-25T13:56:09Z</time>
      </trkpt>
      <trkpt lat="48.68483" lon="6.13393">
        <ele>312</ele>
        <time>2012-03-25T13:56:11Z</time>
      </trkpt>
      <trkpt lat="48.68482" lon="6.13387">
        <ele>315</ele>
        <time>2012-03-25T13:56:13Z</time>
      </trkpt>
      <trkpt lat="48.68482" lon="6.1338">
        <ele>317</ele>
        <time>2012-03-25T13:56:15Z</time>
      </trkpt>
      <trkpt lat="48.68484" lon="6.13372">
        <ele>318</ele>
        <time>2012-03-25T13:56:17Z</time>
      </trkpt>
      <trkpt lat="48.68485" lon="6.13367">
        <ele>319</ele>
        <time>2012-03-25T13:56:19Z</time>
      </trkpt>
      <trkpt lat="48.68486" lon="6.13361">
        <ele>319</ele>
        <time>2012-03-25T13:56:21Z</time>
      </trkpt>
      <trkpt lat="48.68487" lon="6.13356">
        <ele>319</ele>
        <time>2012-03-25T13:56:23Z</time>
      </trkpt>
      <trkpt lat="48.68489" lon="6.1335">
        <ele>321</ele>
        <time>2012-03-25T13:56:25Z</time>
      </trkpt>
      <trkpt lat="48.6849" lon="6.13345">
        <ele>319</ele>
        <time>2012-03-25T13:56:27Z</time>
      </trkpt>
      <trkpt lat="48.68492" lon="6.13338">
        <ele>319</ele>
        <time>2012-03-25T13:56:29Z</time>
      </trkpt>
      <trkpt lat="48.68493" lon="6.13332">
        <ele>318</ele>
        <time>2012-03-25T13:56:31Z</time>
      </trkpt>
      <trkpt lat="48.68494" lon="6.13326">
        <ele>318</ele>
        <time>2012-03-25T13:56:33Z</time>
      </trkpt>
      <trkpt lat="48.68496" lon="6.1332">
        <ele>318</ele>
        <time>2012-03-25T13:56:35Z</time>
      </trkpt>
      <trkpt lat="48.68499" lon="6.13315">
        <ele>319</ele>
        <time>2012-03-25T13:56:37Z</time>
      </trkpt>
      <trkpt lat="48.68501" lon="6.13309">
        <ele>318</ele>
        <time>2012-03-25T13:56:39Z</time>
      </trkpt>
      <trkpt lat="48.68502" lon="6.13303">
        <ele>318</ele>
        <time>2012-03-25T13:56:41Z</time>
      </trkpt>
      <trkpt lat="48.68504" lon="6.13297">
        <ele>318</ele>
        <time>2012-03-25T13:56:43Z</time>
      </trkpt>
      <trkpt lat="48.68507" lon="6.13292">
        <ele>318</ele>
        <time>2012-03-25T13:56:45Z</time>
      </trkpt>
      <trkpt lat="48.6851" lon="6.13286">
        <ele>317</ele>
        <time>2012-03-25T13:56:47Z</time>
      </trkpt>
      <trkpt lat="48.68514" lon="6.1328">
        <ele>319</ele>
        <time>2012-03-25T13:56:49Z</time>
      </trkpt>
      <trkpt lat="48.68517" lon="6.13273">
        <ele>319</ele>
        <time>2012-03-25T13:56:51Z</time>
      </trkpt>
      <trkpt lat="48.68521" lon="6.13266">
        <ele>320</ele>
        <time>2012-03-25T13:56:53Z</time>
      </trkpt>
      <trkpt lat="48.68523" lon="6.13261">
        <ele>320</ele>
        <time>2012-03-25T13:56:55Z</time>
      </trkpt>
      <trkpt lat="48.68526" lon="6.13255">
        <ele>321</ele>
        <time>2012-03-25T13:56:57Z</time>
      </trkpt>
      <trkpt lat="48.68529" lon="6.1325">
        <ele>322</ele>
        <time>2012-03-25T13:56:59Z</time>
      </trkpt>
      <trkpt lat="48.68531" lon="6.13246">
        <ele>323</ele>
        <time>2012-03-25T13:57:01Z</time>
      </trkpt>
      <trkpt lat="48.68533" lon="6.13242">
        <ele>324</ele>
        <time>2012-03-25T13:57:03Z</time>
      </trkpt>
      <trkpt lat="48.68537" lon="6.13238">
        <ele>324</ele>
        <time>2012-03-25T13:57:05Z</time>
      </trkpt>
      <trkpt lat="48.68541" lon="6.13233">
        <ele>321</ele>
        <time>2012-03-25T13:57:07Z</time>
      </trkpt>
      <trkpt lat="48.68544" lon="6.13228">
        <ele>321</ele>
        <time>2012-03-25T13:57:09Z</time>
      </trkpt>
      <trkpt lat="48.68548" lon="6.13223">
        <ele>323</ele>
        <time>2012-03-25T13:57:11Z</time>
      </trkpt>
      <trkpt lat="48.68554" lon="6.13217">
        <ele>324</ele>
        <time>2012-03-25T13:57:13Z</time>
      </trkpt>
      <trkpt lat="48.68558" lon="6.13213">
        <ele>325</ele>
        <time>2012-03-25T13:57:15Z</time>
      </trkpt>
      <trkpt lat="48.68561" lon="6.13209">
        <ele>325</ele>
        <time>2012-03-25T13:57:17Z</time>
      </trkpt>
      <trkpt lat="48.68565" lon="6.13206">
        <ele>322</ele>
        <time>2012-03-25T13:57:19Z</time>
      </trkpt>
      <trkpt lat="48.6857" lon="6.13201">
        <ele>324</ele>
        <time>2012-03-25T13:57:21Z</time>
      </trkpt>
      <trkpt lat="48.68574" lon="6.13196">
        <ele>324</ele>
        <time>2012-03-25T13:57:23Z</time>
      </trkpt>
      <trkpt lat="48.68578" lon="6.13192">
        <ele>325</ele>
        <time>2012-03-25T13:57:25Z</time>
      </trkpt>
      <trkpt lat="48.68582" lon="6.13188">
        <ele>326</ele>
        <time>2012-03-25T13:57:27Z</time>
      </trkpt>
      <trkpt lat="48.68586" lon="6.13185">
        <ele>326</ele>
        <time>2012-03-25T13:57:29Z</time>
      </trkpt>
      <trkpt lat="48.68591" lon="6.13182">
        <ele>328</ele>
        <time>2012-03-25T13:57:31Z</time>
      </trkpt>
      <trkpt lat="48.68595" lon="6.13179">
        <ele>328</ele>
        <time>2012-03-25T13:57:33Z</time>
      </trkpt>
      <trkpt lat="48.686" lon="6.13175">
        <ele>327</ele>
        <time>2012-03-25T13:57:35Z</time>
      </trkpt>
      <trkpt lat="48.68604" lon="6.13171">
        <ele>327</ele>
        <time>2012-03-25T13:57:37Z</time>
      </trkpt>
      <trkpt lat="48.68608" lon="6.13168">
        <ele>326</ele>
        <time>2012-03-25T13:57:39Z</time>
      </trkpt>
      <trkpt lat="48.68612" lon="6.13165">
        <ele>326</ele>
        <time>2012-03-25T13:57:41Z</time>
      </trkpt>
      <trkpt lat="48.68616" lon="6.13162">
        <ele>325</ele>
        <time>2012-03-25T13:57:43Z</time>
      </trkpt>
      <trkpt lat="48.68621" lon="6.1316">
        <ele>325</ele>
        <time>2012-03-25T13:57:45Z</time>
      </trkpt>
      <trkpt lat="48.68625" lon="6.13158">
        <ele>326</ele>
        <time>2012-03-25T13:57:47Z</time>
      </trkpt>
      <trkpt lat="48.68631" lon="6.13153">
        <ele>330</ele>
        <time>2012-03-25T13:57:49Z</time>
      </trkpt>
      <trkpt lat="48.68635" lon="6.13151">
        <ele>329</ele>
        <time>2012-03-25T13:57:51Z</time>
      </trkpt>
      <trkpt lat="48.68641" lon="6.13147">
        <ele>329</ele>
        <time>2012-03-25T13:57:53Z</time>
      </trkpt>
      <trkpt lat="48.68645" lon="6.13145">
        <ele>328</ele>
        <time>2012-03-25T13:57:55Z</time>
      </trkpt>
      <trkpt lat="48.68649" lon="6.13144">
        <ele>327</ele>
        <time>2012-03-25T13:57:57Z</time>
      </trkpt>
      <trkpt lat="48.68652" lon="6.13142">
        <ele>327</ele>
        <time>2012-03-25T13:57:59Z</time>
      </trkpt>
      <trkpt lat="48.68658" lon="6.13141">
        <ele>320</ele>
        <time>2012-03-25T13:58:01Z</time>
      </trkpt>
      <trkpt lat="48.68662" lon="6.13141">
        <ele>322</ele>
        <time>2012-03-25T13:58:03Z</time>
      </trkpt>
      <trkpt lat="48.68667" lon="6.13139">
        <ele>327</ele>
        <time>2012-03-25T13:58:05Z</time>
      </trkpt>
      <trkpt lat="48.68671" lon="6.13138">
        <ele>326</ele>
        <time>2012-03-25T13:58:07Z</time>
      </trkpt>
      <trkpt lat="48.68676" lon="6.13138">
        <ele>327</ele>
        <time>2012-03-25T13:58:09Z</time>
      </trkpt>
      <trkpt lat="48.68681" lon="6.13139">
        <ele>328</ele>
        <time>2012-03-25T13:58:11Z</time>
      </trkpt>
      <trkpt lat="48.68685" lon="6.1314">
        <ele>329</ele>
        <time>2012-03-25T13:58:13Z</time>
      </trkpt>
      <trkpt lat="48.68689" lon="6.13141">
        <ele>331</ele>
        <time>2012-03-25T13:58:15Z</time>
      </trkpt>
      <trkpt lat="48.68694" lon="6.13141">
        <ele>330</ele>
        <time>2012-03-25T13:58:17Z</time>
      </trkpt>
      <trkpt lat="48.68699" lon="6.13142">
        <ele>335</ele>
        <time>2012-03-25T13:58:19Z</time>
      </trkpt>
      <trkpt lat="48.68704" lon="6.13143">
        <ele>335</ele>
        <time>2012-03-25T13:58:21Z</time>
      </trkpt>
      <trkpt lat="48.68709" lon="6.13145">
        <ele>337</ele>
        <time>2012-03-25T13:58:23Z</time>
      </trkpt>
      <trkpt lat="48.68713" lon="6.13146">
        <ele>334</ele>
        <time>2012-03-25T13:58:25Z</time>
      </trkpt>
      <trkpt lat="48.68717" lon="6.13147">
        <ele>336</ele>
        <time>2012-03-25T13:58:27Z</time>
      </trkpt>
      <trkpt lat="48.68722" lon="6.13145">
        <ele>337</ele>
        <time>2012-03-25T13:58:29Z</time>
      </trkpt>
      <trkpt lat="48.68727" lon="6.13145">
        <ele>335</ele>
        <time>2012-03-25T13:58:31Z</time>
      </trkpt>
      <trkpt lat="48.68733" lon="6.13145">
        <ele>333</ele>
        <time>2012-03-25T13:58:33Z</time>
      </trkpt>
      <trkpt lat="48.68737" lon="6.13146">
        <ele>335</ele>
        <time>2012-03-25T13:58:35Z</time>
      </trkpt>
      <trkpt lat="48.68743" lon="6.13146">
        <ele>329</ele>
        <time>2012-03-25T13:58:37Z</time>
      </trkpt>
      <trkpt lat="48.68747" lon="6.13145">
        <ele>330</ele>
        <time>2012-03-25T13:58:39Z</time>
      </trkpt>
      <trkpt lat="48.68752" lon="6.13146">
        <ele>328</ele>
        <time>2012-03-25T13:58:41Z</time>
      </trkpt>
      <trkpt lat="48.68757" lon="6.13146">
        <ele>329</ele>
        <time>2012-03-25T13:58:43Z</time>
      </trkpt>
      <trkpt lat="48.68761" lon="6.13147">
        <ele>328</ele>
        <time>2012-03-25T13:58:45Z</time>
      </trkpt>
      <trkpt lat="48.68765" lon="6.13148">
        <ele>330</ele>
        <time>2012-03-25T13:58:47Z</time>
      </trkpt>
      <trkpt lat="48.68769" lon="6.1315">
        <ele>329</ele>
        <time>2012-03-25T13:58:49Z</time>
      </trkpt>
      <trkpt lat="48.68773" lon="6.1315">
        <ele>328</ele>
        <time>2012-03-25T13:58:51Z</time>
      </trkpt>
      <trkpt lat="48.68778" lon="6.13151">
        <ele>330</ele>
        <time>2012-03-25T13:58:53Z</time>
      </trkpt>
      <trkpt lat="48.68782" lon="6.13153">
        <ele>328</ele>
        <time>2012-03-25T13:58:55Z</time>
      </trkpt>
      <trkpt lat="48.68786" lon="6.13156">
        <ele>330</ele>
        <time>2012-03-25T13:58:57Z</time>
      </trkpt>
      <trkpt lat="48.68791" lon="6.13159">
        <ele>327</ele>
        <time>2012-03-25T13:58:59Z</time>
      </trkpt>
      <trkpt lat="48.68794" lon="6.13161">
        <ele>327</ele>
        <time>2012-03-25T13:59:01Z</time>
      </trkpt>
      <trkpt lat="48.68798" lon="6.13163">
        <ele>326</ele>
        <time>2012-03-25T13:59:03Z</time>
      </trkpt>
      <trkpt lat="48.68802" lon="6.13166">
        <ele>326</ele>
        <time>2012-03-25T13:59:05Z</time>
      </trkpt>
      <trkpt lat="48.68807" lon="6.13169">
        <ele>326</ele>
        <time>2012-03-25T13:59:07Z</time>
      </trkpt>
      <trkpt lat="48.68811" lon="6.13172">
        <ele>328</ele>
        <time>2012-03-25T13:59:09Z</time>
      </trkpt>
      <trkpt lat="48.68815" lon="6.13176">
        <ele>327</ele>
        <time>2012-03-25T13:59:11Z</time>
      </trkpt>
      <trkpt lat="48.68819" lon="6.1318">
        <ele>327</ele>
        <time>2012-03-25T13:59:13Z</time>
      </trkpt>
      <trkpt lat="48.68823" lon="6.13181">
        <ele>330</ele>
        <time>2012-03-25T13:59:15Z</time>
      </trkpt>
      <trkpt lat="48.68826" lon="6.13182">
        <ele>333</ele>
        <time>2012-03-25T13:59:17Z</time>
      </trkpt>
      <trkpt lat="48.68829" lon="6.13179">
        <ele>332</ele>
        <time>2012-03-25T13:59:19Z</time>
      </trkpt>
      <trkpt lat="48.6883" lon="6.13175">
        <ele>335</ele>
        <time>2012-03-25T13:59:21Z</time>
      </trkpt>
      <trkpt lat="48.6883" lon="6.1317">
        <ele>337</ele>
        <time>2012-03-25T13:59:23Z</time>
      </trkpt>
      <trkpt lat="48.6883" lon="6.13164">
        <ele>339</ele>
        <time>2012-03-25T13:59:25Z</time>
      </trkpt>
      <trkpt lat="48.68829" lon="6.13158">
        <ele>339</ele>
        <time>2012-03-25T13:59:27Z</time>
      </trkpt>
      <trkpt lat="48.68828" lon="6.13153">
        <ele>339</ele>
        <time>2012-03-25T13:59:29Z</time>
      </trkpt>
      <trkpt lat="48.68827" lon="6.13145">
        <ele>339</ele>
        <time>2012-03-25T13:59:31Z</time>
      </trkpt>
      <trkpt lat="48.68826" lon="6.13137">
        <ele>339</ele>
        <time>2012-03-25T13:59:33Z</time>
      </trkpt>
      <trkpt lat="48.68824" lon="6.1313">
        <ele>339</ele>
        <time>2012-03-25T13:59:35Z</time>
      </trkpt>
      <trkpt lat="48.68823" lon="6.13122">
        <ele>341</ele>
        <time>2012-03-25T13:59:37Z</time>
      </trkpt>
      <trkpt lat="48.68823" lon="6.13112">
        <ele>336</ele>
        <time>2012-03-25T13:59:39Z</time>
      </trkpt>
      <trkpt lat="48.68823" lon="6.13105">
        <ele>338</ele>
        <time>2012-03-25T13:59:41Z</time>
      </trkpt>
      <trkpt lat="48.68823" lon="6.13098">
        <ele>339</ele>
        <time>2012-03-25T13:59:43Z</time>
      </trkpt>
      <trkpt lat="48.68823" lon="6.1309">
        <ele>339</ele>
        <time>2012-03-25T13:59:45Z</time>
      </trkpt>
      <trkpt lat="48.68823" lon="6.13084">
        <ele>340</ele>
        <time>2012-03-25T13:59:47Z</time>
      </trkpt>
      <trkpt lat="48.68823" lon="6.13078">
        <ele>341</ele>
        <time>2012-03-25T13:59:49Z</time>
      </trkpt>
      <trkpt lat="48.68822" lon="6.1307">
        <ele>342</ele>
        <time>2012-03-25T13:59:51Z</time>
      </trkpt>
      <trkpt lat="48.68821" lon="6.13064">
        <ele>343</ele>
        <time>2012-03-25T13:59:53Z</time>
      </trkpt>
      <trkpt lat="48.6882" lon="6.13058">
        <ele>343</ele>
        <time>2012-03-25T13:59:55Z</time>
      </trkpt>
      <trkpt lat="48.68819" lon="6.13052">
        <ele>344</ele>
        <time>2012-03-25T13:59:57Z</time>
      </trkpt>
      <trkpt lat="48.68818" lon="6.13046">
        <ele>343</ele>
        <time>2012-03-25T13:59:59Z</time>
      </trkpt>
      <trkpt lat="48.68817" lon="6.1304">
        <ele>343</ele>
        <time>2012-03-25T14:00:01Z</time>
      </trkpt>
      <trkpt lat="48.68817" lon="6.13033">
        <ele>343</ele>
        <time>2012-03-25T14:00:03Z</time>
      </trkpt>
      <trkpt lat="48.68816" lon="6.13027">
        <ele>343</ele>
        <time>2012-03-25T14:00:05Z</time>
      </trkpt>
      <trkpt lat="48.68816" lon="6.13021">
        <ele>344</ele>
        <time>2012-03-25T14:00:07Z</time>
      </trkpt>
      <trkpt lat="48.68815" lon="6.13014">
        <ele>346</ele>
        <time>2012-03-25T14:00:09Z</time>
      </trkpt>
      <trkpt lat="48.68815" lon="6.13009">
        <ele>347</ele>
        <time>2012-03-25T14:00:11Z</time>
      </trkpt>
      <trkpt lat="48.68814" lon="6.13003">
        <ele>348</ele>
        <time>2012-03-25T14:00:13Z</time>
      </trkpt>
      <trkpt lat="48.68814" lon="6.12996">
        <ele>349</ele>
        <time>2012-03-25T14:00:15Z</time>
      </trkpt>
      <trkpt lat="48.68814" lon="6.1299">
        <ele>350</ele>
        <time>2012-03-25T14:00:17Z</time>
      </trkpt>
      <trkpt lat="48.68813" lon="6.12984">
        <ele>352</ele>
        <time>2012-03-25T14:00:19Z</time>
      </trkpt>
      <trkpt lat="48.68813" lon="6.12977">
        <ele>353</ele>
        <time>2012-03-25T14:00:21Z</time>
      </trkpt>
      <trkpt lat="48.68813" lon="6.1297">
        <ele>346</ele>
        <time>2012-03-25T14:00:23Z</time>
      </trkpt>
      <trkpt lat="48.68811" lon="6.12963">
        <ele>347</ele>
        <time>2012-03-25T14:00:25Z</time>
      </trkpt>
      <trkpt lat="48.6881" lon="6.12957">
        <ele>350</ele>
        <time>2012-03-25T14:00:27Z</time>
      </trkpt>
      <trkpt lat="48.68809" lon="6.1295">
        <ele>350</ele>
        <time>2012-03-25T14:00:29Z</time>
      </trkpt>
      <trkpt lat="48.68809" lon="6.12942">
        <ele>345</ele>
        <time>2012-03-25T14:00:31Z</time>
      </trkpt>
      <trkpt lat="48.68809" lon="6.12934">
        <ele>348</ele>
        <time>2012-03-25T14:00:33Z</time>
      </trkpt>
      <trkpt lat="48.68808" lon="6.12927">
        <ele>348</ele>
        <time>2012-03-25T14:00:35Z</time>
      </trkpt>
      <trkpt lat="48.68808" lon="6.12919">
        <ele>347</ele>
        <time>2012-03-25T14:00:37Z</time>
      </trkpt>
      <trkpt lat="48.68808" lon="6.1291">
        <ele>348</ele>
        <time>2012-03-25T14:00:39Z</time>
      </trkpt>
      <trkpt lat="48.68809" lon="6.12901">
        <ele>347</ele>
        <time>2012-03-25T14:00:41Z</time>
      </trkpt>
      <trkpt lat="48.68808" lon="6.12893">
        <ele>348</ele>
        <time>2012-03-25T14:00:43Z</time>
      </trkpt>
      <trkpt lat="48.68808" lon="6.12884">
        <ele>348</ele>
        <time>2012-03-25T14:00:45Z</time>
      </trkpt>
      <trkpt lat="48.68807" lon="6.12877">
        <ele>349</ele>
        <time>2012-03-25T14:00:47Z</time>
      </trkpt>
      <trkpt lat="48.68807" lon="6.12868">
        <ele>350</ele>
        <time>2012-03-25T14:00:49Z</time>
      </trkpt>
      <trkpt lat="48.68807" lon="6.12859">
        <ele>350</ele>
        <time>2012-03-25T14:00:51Z</time>
      </trkpt>
      <trkpt lat="48.68806" lon="6.1285">
        <ele>347</ele>
        <time>2012-03-25T14:00:53Z</time>
      </trkpt>
      <trkpt lat="48.68806" lon="6.1284">
        <ele>349</ele>
        <time>2012-03-25T14:00:55Z</time>
      </trkpt>
      <trkpt lat="48.68807" lon="6.1283">
        <ele>349</ele>
        <time>2012-03-25T14:00:57Z</time>
      </trkpt>
      <trkpt lat="48.68805" lon="6.12821">
        <ele>348</ele>
        <time>2012-03-25T14:00:59Z</time>
      </trkpt>
      <trkpt lat="48.68804" lon="6.12813">
        <ele>348</ele>
        <time>2012-03-25T14:01:01Z</time>
      </trkpt>
      <trkpt lat="48.68803" lon="6.12806">
        <ele>349</ele>
        <time>2012-03-25T14:01:03Z</time>
      </trkpt>
      <trkpt lat="48.68803" lon="6.12797">
        <ele>353</ele>
        <time>2012-03-25T14:01:05Z</time>
      </trkpt>
      <trkpt lat="48.68803" lon="6.12788">
        <ele>353</ele>
        <time>2012-03-25T14:01:07Z</time>
      </trkpt>
      <trkpt lat="48.68802" lon="6.12778">
        <ele>353</ele>
        <time>2012-03-25T14:01:09Z</time>
      </trkpt>
      <trkpt lat="48.688" lon="6.1277">
        <ele>353</ele>
        <time>2012-03-25T14:01:11Z</time>
      </trkpt>
      <trkpt lat="48.68798" lon="6.12759">
        <ele>351</ele>
        <time>2012-03-25T14:01:13Z</time>
      </trkpt>
      <trkpt lat="48.68795" lon="6.12749">
        <ele>353</ele>
        <time>2012-03-25T14:01:15Z</time>
      </trkpt>
      <trkpt lat="48.68792" lon="6.12739">
        <ele>357</ele>
        <time>2012-03-25T14:01:17Z</time>
      </trkpt>
      <trkpt lat="48.68788" lon="6.12733">
        <ele>354</ele>
        <time>2012-03-25T14:01:19Z</time>
      </trkpt>
      <trkpt lat="48.68781" lon="6.1273">
        <ele>353</ele>
        <time>2012-03-25T14:01:21Z</time>
      </trkpt>
      <trkpt lat="48.68774" lon="6.12731">
        <ele>352</ele>
        <time>2012-03-25T14:01:23Z</time>
      </trkpt>
      <trkpt lat="48.68766" lon="6.12733">
        <ele>352</ele>
        <time>2012-03-25T14:01:25Z</time>
      </trkpt>
      <trkpt lat="48.68758" lon="6.12737">
        <ele>354</ele>
        <time>2012-03-25T14:01:27Z</time>
      </trkpt>
      <trkpt lat="48.68748" lon="6.12742">
        <ele>352</ele>
        <time>2012-03-25T14:01:29Z</time>
      </trkpt>
      <trkpt lat="48.68739" lon="6.12746">
        <ele>354</ele>
        <time>2012-03-25T14:01:31Z</time>
      </trkpt>
      <trkpt lat="48.6873" lon="6.12751">
        <ele>355</ele>
        <time>2012-03-25T14:01:33Z</time>
      </trkpt>
      <trkpt lat="48.68721" lon="6.12755">
        <ele>353</ele>
        <time>2012-03-25T14:01:35Z</time>
      </trkpt>
      <trkpt lat="48.68714" lon="6.12759">
        <ele>355</ele>
        <time>2012-03-25T14:01:37Z</time>
      </trkpt>
      <trkpt lat="48.68705" lon="6.12763">
        <ele>354</ele>
        <time>2012-03-25T14:01:39Z</time>
      </trkpt>
      <trkpt lat="48.68695" lon="6.12767">
        <ele>352</ele>
        <time>2012-03-25T14:01:41Z</time>
      </trkpt>
      <trkpt lat="48.68686" lon="6.1277">
        <ele>348</ele>
        <time>2012-03-25T14:01:43Z</time>
      </trkpt>
      <trkpt lat="48.68675" lon="6.12772">
        <ele>349</ele>
        <time>2012-03-25T14:01:45Z</time>
      </trkpt>
      <trkpt lat="48.68665" lon="6.12776">
        <ele>356</ele>
        <time>2012-03-25T14:01:47Z</time>
      </trkpt>
      <trkpt lat="48.68655" lon="6.12779">
        <ele>361</ele>
        <time>2012-03-25T14:01:49Z</time>
      </trkpt>
      <trkpt lat="48.68644" lon="6.12783">
        <ele>355</ele>
        <time>2012-03-25T14:01:51Z</time>
      </trkpt>
      <trkpt lat="48.68634" lon="6.12787">
        <ele>356</ele>
        <time>2012-03-25T14:01:53Z</time>
      </trkpt>
      <trkpt lat="48.68624" lon="6.1279">
        <ele>355</ele>
        <time>2012-03-25T14:01:55Z</time>
      </trkpt>
      <trkpt lat="48.68614" lon="6.12792">
        <ele>354</ele>
        <time>2012-03-25T14:01:57Z</time>
      </trkpt>
      <trkpt lat="48.68604" lon="6.12795">
        <ele>355</ele>
        <time>2012-03-25T14:01:59Z</time>
      </trkpt>
      <trkpt lat="48.68593" lon="6.12797">
        <ele>356</ele>
        <time>2012-03-25T14:02:01Z</time>
      </trkpt>
      <trkpt lat="48.68582" lon="6.128">
        <ele>353</ele>
        <time>2012-03-25T14:02:03Z</time>
      </trkpt>
      <trkpt lat="48.68571" lon="6.12805">
        <ele>353</ele>
        <time>2012-03-25T14:02:05Z</time>
      </trkpt>
      <trkpt lat="48.6856" lon="6.12811">
        <ele>355</ele>
        <time>2012-03-25T14:02:07Z</time>
      </trkpt>
      <trkpt lat="48.68551" lon="6.12816">
        <ele>358</ele>
        <time>2012-03-25T14:02:09Z</time>
      </trkpt>
      <trkpt lat="48.68541" lon="6.12821">
        <ele>354</ele>
        <time>2012-03-25T14:02:11Z</time>
      </trkpt>
      <trkpt lat="48.68531" lon="6.12828">
        <ele>351</ele>
        <time>2012-03-25T14:02:13Z</time>
      </trkpt>
      <trkpt lat="48.68524" lon="6.12834">
        <ele>350</ele>
        <time>2012-03-25T14:02:15Z</time>
      </trkpt>
      <trkpt lat="48.68516" lon="6.12842">
        <ele>353</ele>
        <time>2012-03-25T14:02:17Z</time>
      </trkpt>
      <trkpt lat="48.68507" lon="6.12848">
        <ele>354</ele>
        <time>2012-03-25T14:02:19Z</time>
      </trkpt>
      <trkpt lat="48.68498" lon="6.12853">
        <ele>353</ele>
        <time>2012-03-25T14:02:21Z</time>
      </trkpt>
      <trkpt lat="48.6849" lon="6.12858">
        <ele>351</ele>
        <time>2012-03-25T14:02:23Z</time>
      </trkpt>
      <trkpt lat="48.68481" lon="6.12865">
        <ele>352</ele>
        <time>2012-03-25T14:02:25Z</time>
      </trkpt>
      <trkpt lat="48.68474" lon="6.12874">
        <ele>354</ele>
        <time>2012-03-25T14:02:27Z</time>
      </trkpt>
      <trkpt lat="48.68467" lon="6.12883">
        <ele>348</ele>
        <time>2012-03-25T14:02:29Z</time>
      </trkpt>
      <trkpt lat="48.6846" lon="6.12883">
        <ele>349</ele>
        <time>2012-03-25T14:02:31Z</time>
      </trkpt>
      <trkpt lat="48.68453" lon="6.12881">
        <ele>345</ele>
        <time>2012-03-25T14:02:33Z</time>
      </trkpt>
      <trkpt lat="48.68448" lon="6.12876">
        <ele>349</ele>
        <time>2012-03-25T14:02:35Z</time>
      </trkpt>
      <trkpt lat="48.68444" lon="6.12872">
        <ele>348</ele>
        <time>2012-03-25T14:02:37Z</time>
      </trkpt>
      <trkpt lat="48.6844" lon="6.12869">
        <ele>351</ele>
        <time>2012-03-25T14:02:39Z</time>
      </trkpt>
      <trkpt lat="48.68433" lon="6.12866">
        <ele>350</ele>
        <time>2012-03-25T14:02:41Z</time>
      </trkpt>
      <trkpt lat="48.68426" lon="6.12866">
        <ele>351</ele>
        <time>2012-03-25T14:02:43Z</time>
      </trkpt>
      <trkpt lat="48.68419" lon="6.12868">
        <ele>351</ele>
        <time>2012-03-25T14:02:45Z</time>
      </trkpt>
      <trkpt lat="48.68411" lon="6.12871">
        <ele>350</ele>
        <time>2012-03-25T14:02:47Z</time>
      </trkpt>
      <trkpt lat="48.68405" lon="6.12872">
        <ele>351</ele>
        <time>2012-03-25T14:02:49Z</time>
      </trkpt>
      <trkpt lat="48.68398" lon="6.12873">
        <ele>350</ele>
        <time>2012-03-25T14:02:51Z</time>
      </trkpt>
      <trkpt lat="48.68392" lon="6.12876">
        <ele>349</ele>
        <time>2012-03-25T14:02:53Z</time>
      </trkpt>
      <trkpt lat="48.68387" lon="6.12877">
        <ele>353</ele>
        <time>2012-03-25T14:02:55Z</time>
      </trkpt>
      <trkpt lat="48.68381" lon="6.12879">
        <ele>355</ele>
        <time>2012-03-25T14:02:57Z</time>
      </trkpt>
      <trkpt lat="48.68374" lon="6.12881">
        <ele>356</ele>
        <time>2012-03-25T14:02:59Z</time>
      </trkpt>
      <trkpt lat="48.68368" lon="6.12882">
        <ele>359</ele>
        <time>2012-03-25T14:03:01Z</time>
      </trkpt>
      <trkpt lat="48.68362" lon="6.12883">
        <ele>363</ele>
        <time>2012-03-25T14:03:03Z</time>
      </trkpt>
      <trkpt lat="48.68354" lon="6.12885">
        <ele>364</ele>
        <time>2012-03-25T14:03:05Z</time>
      </trkpt>
      <trkpt lat="48.68346" lon="6.12886">
        <ele>366</ele>
        <time>2012-03-25T14:03:07Z</time>
      </trkpt>
      <trkpt lat="48.68339" lon="6.12889">
        <ele>371</ele>
        <time>2012-03-25T14:03:09Z</time>
      </trkpt>
      <trkpt lat="48.68333" lon="6.12891">
        <ele>371</ele>
        <time>2012-03-25T14:03:11Z</time>
      </trkpt>
      <trkpt lat="48.68327" lon="6.12892">
        <ele>374</ele>
        <time>2012-03-25T14:03:13Z</time>
      </trkpt>
      <trkpt lat="48.68321" lon="6.12894">
        <ele>375</ele>
        <time>2012-03-25T14:03:15Z</time>
      </trkpt>
      <trkpt lat="48.68313" lon="6.12896">
        <ele>377</ele>
        <time>2012-03-25T14:03:17Z</time>
      </trkpt>
      <trkpt lat="48.68306" lon="6.12897">
        <ele>374</ele>
        <time>2012-03-25T14:03:19Z</time>
      </trkpt>
      <trkpt lat="48.68299" lon="6.12897">
        <ele>368</ele>
        <time>2012-03-25T14:03:21Z</time>
      </trkpt>
      <trkpt lat="48.68291" lon="6.12897">
        <ele>370</ele>
        <time>2012-03-25T14:03:23Z</time>
      </trkpt>
      <trkpt lat="48.68285" lon="6.12897">
        <ele>364</ele>
        <time>2012-03-25T14:03:25Z</time>
      </trkpt>
      <trkpt lat="48.6828" lon="6.12894">
        <ele>365</ele>
        <time>2012-03-25T14:03:27Z</time>
      </trkpt>
      <trkpt lat="48.68273" lon="6.12891">
        <ele>361</ele>
        <time>2012-03-25T14:03:29Z</time>
      </trkpt>
      <trkpt lat="48.68269" lon="6.12885">
        <ele>359</ele>
        <time>2012-03-25T14:03:31Z</time>
      </trkpt>
      <trkpt lat="48.68264" lon="6.12877">
        <ele>359</ele>
        <time>2012-03-25T14:03:33Z</time>
      </trkpt>
      <trkpt lat="48.68261" lon="6.12868">
        <ele>360</ele>
        <time>2012-03-25T14:03:35Z</time>
      </trkpt>
      <trkpt lat="48.68257" lon="6.12859">
        <ele>357</ele>
        <time>2012-03-25T14:03:37Z</time>
      </trkpt>
      <trkpt lat="48.68253" lon="6.12854">
        <ele>357</ele>
        <time>2012-03-25T14:03:39Z</time>
      </trkpt>
      <trkpt lat="48.68249" lon="6.12851">
        <ele>358</ele>
        <time>2012-03-25T14:03:41Z</time>
      </trkpt>
      <trkpt lat="48.68246" lon="6.12851">
        <ele>357</ele>
        <time>2012-03-25T14:03:43Z</time>
      </trkpt>
      <trkpt lat="48.68243" lon="6.12853">
        <ele>356</ele>
        <time>2012-03-25T14:03:45Z</time>
      </trkpt>
      <trkpt lat="48.68237" lon="6.12856">
        <ele>354</ele>
        <time>2012-03-25T14:03:47Z</time>
      </trkpt>
      <trkpt lat="48.6823" lon="6.12858">
        <ele>358</ele>
        <time>2012-03-25T14:03:49Z</time>
      </trkpt>
      <trkpt lat="48.68224" lon="6.12859">
        <ele>358</ele>
        <time>2012-03-25T14:03:51Z</time>
      </trkpt>
      <trkpt lat="48.68216" lon="6.1286">
        <ele>359</ele>
        <time>2012-03-25T14:03:53Z</time>
      </trkpt>
      <trkpt lat="48.68208" lon="6.12861">
        <ele>362</ele>
        <time>2012-03-25T14:03:55Z</time>
      </trkpt>
      <trkpt lat="48.68202" lon="6.12862">
        <ele>363</ele>
        <time>2012-03-25T14:03:57Z</time>
      </trkpt>
      <trkpt lat="48.68196" lon="6.12864">
        <ele>364</ele>
        <time>2012-03-25T14:03:59Z</time>
      </trkpt>
      <trkpt lat="48.68189" lon="6.12863">
        <ele>367</ele>
        <time>2012-03-25T14:04:01Z</time>
      </trkpt>
      <trkpt lat="48.68183" lon="6.12862">
        <ele>369</ele>
        <time>2012-03-25T14:04:03Z</time>
      </trkpt>
      <trkpt lat="48.68177" lon="6.12863">
        <ele>370</ele>
        <time>2012-03-25T14:04:05Z</time>
      </trkpt>
      <trkpt lat="48.68172" lon="6.12862">
        <ele>374</ele>
        <time>2012-03-25T14:04:07Z</time>
      </trkpt>
      <trkpt lat="48.68166" lon="6.12862">
        <ele>373</ele>
        <time>2012-03-25T14:04:09Z</time>
      </trkpt>
      <trkpt lat="48.68158" lon="6.12862">
        <ele>368</ele>
        <time>2012-03-25T14:04:11Z</time>
      </trkpt>
      <trkpt lat="48.68152" lon="6.12862">
        <ele>368</ele>
        <time>2012-03-25T14:04:13Z</time>
      </trkpt>
      <trkpt lat="48.68147" lon="6.12861">
        <ele>370</ele>
        <time>2012-03-25T14:04:15Z</time>
      </trkpt>
      <trkpt lat="48.68139" lon="6.12861">
        <ele>375</ele>
        <time>2012-03-25T14:04:17Z</time>
      </trkpt>
      <trkpt lat="48.6813" lon="6.12861">
        <ele>375</ele>
        <time>2012-03-25T14:04:19Z</time>
      </trkpt>
      <trkpt lat="48.68124" lon="6.12861">
        <ele>373</ele>
        <time>2012-03-25T14:04:21Z</time>
      </trkpt>
      <trkpt lat="48.68117" lon="6.1286">
        <ele>375</ele>
        <time>2012-03-25T14:04:23Z</time>
      </trkpt>
      <trkpt lat="48.6811" lon="6.12859">
        <ele>376</ele>
        <time>2012-03-25T14:04:25Z</time>
      </trkpt>
      <trkpt lat="48.68103" lon="6.12855">
        <ele>373</ele>
        <time>2012-03-25T14:04:27Z</time>
      </trkpt>
      <trkpt lat="48.68096" lon="6.12852">
        <ele>375</ele>
        <time>2012-03-25T14:04:29Z</time>
      </trkpt>
      <trkpt lat="48.68089" lon="6.1285">
        <ele>374</ele>
        <time>2012-03-25T14:04:31Z</time>
      </trkpt>
      <trkpt lat="48.68083" lon="6.12847">
        <ele>373</ele>
        <time>2012-03-25T14:04:33Z</time>
      </trkpt>
      <trkpt lat="48.68079" lon="6.12842">
        <ele>372</ele>
        <time>2012-03-25T14:04:35Z</time>
      </trkpt>
      <trkpt lat="48.68072" lon="6.12834">
        <ele>378</ele>
        <time>2012-03-25T14:04:37Z</time>
      </trkpt>
      <trkpt lat="48.68064" lon="6.12829">
        <ele>379</ele>
        <time>2012-03-25T14:04:39Z</time>
      </trkpt>
      <trkpt lat="48.68055" lon="6.12826">
        <ele>383</ele>
        <time>2012-03-25T14:04:41Z</time>
      </trkpt>
      <trkpt lat="48.68049" lon="6.12825">
        <ele>380</ele>
        <time>2012-03-25T14:04:43Z</time>
      </trkpt>
      <trkpt lat="48.68041" lon="6.12822">
        <ele>384</ele>
        <time>2012-03-25T14:04:45Z</time>
      </trkpt>
      <trkpt lat="48.68033" lon="6.12819">
        <ele>387</ele>
        <time>2012-03-25T14:04:47Z</time>
      </trkpt>
      <trkpt lat="48.68025" lon="6.12818">
        <ele>389</ele>
        <time>2012-03-25T14:04:49Z</time>
      </trkpt>
      <trkpt lat="48.68016" lon="6.12818">
        <ele>391</ele>
        <time>2012-03-25T14:04:51Z</time>
      </trkpt>
      <trkpt lat="48.68009" lon="6.1282">
        <ele>385</ele>
        <time>2012-03-25T14:04:53Z</time>
      </trkpt>
      <trkpt lat="48.68005" lon="6.12823">
        <ele>381</ele>
        <time>2012-03-25T14:04:55Z</time>
      </trkpt>
      <trkpt lat="48.68" lon="6.12825">
        <ele>379</ele>
        <time>2012-03-25T14:04:57Z</time>
      </trkpt>
      <trkpt lat="48.67996" lon="6.12827">
        <ele>375</ele>
        <time>2012-03-25T14:04:59Z</time>
      </trkpt>
      <trkpt lat="48.67991" lon="6.12831">
        <ele>379</ele>
        <time>2012-03-25T14:05:01Z</time>
      </trkpt>
      <trkpt lat="48.67986" lon="6.12829">
        <ele>378</ele>
        <time>2012-03-25T14:05:03Z</time>
      </trkpt>
      <trkpt lat="48.67982" lon="6.12829">
        <ele>379</ele>
        <time>2012-03-25T14:05:05Z</time>
      </trkpt>
      <trkpt lat="48.67979" lon="6.12829">
        <ele>383</ele>
        <time>2012-03-25T14:05:07Z</time>
      </trkpt>
      <trkpt lat="48.67975" lon="6.12828">
        <ele>383</ele>
        <time>2012-03-25T14:05:09Z</time>
      </trkpt>
      <trkpt lat="48.67971" lon="6.12826">
        <ele>383</ele>
        <time>2012-03-25T14:05:11Z</time>
      </trkpt>
      <trkpt lat="48.67964" lon="6.12827">
        <ele>383</ele>
        <time>2012-03-25T14:05:15Z</time>
      </trkpt>
      <trkpt lat="48.67959" lon="6.12828">
        <ele>376</ele>
        <time>2012-03-25T14:05:17Z</time>
      </trkpt>
      <trkpt lat="48.67955" lon="6.12827">
        <ele>381</ele>
        <time>2012-03-25T14:05:19Z</time>
      </trkpt>
      <trkpt lat="48.6795" lon="6.12827">
        <ele>382</ele>
        <time>2012-03-25T14:05:21Z</time>
      </trkpt>
      <trkpt lat="48.67946" lon="6.12826">
        <ele>384</ele>
        <time>2012-03-25T14:05:23Z</time>
      </trkpt>
      <trkpt lat="48.6794" lon="6.12826">
        <ele>383</ele>
        <time>2012-03-25T14:05:25Z</time>
      </trkpt>
      <trkpt lat="48.67934" lon="6.12827">
        <ele>383</ele>
        <time>2012-03-25T14:05:27Z</time>
      </trkpt>
      <trkpt lat="48.67926" lon="6.12828">
        <ele>377</ele>
        <time>2012-03-25T14:05:29Z</time>
      </trkpt>
      <trkpt lat="48.67921" lon="6.12828">
        <ele>380</ele>
        <time>2012-03-25T14:05:31Z</time>
      </trkpt>
      <trkpt lat="48.67916" lon="6.12829">
        <ele>380</ele>
        <time>2012-03-25T14:05:33Z</time>
      </trkpt>
      <trkpt lat="48.67912" lon="6.12831">
        <ele>369</ele>
        <time>2012-03-25T14:05:35Z</time>
      </trkpt>
      <trkpt lat="48.67906" lon="6.12832">
        <ele>365</ele>
        <time>2012-03-25T14:05:37Z</time>
      </trkpt>
      <trkpt lat="48.67901" lon="6.12832">
        <ele>364</ele>
        <time>2012-03-25T14:05:39Z</time>
      </trkpt>
      <trkpt lat="48.67895" lon="6.12832">
        <ele>358</ele>
        <time>2012-03-25T14:05:41Z</time>
      </trkpt>
      <trkpt lat="48.67889" lon="6.12833">
        <ele>361</ele>
        <time>2012-03-25T14:05:43Z</time>
      </trkpt>
      <trkpt lat="48.67883" lon="6.12834">
        <ele>359</ele>
        <time>2012-03-25T14:05:45Z</time>
      </trkpt>
      <trkpt lat="48.67877" lon="6.12837">
        <ele>361</ele>
        <time>2012-03-25T14:05:47Z</time>
      </trkpt>
      <trkpt lat="48.67871" lon="6.12839">
        <ele>360</ele>
        <time>2012-03-25T14:05:49Z</time>
      </trkpt>
      <trkpt lat="48.67863" lon="6.1284">
        <ele>362</ele>
        <time>2012-03-25T14:05:51Z</time>
      </trkpt>
      <trkpt lat="48.67854" lon="6.12844">
        <ele>364</ele>
        <time>2012-03-25T14:05:53Z</time>
      </trkpt>
      <trkpt lat="48.67845" lon="6.12846">
        <ele>369</ele>
        <time>2012-03-25T14:05:55Z</time>
      </trkpt>
      <trkpt lat="48.67837" lon="6.12845">
        <ele>363</ele>
        <time>2012-03-25T14:05:57Z</time>
      </trkpt>
      <trkpt lat="48.67828" lon="6.12845">
        <ele>365</ele>
        <time>2012-03-25T14:05:59Z</time>
      </trkpt>
      <trkpt lat="48.67822" lon="6.12844">
        <ele>371</ele>
        <time>2012-03-25T14:06:01Z</time>
      </trkpt>
      <trkpt lat="48.67816" lon="6.12852">
        <ele>366</ele>
        <time>2012-03-25T14:06:03Z</time>
      </trkpt>
      <trkpt lat="48.67813" lon="6.12862">
        <ele>369</ele>
        <time>2012-03-25T14:06:05Z</time>
      </trkpt>
      <trkpt lat="48.67809" lon="6.12871">
        <ele>363</ele>
        <time>2012-03-25T14:06:07Z</time>
      </trkpt>
      <trkpt lat="48.67809" lon="6.12883">
        <ele>364</ele>
        <time>2012-03-25T14:06:09Z</time>
      </trkpt>
      <trkpt lat="48.67807" lon="6.129">
        <ele>367</ele>
        <time>2012-03-25T14:06:11Z</time>
      </trkpt>
      <trkpt lat="48.67806" lon="6.12917">
        <ele>371</ele>
        <time>2012-03-25T14:06:13Z</time>
      </trkpt>
      <trkpt lat="48.67806" lon="6.12932">
        <ele>366</ele>
        <time>2012-03-25T14:06:15Z</time>
      </trkpt>
      <trkpt lat="48.67803" lon="6.12946">
        <ele>373</ele>
        <time>2012-03-25T14:06:17Z</time>
      </trkpt>
      <trkpt lat="48.67801" lon="6.12959">
        <ele>369</ele>
        <time>2012-03-25T14:06:19Z</time>
      </trkpt>
      <trkpt lat="48.67799" lon="6.12972">
        <ele>366</ele>
        <time>2012-03-25T14:06:21Z</time>
      </trkpt>
      <trkpt lat="48.67796" lon="6.12986">
        <ele>368</ele>
        <time>2012-03-25T14:06:23Z</time>
      </trkpt>
      <trkpt lat="48.67795" lon="6.12991">
        <ele>364</ele>
        <time>2012-03-25T14:06:25Z</time>
      </trkpt>
      <trkpt lat="48.67794" lon="6.12996">
        <ele>367</ele>
        <time>2012-03-25T14:06:27Z</time>
      </trkpt>
      <trkpt lat="48.67793" lon="6.13004">
        <ele>365</ele>
        <time>2012-03-25T14:06:29Z</time>
      </trkpt>
      <trkpt lat="48.67794" lon="6.13012">
        <ele>360</ele>
        <time>2012-03-25T14:06:31Z</time>
      </trkpt>
      <trkpt lat="48.67796" lon="6.1302">
        <ele>360</ele>
        <time>2012-03-25T14:06:35Z</time>
      </trkpt>
      <trkpt lat="48.67795" lon="6.13013">
        <ele>359</ele>
        <time>2012-03-25T14:06:43Z</time>
      </trkpt>
      <trkpt lat="48.67794" lon="6.13007">
        <ele>360</ele>
        <time>2012-03-25T14:06:45Z</time>
      </trkpt>
      <trkpt lat="48.67792" lon="6.13001">
        <ele>362</ele>
        <time>2012-03-25T14:06:47Z</time>
      </trkpt>
      <trkpt lat="48.6779" lon="6.12995">
        <ele>358</ele>
        <time>2012-03-25T14:06:49Z</time>
      </trkpt>
      <trkpt lat="48.67785" lon="6.12988">
        <ele>363</ele>
        <time>2012-03-25T14:06:51Z</time>
      </trkpt>
      <trkpt lat="48.67779" lon="6.12983">
        <ele>354</ele>
        <time>2012-03-25T14:06:53Z</time>
      </trkpt>
      <trkpt lat="48.67772" lon="6.12979">
        <ele>355</ele>
        <time>2012-03-25T14:06:55Z</time>
      </trkpt>
      <trkpt lat="48.67767" lon="6.12973">
        <ele>358</ele>
        <time>2012-03-25T14:06:57Z</time>
      </trkpt>
      <trkpt lat="48.67761" lon="6.12966">
        <ele>360</ele>
        <time>2012-03-25T14:06:59Z</time>
      </trkpt>
      <trkpt lat="48.67755" lon="6.12959">
        <ele>361</ele>
        <time>2012-03-25T14:07:01Z</time>
      </trkpt>
      <trkpt lat="48.67751" lon="6.12952">
        <ele>360</ele>
        <time>2012-03-25T14:07:03Z</time>
      </trkpt>
      <trkpt lat="48.67745" lon="6.12947">
        <ele>361</ele>
        <time>2012-03-25T14:07:05Z</time>
      </trkpt>
      <trkpt lat="48.6774" lon="6.12944">
        <ele>361</ele>
        <time>2012-03-25T14:07:07Z</time>
      </trkpt>
      <trkpt lat="48.67734" lon="6.1294">
        <ele>362</ele>
        <time>2012-03-25T14:07:09Z</time>
      </trkpt>
      <trkpt lat="48.6773" lon="6.12936">
        <ele>362</ele>
        <time>2012-03-25T14:07:11Z</time>
      </trkpt>
      <trkpt lat="48.67725" lon="6.12932">
        <ele>363</ele>
        <time>2012-03-25T14:07:13Z</time>
      </trkpt>
      <trkpt lat="48.6772" lon="6.12928">
        <ele>367</ele>
        <time>2012-03-25T14:07:15Z</time>
      </trkpt>
      <trkpt lat="48.67714" lon="6.12923">
        <ele>367</ele>
        <time>2012-03-25T14:07:17Z</time>
      </trkpt>
      <trkpt lat="48.67708" lon="6.12917">
        <ele>365</ele>
        <time>2012-03-25T14:07:19Z</time>
      </trkpt>
      <trkpt lat="48.67702" lon="6.12911">
        <ele>365</ele>
        <time>2012-03-25T14:07:21Z</time>
      </trkpt>
      <trkpt lat="48.67696" lon="6.12906">
        <ele>369</ele>
        <time>2012-03-25T14:07:23Z</time>
      </trkpt>
      <trkpt lat="48.67687" lon="6.12901">
        <ele>371</ele>
        <time>2012-03-25T14:07:25Z</time>
      </trkpt>
      <trkpt lat="48.67681" lon="6.12893">
        <ele>376</ele>
        <time>2012-03-25T14:07:27Z</time>
      </trkpt>
      <trkpt lat="48.67676" lon="6.12886">
        <ele>385</ele>
        <time>2012-03-25T14:07:29Z</time>
      </trkpt>
      <trkpt lat="48.67671" lon="6.1288">
        <ele>390</ele>
        <time>2012-03-25T14:07:31Z</time>
      </trkpt>
      <trkpt lat="48.67665" lon="6.12875">
        <ele>390</ele>
        <time>2012-03-25T14:07:33Z</time>
      </trkpt>
      <trkpt lat="48.67661" lon="6.1287">
        <ele>391</ele>
        <time>2012-03-25T14:07:35Z</time>
      </trkpt>
      <trkpt lat="48.67656" lon="6.12866">
        <ele>399</ele>
        <time>2012-03-25T14:07:37Z</time>
      </trkpt>
      <trkpt lat="48.67653" lon="6.12862">
        <ele>397</ele>
        <time>2012-03-25T14:07:39Z</time>
      </trkpt>
      <trkpt lat="48.67648" lon="6.12859">
        <ele>403</ele>
        <time>2012-03-25T14:07:41Z</time>
      </trkpt>
      <trkpt lat="48.67643" lon="6.12855">
        <ele>402</ele>
        <time>2012-03-25T14:07:43Z</time>
      </trkpt>
      <trkpt lat="48.67638" lon="6.1285">
        <ele>401</ele>
        <time>2012-03-25T14:07:45Z</time>
      </trkpt>
      <trkpt lat="48.67633" lon="6.12844">
        <ele>393</ele>
        <time>2012-03-25T14:07:47Z</time>
      </trkpt>
      <trkpt lat="48.67627" lon="6.12839">
        <ele>392</ele>
        <time>2012-03-25T14:07:49Z</time>
      </trkpt>
      <trkpt lat="48.6762" lon="6.12832">
        <ele>389</ele>
        <time>2012-03-25T14:07:51Z</time>
      </trkpt>
      <trkpt lat="48.67613" lon="6.12827">
        <ele>388</ele>
        <time>2012-03-25T14:07:53Z</time>
      </trkpt>
      <trkpt lat="48.67604" lon="6.12823">
        <ele>384</ele>
        <time>2012-03-25T14:07:55Z</time>
      </trkpt>
      <trkpt lat="48.67595" lon="6.12818">
        <ele>381</ele>
        <time>2012-03-25T14:07:57Z</time>
      </trkpt>
      <trkpt lat="48.67589" lon="6.12817">
        <ele>390</ele>
        <time>2012-03-25T14:07:59Z</time>
      </trkpt>
      <trkpt lat="48.67581" lon="6.12814">
        <ele>383</ele>
        <time>2012-03-25T14:08:01Z</time>
      </trkpt>
      <trkpt lat="48.67575" lon="6.12813">
        <ele>381</ele>
        <time>2012-03-25T14:08:03Z</time>
      </trkpt>
      <trkpt lat="48.67569" lon="6.12811">
        <ele>379</ele>
        <time>2012-03-25T14:08:05Z</time>
      </trkpt>
      <trkpt lat="48.67561" lon="6.12809">
        <ele>382</ele>
        <time>2012-03-25T14:08:07Z</time>
      </trkpt>
      <trkpt lat="48.67556" lon="6.12807">
        <ele>384</ele>
        <time>2012-03-25T14:08:09Z</time>
      </trkpt>
      <trkpt lat="48.6755" lon="6.12803">
        <ele>384</ele>
        <time>2012-03-25T14:08:11Z</time>
      </trkpt>
      <trkpt lat="48.67543" lon="6.12801">
        <ele>385</ele>
        <time>2012-03-25T14:08:13Z</time>
      </trkpt>
      <trkpt lat="48.67537" lon="6.12801">
        <ele>386</ele>
        <time>2012-03-25T14:08:15Z</time>
      </trkpt>
      <trkpt lat="48.6753" lon="6.12802">
        <ele>387</ele>
        <time>2012-03-25T14:08:17Z</time>
      </trkpt>
      <trkpt lat="48.6752" lon="6.12803">
        <ele>386</ele>
        <time>2012-03-25T14:08:19Z</time>
      </trkpt>
      <trkpt lat="48.67509" lon="6.12804">
        <ele>384</ele>
        <time>2012-03-25T14:08:21Z</time>
      </trkpt>
      <trkpt lat="48.67498" lon="6.12805">
        <ele>376</ele>
        <time>2012-03-25T14:08:23Z</time>
      </trkpt>
      <trkpt lat="48.67488" lon="6.12806">
        <ele>374</ele>
        <time>2012-03-25T14:08:25Z</time>
      </trkpt>
      <trkpt lat="48.67478" lon="6.12806">
        <ele>375</ele>
        <time>2012-03-25T14:08:27Z</time>
      </trkpt>
      <trkpt lat="48.67471" lon="6.12808">
        <ele>379</ele>
        <time>2012-03-25T14:08:29Z</time>
      </trkpt>
      <trkpt lat="48.67463" lon="6.12808">
        <ele>377</ele>
        <time>2012-03-25T14:08:31Z</time>
      </trkpt>
      <trkpt lat="48.67453" lon="6.12809">
        <ele>379</ele>
        <time>2012-03-25T14:08:33Z</time>
      </trkpt>
      <trkpt lat="48.67445" lon="6.1281">
        <ele>381</ele>
        <time>2012-03-25T14:08:35Z</time>
      </trkpt>
      <trkpt lat="48.67438" lon="6.12814">
        <ele>380</ele>
        <time>2012-03-25T14:08:37Z</time>
      </trkpt>
      <trkpt lat="48.6743" lon="6.12818">
        <ele>381</ele>
        <time>2012-03-25T14:08:39Z</time>
      </trkpt>
      <trkpt lat="48.67421" lon="6.1282">
        <ele>382</ele>
        <time>2012-03-25T14:08:41Z</time>
      </trkpt>
      <trkpt lat="48.67411" lon="6.12823">
        <ele>382</ele>
        <time>2012-03-25T14:08:43Z</time>
      </trkpt>
      <trkpt lat="48.674" lon="6.12823">
        <ele>377</ele>
        <time>2012-03-25T14:08:45Z</time>
      </trkpt>
      <trkpt lat="48.67388" lon="6.12826">
        <ele>381</ele>
        <time>2012-03-25T14:08:47Z</time>
      </trkpt>
      <trkpt lat="48.67379" lon="6.12829">
        <ele>381</ele>
        <time>2012-03-25T14:08:49Z</time>
      </trkpt>
      <trkpt lat="48.6737" lon="6.12833">
        <ele>381</ele>
        <time>2012-03-25T14:08:51Z</time>
      </trkpt>
      <trkpt lat="48.67361" lon="6.12835">
        <ele>387</ele>
        <time>2012-03-25T14:08:53Z</time>
      </trkpt>
      <trkpt lat="48.67352" lon="6.12836">
        <ele>392</ele>
        <time>2012-03-25T14:08:55Z</time>
      </trkpt>
      <trkpt lat="48.67343" lon="6.12838">
        <ele>391</ele>
        <time>2012-03-25T14:08:57Z</time>
      </trkpt>
      <trkpt lat="48.67335" lon="6.1284">
        <ele>391</ele>
        <time>2012-03-25T14:08:59Z</time>
      </trkpt>
      <trkpt lat="48.67326" lon="6.12841">
        <ele>387</ele>
        <time>2012-03-25T14:09:01Z</time>
      </trkpt>
      <trkpt lat="48.67316" lon="6.12842">
        <ele>397</ele>
        <time>2012-03-25T14:09:03Z</time>
      </trkpt>
      <trkpt lat="48.67306" lon="6.12843">
        <ele>394</ele>
        <time>2012-03-25T14:09:05Z</time>
      </trkpt>
      <trkpt lat="48.67295" lon="6.12845">
        <ele>393</ele>
        <time>2012-03-25T14:09:07Z</time>
      </trkpt>
      <trkpt lat="48.67286" lon="6.12848">
        <ele>397</ele>
        <time>2012-03-25T14:09:09Z</time>
      </trkpt>
      <trkpt lat="48.67278" lon="6.12851">
        <ele>390</ele>
        <time>2012-03-25T14:09:11Z</time>
      </trkpt>
      <trkpt lat="48.67269" lon="6.12854">
        <ele>392</ele>
        <time>2012-03-25T14:09:13Z</time>
      </trkpt>
      <trkpt lat="48.67262" lon="6.12857">
        <ele>390</ele>
        <time>2012-03-25T14:09:15Z</time>
      </trkpt>
      <trkpt lat="48.67252" lon="6.12861">
        <ele>392</ele>
        <time>2012-03-25T14:09:17Z</time>
      </trkpt>
      <trkpt lat="48.67242" lon="6.12867">
        <ele>393</ele>
        <time>2012-03-25T14:09:19Z</time>
      </trkpt>
      <trkpt lat="48.67234" lon="6.12871">
        <ele>395</ele>
        <time>2012-03-25T14:09:21Z</time>
      </trkpt>
      <trkpt lat="48.67225" lon="6.12873">
        <ele>392</ele>
        <time>2012-03-25T14:09:23Z</time>
      </trkpt>
      <trkpt lat="48.67216" lon="6.12874">
        <ele>387</ele>
        <time>2012-03-25T14:09:25Z</time>
      </trkpt>
      <trkpt lat="48.67209" lon="6.12877">
        <ele>388</ele>
        <time>2012-03-25T14:09:27Z</time>
      </trkpt>
      <trkpt lat="48.672" lon="6.12881">
        <ele>389</ele>
        <time>2012-03-25T14:09:29Z</time>
      </trkpt>
      <trkpt lat="48.67191" lon="6.12884">
        <ele>389</ele>
        <time>2012-03-25T14:09:31Z</time>
      </trkpt>
      <trkpt lat="48.6718" lon="6.12886">
        <ele>387</ele>
        <time>2012-03-25T14:09:33Z</time>
      </trkpt>
      <trkpt lat="48.67172" lon="6.12889">
        <ele>386</ele>
        <time>2012-03-25T14:09:35Z</time>
      </trkpt>
      <trkpt lat="48.67166" lon="6.12891">
        <ele>388</ele>
        <time>2012-03-25T14:09:37Z</time>
      </trkpt>
      <trkpt lat="48.67159" lon="6.12893">
        <ele>387</ele>
        <time>2012-03-25T14:09:39Z</time>
      </trkpt>
      <trkpt lat="48.67149" lon="6.12896">
        <ele>383</ele>
        <time>2012-03-25T14:09:41Z</time>
      </trkpt>
      <trkpt lat="48.67142" lon="6.12898">
        <ele>383</ele>
        <time>2012-03-25T14:09:43Z</time>
      </trkpt>
      <trkpt lat="48.67135" lon="6.12898">
        <ele>386</ele>
        <time>2012-03-25T14:09:45Z</time>
      </trkpt>
      <trkpt lat="48.6713" lon="6.12899">
        <ele>382</ele>
        <time>2012-03-25T14:09:47Z</time>
      </trkpt>
      <trkpt lat="48.67122" lon="6.129">
        <ele>383</ele>
        <time>2012-03-25T14:09:49Z</time>
      </trkpt>
      <trkpt lat="48.67115" lon="6.12902">
        <ele>388</ele>
        <time>2012-03-25T14:09:51Z</time>
      </trkpt>
      <trkpt lat="48.67107" lon="6.12905">
        <ele>385</ele>
        <time>2012-03-25T14:09:53Z</time>
      </trkpt>
      <trkpt lat="48.67099" lon="6.12908">
        <ele>387</ele>
        <time>2012-03-25T14:09:55Z</time>
      </trkpt>
      <trkpt lat="48.67093" lon="6.12912">
        <ele>390</ele>
        <time>2012-03-25T14:09:57Z</time>
      </trkpt>
      <trkpt lat="48.67087" lon="6.12915">
        <ele>392</ele>
        <time>2012-03-25T14:09:59Z</time>
      </trkpt>
      <trkpt lat="48.67081" lon="6.12918">
        <ele>391</ele>
        <time>2012-03-25T14:10:01Z</time>
      </trkpt>
      <trkpt lat="48.67073" lon="6.1292">
        <ele>391</ele>
        <time>2012-03-25T14:10:03Z</time>
      </trkpt>
      <trkpt lat="48.67064" lon="6.12922">
        <ele>393</ele>
        <time>2012-03-25T14:10:05Z</time>
      </trkpt>
      <trkpt lat="48.67054" lon="6.12925">
        <ele>390</ele>
        <time>2012-03-25T14:10:07Z</time>
      </trkpt>
      <trkpt lat="48.67043" lon="6.12929">
        <ele>389</ele>
        <time>2012-03-25T14:10:09Z</time>
      </trkpt>
      <trkpt lat="48.67035" lon="6.12932">
        <ele>389</ele>
        <time>2012-03-25T14:10:11Z</time>
      </trkpt>
      <trkpt lat="48.67028" lon="6.12935">
        <ele>389</ele>
        <time>2012-03-25T14:10:13Z</time>
      </trkpt>
      <trkpt lat="48.6702" lon="6.12937">
        <ele>392</ele>
        <time>2012-03-25T14:10:15Z</time>
      </trkpt>
      <trkpt lat="48.67011" lon="6.12938">
        <ele>391</ele>
        <time>2012-03-25T14:10:17Z</time>
      </trkpt>
      <trkpt lat="48.67002" lon="6.12943">
        <ele>389</ele>
        <time>2012-03-25T14:10:19Z</time>
      </trkpt>
      <trkpt lat="48.66991" lon="6.12947">
        <ele>391</ele>
        <time>2012-03-25T14:10:21Z</time>
      </trkpt>
      <trkpt lat="48.66982" lon="6.12949">
        <ele>392</ele>
        <time>2012-03-25T14:10:23Z</time>
      </trkpt>
      <trkpt lat="48.66973" lon="6.12952">
        <ele>397</ele>
        <time>2012-03-25T14:10:25Z</time>
      </trkpt>
      <trkpt lat="48.66965" lon="6.12955">
        <ele>392</ele>
        <time>2012-03-25T14:10:27Z</time>
      </trkpt>
      <trkpt lat="48.66956" lon="6.12956">
        <ele>396</ele>
        <time>2012-03-25T14:10:29Z</time>
      </trkpt>
      <trkpt lat="48.66947" lon="6.12959">
        <ele>397</ele>
        <time>2012-03-25T14:10:31Z</time>
      </trkpt>
      <trkpt lat="48.66939" lon="6.12962">
        <ele>392</ele>
        <time>2012-03-25T14:10:33Z</time>
      </trkpt>
      <trkpt lat="48.66931" lon="6.12964">
        <ele>395</ele>
        <time>2012-03-25T14:10:35Z</time>
      </trkpt>
      <trkpt lat="48.66923" lon="6.12967">
        <ele>396</ele>
        <time>2012-03-25T14:10:37Z</time>
      </trkpt>
      <trkpt lat="48.66916" lon="6.12967">
        <ele>396</ele>
        <time>2012-03-25T14:10:39Z</time>
      </trkpt>
      <trkpt lat="48.66908" lon="6.1297">
        <ele>399</ele>
        <time>2012-03-25T14:10:41Z</time>
      </trkpt>
      <trkpt lat="48.669" lon="6.12974">
        <ele>396</ele>
        <time>2012-03-25T14:10:43Z</time>
      </trkpt>
      <trkpt lat="48.6689" lon="6.12974">
        <ele>397</ele>
        <time>2012-03-25T14:10:45Z</time>
      </trkpt>
      <trkpt lat="48.66882" lon="6.12975">
        <ele>400</ele>
        <time>2012-03-25T14:10:47Z</time>
      </trkpt>
      <trkpt lat="48.66874" lon="6.12977">
        <ele>396</ele>
        <time>2012-03-25T14:10:49Z</time>
      </trkpt>
      <trkpt lat="48.66866" lon="6.12981">
        <ele>395</ele>
        <time>2012-03-25T14:10:51Z</time>
      </trkpt>
      <trkpt lat="48.66855" lon="6.12984">
        <ele>397</ele>
        <time>2012-03-25T14:10:53Z</time>
      </trkpt>
      <trkpt lat="48.66846" lon="6.12987">
        <ele>394</ele>
        <time>2012-03-25T14:10:55Z</time>
      </trkpt>
      <trkpt lat="48.66835" lon="6.12989">
        <ele>392</ele>
        <time>2012-03-25T14:10:57Z</time>
      </trkpt>
      <trkpt lat="48.66822" lon="6.12991">
        <ele>388</ele>
        <time>2012-03-25T14:10:59Z</time>
      </trkpt>
      <trkpt lat="48.66812" lon="6.12994">
        <ele>392</ele>
        <time>2012-03-25T14:11:01Z</time>
      </trkpt>
      <trkpt lat="48.668" lon="6.12998">
        <ele>390</ele>
        <time>2012-03-25T14:11:03Z</time>
      </trkpt>
      <trkpt lat="48.6679" lon="6.13002">
        <ele>391</ele>
        <time>2012-03-25T14:11:05Z</time>
      </trkpt>
      <trkpt lat="48.6678" lon="6.13006">
        <ele>392</ele>
        <time>2012-03-25T14:11:07Z</time>
      </trkpt>
      <trkpt lat="48.66771" lon="6.13007">
        <ele>397</ele>
        <time>2012-03-25T14:11:09Z</time>
      </trkpt>
      <trkpt lat="48.66765" lon="6.13004">
        <ele>394</ele>
        <time>2012-03-25T14:11:11Z</time>
      </trkpt>
      <trkpt lat="48.66761" lon="6.13002">
        <ele>384</ele>
        <time>2012-03-25T14:11:13Z</time>
      </trkpt>
      <trkpt lat="48.66759" lon="6.12997">
        <ele>382</ele>
        <time>2012-03-25T14:11:15Z</time>
      </trkpt>
      <trkpt lat="48.66759" lon="6.12991">
        <ele>378</ele>
        <time>2012-03-25T14:11:17Z</time>
      </trkpt>
      <trkpt lat="48.66758" lon="6.12984">
        <ele>381</ele>
        <time>2012-03-25T14:11:19Z</time>
      </trkpt>
      <trkpt lat="48.66756" lon="6.12978">
        <ele>384</ele>
        <time>2012-03-25T14:11:21Z</time>
      </trkpt>
      <trkpt lat="48.66756" lon="6.12969">
        <ele>381</ele>
        <time>2012-03-25T14:11:23Z</time>
      </trkpt>
      <trkpt lat="48.66756" lon="6.1296">
        <ele>380</ele>
        <time>2012-03-25T14:11:25Z</time>
      </trkpt>
      <trkpt lat="48.66757" lon="6.12949">
        <ele>382</ele>
        <time>2012-03-25T14:11:27Z</time>
      </trkpt>
      <trkpt lat="48.66756" lon="6.12938">
        <ele>381</ele>
        <time>2012-03-25T14:11:29Z</time>
      </trkpt>
      <trkpt lat="48.66754" lon="6.12929">
        <ele>381</ele>
        <time>2012-03-25T14:11:31Z</time>
      </trkpt>
      <trkpt lat="48.66752" lon="6.1292">
        <ele>381</ele>
        <time>2012-03-25T14:11:33Z</time>
      </trkpt>
      <trkpt lat="48.6675" lon="6.12908">
        <ele>381</ele>
        <time>2012-03-25T14:11:35Z</time>
      </trkpt>
      <trkpt lat="48.66748" lon="6.12897">
        <ele>381</ele>
        <time>2012-03-25T14:11:37Z</time>
      </trkpt>
      <trkpt lat="48.66748" lon="6.12887">
        <ele>383</ele>
        <time>2012-03-25T14:11:39Z</time>
      </trkpt>
      <trkpt lat="48.66748" lon="6.12876">
        <ele>384</ele>
        <time>2012-03-25T14:11:41Z</time>
      </trkpt>
      <trkpt lat="48.66746" lon="6.12865">
        <ele>383</ele>
        <time>2012-03-25T14:11:43Z</time>
      </trkpt>
      <trkpt lat="48.66746" lon="6.12854">
        <ele>384</ele>
        <time>2012-03-25T14:11:45Z</time>
      </trkpt>
      <trkpt lat="48.66746" lon="6.12843">
        <ele>378</ele>
        <time>2012-03-25T14:11:47Z</time>
      </trkpt>
      <trkpt lat="48.66748" lon="6.12835">
        <ele>382</ele>
        <time>2012-03-25T14:11:49Z</time>
      </trkpt>
      <trkpt lat="48.66753" lon="6.12829">
        <ele>381</ele>
        <time>2012-03-25T14:11:51Z</time>
      </trkpt>
      <trkpt lat="48.66757" lon="6.12824">
        <ele>378</ele>
        <time>2012-03-25T14:11:53Z</time>
      </trkpt>
      <trkpt lat="48.66764" lon="6.12821">
        <ele>384</ele>
        <time>2012-03-25T14:11:55Z</time>
      </trkpt>
      <trkpt lat="48.66771" lon="6.12821">
        <ele>384</ele>
        <time>2012-03-25T14:11:57Z</time>
      </trkpt>
      <trkpt lat="48.6678" lon="6.12818">
        <ele>382</ele>
        <time>2012-03-25T14:11:59Z</time>
      </trkpt>
      <trkpt lat="48.66791" lon="6.12816">
        <ele>381</ele>
        <time>2012-03-25T14:12:01Z</time>
      </trkpt>
      <trkpt lat="48.66801" lon="6.12814">
        <ele>385</ele>
        <time>2012-03-25T14:12:03Z</time>
      </trkpt>
      <trkpt lat="48.66811" lon="6.12813">
        <ele>388</ele>
        <time>2012-03-25T14:12:05Z</time>
      </trkpt>
      <trkpt lat="48.66821" lon="6.12813">
        <ele>392</ele>
        <time>2012-03-25T14:12:07Z</time>
      </trkpt>
      <trkpt lat="48.66831" lon="6.12813">
        <ele>392</ele>
        <time>2012-03-25T14:12:09Z</time>
      </trkpt>
      <trkpt lat="48.6684" lon="6.12811">
        <ele>390</ele>
        <time>2012-03-25T14:12:11Z</time>
      </trkpt>
      <trkpt lat="48.66852" lon="6.1281">
        <ele>389</ele>
        <time>2012-03-25T14:12:13Z</time>
      </trkpt>
      <trkpt lat="48.66864" lon="6.12811">
        <ele>390</ele>
        <time>2012-03-25T14:12:15Z</time>
      </trkpt>
      <trkpt lat="48.66877" lon="6.12812">
        <ele>390</ele>
        <time>2012-03-25T14:12:17Z</time>
      </trkpt>
      <trkpt lat="48.6689" lon="6.1281">
        <ele>386</ele>
        <time>2012-03-25T14:12:19Z</time>
      </trkpt>
      <trkpt lat="48.669" lon="6.12809">
        <ele>382</ele>
        <time>2012-03-25T14:12:21Z</time>
      </trkpt>
      <trkpt lat="48.66909" lon="6.12805">
        <ele>378</ele>
        <time>2012-03-25T14:12:23Z</time>
      </trkpt>
      <trkpt lat="48.66918" lon="6.12798">
        <ele>372</ele>
        <time>2012-03-25T14:12:25Z</time>
      </trkpt>
      <trkpt lat="48.66928" lon="6.12792">
        <ele>374</ele>
        <time>2012-03-25T14:12:27Z</time>
      </trkpt>
      <trkpt lat="48.6694" lon="6.12787">
        <ele>379</ele>
        <time>2012-03-25T14:12:29Z</time>
      </trkpt>
      <trkpt lat="48.6695" lon="6.12783">
        <ele>382</ele>
        <time>2012-03-25T14:12:31Z</time>
      </trkpt>
      <trkpt lat="48.66962" lon="6.1278">
        <ele>384</ele>
        <time>2012-03-25T14:12:33Z</time>
      </trkpt>
      <trkpt lat="48.66974" lon="6.12772">
        <ele>383</ele>
        <time>2012-03-25T14:12:35Z</time>
      </trkpt>
      <trkpt lat="48.66984" lon="6.12763">
        <ele>385</ele>
        <time>2012-03-25T14:12:37Z</time>
      </trkpt>
      <trkpt lat="48.66989" lon="6.12758">
        <ele>382</ele>
        <time>2012-03-25T14:12:39Z</time>
      </trkpt>
      <trkpt lat="48.66998" lon="6.12748">
        <ele>385</ele>
        <time>2012-03-25T14:12:41Z</time>
      </trkpt>
      <trkpt lat="48.6701" lon="6.12736">
        <ele>392</ele>
        <time>2012-03-25T14:12:43Z</time>
      </trkpt>
      <trkpt lat="48.67017" lon="6.12731">
        <ele>392</ele>
        <time>2012-03-25T14:12:44Z</time>
      </trkpt>
      <trkpt lat="48.67024" lon="6.12723">
        <ele>391</ele>
        <time>2012-03-25T14:12:45Z</time>
      </trkpt>
      <trkpt lat="48.67038" lon="6.12714">
        <ele>387</ele>
        <time>2012-03-25T14:12:47Z</time>
      </trkpt>
      <trkpt lat="48.67053" lon="6.12701">
        <ele>390</ele>
        <time>2012-03-25T14:12:49Z</time>
      </trkpt>
      <trkpt lat="48.67066" lon="6.12691">
        <ele>394</ele>
        <time>2012-03-25T14:12:51Z</time>
      </trkpt>
      <trkpt lat="48.67078" lon="6.12679">
        <ele>395</ele>
        <time>2012-03-25T14:12:53Z</time>
      </trkpt>
      <trkpt lat="48.67092" lon="6.12667">
        <ele>400</ele>
        <time>2012-03-25T14:12:55Z</time>
      </trkpt>
      <trkpt lat="48.67105" lon="6.12658">
        <ele>397</ele>
        <time>2012-03-25T14:12:57Z</time>
      </trkpt>
      <trkpt lat="48.67117" lon="6.12651">
        <ele>392</ele>
        <time>2012-03-25T14:12:59Z</time>
      </trkpt>
      <trkpt lat="48.67127" lon="6.12646">
        <ele>388</ele>
        <time>2012-03-25T14:13:01Z</time>
      </trkpt>
      <trkpt lat="48.67135" lon="6.12643">
        <ele>386</ele>
        <time>2012-03-25T14:13:03Z</time>
      </trkpt>
      <trkpt lat="48.67147" lon="6.12638">
        <ele>383</ele>
        <time>2012-03-25T14:13:05Z</time>
      </trkpt>
      <trkpt lat="48.6716" lon="6.12634">
        <ele>385</ele>
        <time>2012-03-25T14:13:07Z</time>
      </trkpt>
      <trkpt lat="48.67178" lon="6.12632">
        <ele>391</ele>
        <time>2012-03-25T14:13:09Z</time>
      </trkpt>
      <trkpt lat="48.67197" lon="6.12626">
        <ele>390</ele>
        <time>2012-03-25T14:13:11Z</time>
      </trkpt>
      <trkpt lat="48.67214" lon="6.1262">
        <ele>386</ele>
        <time>2012-03-25T14:13:13Z</time>
      </trkpt>
      <trkpt lat="48.6723" lon="6.12618">
        <ele>381</ele>
        <time>2012-03-25T14:13:15Z</time>
      </trkpt>
      <trkpt lat="48.67243" lon="6.12617">
        <ele>381</ele>
        <time>2012-03-25T14:13:17Z</time>
      </trkpt>
      <trkpt lat="48.67254" lon="6.12618">
        <ele>381</ele>
        <time>2012-03-25T14:13:19Z</time>
      </trkpt>
      <trkpt lat="48.67267" lon="6.12618">
        <ele>386</ele>
        <time>2012-03-25T14:13:21Z</time>
      </trkpt>
      <trkpt lat="48.67279" lon="6.1262">
        <ele>385</ele>
        <time>2012-03-25T14:13:23Z</time>
      </trkpt>
      <trkpt lat="48.67293" lon="6.12622">
        <ele>384</ele>
        <time>2012-03-25T14:13:25Z</time>
      </trkpt>
      <trkpt lat="48.67308" lon="6.12622">
        <ele>385</ele>
        <time>2012-03-25T14:13:27Z</time>
      </trkpt>
      <trkpt lat="48.67323" lon="6.12622">
        <ele>381</ele>
        <time>2012-03-25T14:13:29Z</time>
      </trkpt>
      <trkpt lat="48.67337" lon="6.12628">
        <ele>376</ele>
        <time>2012-03-25T14:13:31Z</time>
      </trkpt>
      <trkpt lat="48.67351" lon="6.12632">
        <ele>378</ele>
        <time>2012-03-25T14:13:33Z</time>
      </trkpt>
      <trkpt lat="48.67357" lon="6.12635">
        <ele>380</ele>
        <time>2012-03-25T14:13:34Z</time>
      </trkpt>
      <trkpt lat="48.67362" lon="6.12636">
        <ele>380</ele>
        <time>2012-03-25T14:13:35Z</time>
      </trkpt>
      <trkpt lat="48.67371" lon="6.12632">
        <ele>379</ele>
        <time>2012-03-25T14:13:37Z</time>
      </trkpt>
      <trkpt lat="48.67381" lon="6.12634">
        <ele>379</ele>
        <time>2012-03-25T14:13:39Z</time>
      </trkpt>
      <trkpt lat="48.67392" lon="6.12636">
        <ele>373</ele>
        <time>2012-03-25T14:13:41Z</time>
      </trkpt>
      <trkpt lat="48.67405" lon="6.12632">
        <ele>371</ele>
        <time>2012-03-25T14:13:43Z</time>
      </trkpt>
      <trkpt lat="48.67414" lon="6.12633">
        <ele>369</ele>
        <time>2012-03-25T14:13:45Z</time>
      </trkpt>
      <trkpt lat="48.67424" lon="6.12634">
        <ele>368</ele>
        <time>2012-03-25T14:13:47Z</time>
      </trkpt>
      <trkpt lat="48.67435" lon="6.12633">
        <ele>372</ele>
        <time>2012-03-25T14:13:49Z</time>
      </trkpt>
      <trkpt lat="48.67444" lon="6.12634">
        <ele>373</ele>
        <time>2012-03-25T14:13:51Z</time>
      </trkpt>
      <trkpt lat="48.67454" lon="6.12637">
        <ele>377</ele>
        <time>2012-03-25T14:13:53Z</time>
      </trkpt>
      <trkpt lat="48.67464" lon="6.12636">
        <ele>376</ele>
        <time>2012-03-25T14:13:55Z</time>
      </trkpt>
      <trkpt lat="48.67474" lon="6.12634">
        <ele>380</ele>
        <time>2012-03-25T14:13:57Z</time>
      </trkpt>
      <trkpt lat="48.67482" lon="6.12631">
        <ele>376</ele>
        <time>2012-03-25T14:13:59Z</time>
      </trkpt>
      <trkpt lat="48.67493" lon="6.12623">
        <ele>375</ele>
        <time>2012-03-25T14:14:01Z</time>
      </trkpt>
      <trkpt lat="48.67501" lon="6.12621">
        <ele>369</ele>
        <time>2012-03-25T14:14:03Z</time>
      </trkpt>
      <trkpt lat="48.6751" lon="6.12619">
        <ele>365</ele>
        <time>2012-03-25T14:14:05Z</time>
      </trkpt>
      <trkpt lat="48.67523" lon="6.12616">
        <ele>367</ele>
        <time>2012-03-25T14:14:07Z</time>
      </trkpt>
      <trkpt lat="48.67534" lon="6.12616">
        <ele>368</ele>
        <time>2012-03-25T14:14:09Z</time>
      </trkpt>
      <trkpt lat="48.67545" lon="6.12617">
        <ele>366</ele>
        <time>2012-03-25T14:14:11Z</time>
      </trkpt>
      <trkpt lat="48.67556" lon="6.12614">
        <ele>369</ele>
        <time>2012-03-25T14:14:13Z</time>
      </trkpt>
      <trkpt lat="48.67566" lon="6.12612">
        <ele>369</ele>
        <time>2012-03-25T14:14:15Z</time>
      </trkpt>
      <trkpt lat="48.67576" lon="6.12611">
        <ele>365</ele>
        <time>2012-03-25T14:14:17Z</time>
      </trkpt>
      <trkpt lat="48.67587" lon="6.12606">
        <ele>365</ele>
        <time>2012-03-25T14:14:19Z</time>
      </trkpt>
      <trkpt lat="48.676" lon="6.12599">
        <ele>364</ele>
        <time>2012-03-25T14:14:21Z</time>
      </trkpt>
      <trkpt lat="48.67614" lon="6.12592">
        <ele>365</ele>
        <time>2012-03-25T14:14:23Z</time>
      </trkpt>
      <trkpt lat="48.67627" lon="6.12592">
        <ele>362</ele>
        <time>2012-03-25T14:14:25Z</time>
      </trkpt>
      <trkpt lat="48.67637" lon="6.12595">
        <ele>364</ele>
        <time>2012-03-25T14:14:27Z</time>
      </trkpt>
      <trkpt lat="48.67648" lon="6.12599">
        <ele>366</ele>
        <time>2012-03-25T14:14:29Z</time>
      </trkpt>
      <trkpt lat="48.67661" lon="6.12599">
        <ele>372</ele>
        <time>2012-03-25T14:14:31Z</time>
      </trkpt>
      <trkpt lat="48.67675" lon="6.12596">
        <ele>374</ele>
        <time>2012-03-25T14:14:33Z</time>
      </trkpt>
      <trkpt lat="48.67686" lon="6.12598">
        <ele>370</ele>
        <time>2012-03-25T14:14:35Z</time>
      </trkpt>
      <trkpt lat="48.67696" lon="6.12604">
        <ele>369</ele>
        <time>2012-03-25T14:14:37Z</time>
      </trkpt>
      <trkpt lat="48.67705" lon="6.12611">
        <ele>369</ele>
        <time>2012-03-25T14:14:39Z</time>
      </trkpt>
      <trkpt lat="48.67714" lon="6.12619">
        <ele>369</ele>
        <time>2012-03-25T14:14:41Z</time>
      </trkpt>
      <trkpt lat="48.67722" lon="6.12624">
        <ele>370</ele>
        <time>2012-03-25T14:14:43Z</time>
      </trkpt>
      <trkpt lat="48.67733" lon="6.12626">
        <ele>369</ele>
        <time>2012-03-25T14:14:45Z</time>
      </trkpt>
      <trkpt lat="48.67744" lon="6.12627">
        <ele>370</ele>
        <time>2012-03-25T14:14:47Z</time>
      </trkpt>
      <trkpt lat="48.67754" lon="6.12631">
        <ele>374</ele>
        <time>2012-03-25T14:14:49Z</time>
      </trkpt>
      <trkpt lat="48.67765" lon="6.12633">
        <ele>378</ele>
        <time>2012-03-25T14:14:51Z</time>
      </trkpt>
      <trkpt lat="48.67775" lon="6.12632">
        <ele>382</ele>
        <time>2012-03-25T14:14:53Z</time>
      </trkpt>
      <trkpt lat="48.67785" lon="6.12635">
        <ele>380</ele>
        <time>2012-03-25T14:14:55Z</time>
      </trkpt>
      <trkpt lat="48.67799" lon="6.12637">
        <ele>379</ele>
        <time>2012-03-25T14:14:57Z</time>
      </trkpt>
      <trkpt lat="48.67808" lon="6.12639">
        <ele>377</ele>
        <time>2012-03-25T14:14:59Z</time>
      </trkpt>
      <trkpt lat="48.67817" lon="6.12643">
        <ele>371</ele>
        <time>2012-03-25T14:15:01Z</time>
      </trkpt>
      <trkpt lat="48.67828" lon="6.12647">
        <ele>373</ele>
        <time>2012-03-25T14:15:03Z</time>
      </trkpt>
      <trkpt lat="48.67836" lon="6.12652">
        <ele>381</ele>
        <time>2012-03-25T14:15:05Z</time>
      </trkpt>
      <trkpt lat="48.67845" lon="6.12653">
        <ele>373</ele>
        <time>2012-03-25T14:15:07Z</time>
      </trkpt>
      <trkpt lat="48.67854" lon="6.12658">
        <ele>371</ele>
        <time>2012-03-25T14:15:09Z</time>
      </trkpt>
      <trkpt lat="48.67862" lon="6.12661">
        <ele>373</ele>
        <time>2012-03-25T14:15:11Z</time>
      </trkpt>
      <trkpt lat="48.67874" lon="6.12661">
        <ele>369</ele>
        <time>2012-03-25T14:15:13Z</time>
      </trkpt>
      <trkpt lat="48.67886" lon="6.12658">
        <ele>365</ele>
        <time>2012-03-25T14:15:15Z</time>
      </trkpt>
      <trkpt lat="48.67899" lon="6.12655">
        <ele>367</ele>
        <time>2012-03-25T14:15:17Z</time>
      </trkpt>
      <trkpt lat="48.67911" lon="6.12649">
        <ele>368</ele>
        <time>2012-03-25T14:15:19Z</time>
      </trkpt>
      <trkpt lat="48.67924" lon="6.12645">
        <ele>367</ele>
        <time>2012-03-25T14:15:21Z</time>
      </trkpt>
      <trkpt lat="48.67934" lon="6.12646">
        <ele>371</ele>
        <time>2012-03-25T14:15:23Z</time>
      </trkpt>
      <trkpt lat="48.67944" lon="6.12643">
        <ele>364</ele>
        <time>2012-03-25T14:15:25Z</time>
      </trkpt>
      <trkpt lat="48.67952" lon="6.12635">
        <ele>367</ele>
        <time>2012-03-25T14:15:27Z</time>
      </trkpt>
      <trkpt lat="48.67961" lon="6.12629">
        <ele>366</ele>
        <time>2012-03-25T14:15:29Z</time>
      </trkpt>
      <trkpt lat="48.6797" lon="6.12621">
        <ele>364</ele>
        <time>2012-03-25T14:15:31Z</time>
      </trkpt>
      <trkpt lat="48.67978" lon="6.12614">
        <ele>369</ele>
        <time>2012-03-25T14:15:33Z</time>
      </trkpt>
      <trkpt lat="48.67986" lon="6.12602">
        <ele>371</ele>
        <time>2012-03-25T14:15:35Z</time>
      </trkpt>
      <trkpt lat="48.67997" lon="6.12592">
        <ele>370</ele>
        <time>2012-03-25T14:15:37Z</time>
      </trkpt>
      <trkpt lat="48.68009" lon="6.12587">
        <ele>371</ele>
        <time>2012-03-25T14:15:39Z</time>
      </trkpt>
      <trkpt lat="48.68017" lon="6.12589">
        <ele>374</ele>
        <time>2012-03-25T14:15:41Z</time>
      </trkpt>
      <trkpt lat="48.68028" lon="6.12591">
        <ele>373</ele>
        <time>2012-03-25T14:15:43Z</time>
      </trkpt>
      <trkpt lat="48.68039" lon="6.12589">
        <ele>370</ele>
        <time>2012-03-25T14:15:45Z</time>
      </trkpt>
      <trkpt lat="48.68052" lon="6.12588">
        <ele>365</ele>
        <time>2012-03-25T14:15:47Z</time>
      </trkpt>
      <trkpt lat="48.68065" lon="6.12588">
        <ele>370</ele>
        <time>2012-03-25T14:15:49Z</time>
      </trkpt>
      <trkpt lat="48.68077" lon="6.12587">
        <ele>371</ele>
        <time>2012-03-25T14:15:51Z</time>
      </trkpt>
      <trkpt lat="48.68087" lon="6.12585">
        <ele>375</ele>
        <time>2012-03-25T14:15:53Z</time>
      </trkpt>
      <trkpt lat="48.68098" lon="6.12582">
        <ele>374</ele>
        <time>2012-03-25T14:15:55Z</time>
      </trkpt>
      <trkpt lat="48.68106" lon="6.12584">
        <ele>376</ele>
        <time>2012-03-25T14:15:57Z</time>
      </trkpt>
      <trkpt lat="48.68114" lon="6.12586">
        <ele>379</ele>
        <time>2012-03-25T14:15:59Z</time>
      </trkpt>
      <trkpt lat="48.68121" lon="6.12588">
        <ele>373</ele>
        <time>2012-03-25T14:16:01Z</time>
      </trkpt>
      <trkpt lat="48.68124" lon="6.12587">
        <ele>370</ele>
        <time>2012-03-25T14:16:03Z</time>
      </trkpt>
      <trkpt lat="48.68128" lon="6.12579">
        <ele>364</ele>
        <time>2012-03-25T14:16:05Z</time>
      </trkpt>
      <trkpt lat="48.68129" lon="6.12568">
        <ele>362</ele>
        <time>2012-03-25T14:16:07Z</time>
      </trkpt>
      <trkpt lat="48.68129" lon="6.12556">
        <ele>358</ele>
        <time>2012-03-25T14:16:09Z</time>
      </trkpt>
      <trkpt lat="48.68132" lon="6.12542">
        <ele>353</ele>
        <time>2012-03-25T14:16:11Z</time>
      </trkpt>
      <trkpt lat="48.68132" lon="6.12532">
        <ele>352</ele>
        <time>2012-03-25T14:16:13Z</time>
      </trkpt>
      <trkpt lat="48.68131" lon="6.12522">
        <ele>349</ele>
        <time>2012-03-25T14:16:15Z</time>
      </trkpt>
      <trkpt lat="48.68129" lon="6.12505">
        <ele>351</ele>
        <time>2012-03-25T14:16:17Z</time>
      </trkpt>
      <trkpt lat="48.68127" lon="6.12491">
        <ele>353</ele>
        <time>2012-03-25T14:16:19Z</time>
      </trkpt>
      <trkpt lat="48.68126" lon="6.12481">
        <ele>352</ele>
        <time>2012-03-25T14:16:21Z</time>
      </trkpt>
      <trkpt lat="48.68124" lon="6.1247">
        <ele>355</ele>
        <time>2012-03-25T14:16:23Z</time>
      </trkpt>
      <trkpt lat="48.68122" lon="6.12457">
        <ele>353</ele>
        <time>2012-03-25T14:16:25Z</time>
      </trkpt>
      <trkpt lat="48.6812" lon="6.12446">
        <ele>352</ele>
        <time>2012-03-25T14:16:27Z</time>
      </trkpt>
      <trkpt lat="48.68118" lon="6.12437">
        <ele>354</ele>
        <time>2012-03-25T14:16:29Z</time>
      </trkpt>
      <trkpt lat="48.68115" lon="6.12426">
        <ele>352</ele>
        <time>2012-03-25T14:16:31Z</time>
      </trkpt>
      <trkpt lat="48.68113" lon="6.12417">
        <ele>360</ele>
        <time>2012-03-25T14:16:33Z</time>
      </trkpt>
      <trkpt lat="48.68109" lon="6.12408">
        <ele>360</ele>
        <time>2012-03-25T14:16:35Z</time>
      </trkpt>
      <trkpt lat="48.68106" lon="6.12401">
        <ele>357</ele>
        <time>2012-03-25T14:16:37Z</time>
      </trkpt>
      <trkpt lat="48.68103" lon="6.12394">
        <ele>357</ele>
        <time>2012-03-25T14:16:39Z</time>
      </trkpt>
      <trkpt lat="48.68098" lon="6.12385">
        <ele>354</ele>
        <time>2012-03-25T14:16:41Z</time>
      </trkpt>
      <trkpt lat="48.68094" lon="6.12372">
        <ele>353</ele>
        <time>2012-03-25T14:16:43Z</time>
      </trkpt>
      <trkpt lat="48.68089" lon="6.12358">
        <ele>355</ele>
        <time>2012-03-25T14:16:45Z</time>
      </trkpt>
      <trkpt lat="48.68083" lon="6.12342">
        <ele>354</ele>
        <time>2012-03-25T14:16:47Z</time>
      </trkpt>
      <trkpt lat="48.68077" lon="6.12329">
        <ele>353</ele>
        <time>2012-03-25T14:16:49Z</time>
      </trkpt>
      <trkpt lat="48.68071" lon="6.12313">
        <ele>357</ele>
        <time>2012-03-25T14:16:51Z</time>
      </trkpt>
      <trkpt lat="48.68066" lon="6.12298">
        <ele>357</ele>
        <time>2012-03-25T14:16:53Z</time>
      </trkpt>
      <trkpt lat="48.68061" lon="6.12283">
        <ele>361</ele>
        <time>2012-03-25T14:16:55Z</time>
      </trkpt>
      <trkpt lat="48.68055" lon="6.12268">
        <ele>364</ele>
        <time>2012-03-25T14:16:57Z</time>
      </trkpt>
      <trkpt lat="48.6805" lon="6.12249">
        <ele>360</ele>
        <time>2012-03-25T14:16:59Z</time>
      </trkpt>
      <trkpt lat="48.68045" lon="6.12232">
        <ele>362</ele>
        <time>2012-03-25T14:17:01Z</time>
      </trkpt>
      <trkpt lat="48.6804" lon="6.12217">
        <ele>360</ele>
        <time>2012-03-25T14:17:03Z</time>
      </trkpt>
      <trkpt lat="48.68034" lon="6.12202">
        <ele>360</ele>
        <time>2012-03-25T14:17:05Z</time>
      </trkpt>
      <trkpt lat="48.68029" lon="6.12186">
        <ele>364</ele>
        <time>2012-03-25T14:17:07Z</time>
      </trkpt>
      <trkpt lat="48.68028" lon="6.12164">
        <ele>362</ele>
        <time>2012-03-25T14:17:09Z</time>
      </trkpt>
      <trkpt lat="48.68027" lon="6.12144">
        <ele>357</ele>
        <time>2012-03-25T14:17:11Z</time>
      </trkpt>
      <trkpt lat="48.68024" lon="6.12128">
        <ele>353</ele>
        <time>2012-03-25T14:17:13Z</time>
      </trkpt>
      <trkpt lat="48.6802" lon="6.12114">
        <ele>356</ele>
        <time>2012-03-25T14:17:15Z</time>
      </trkpt>
      <trkpt lat="48.68016" lon="6.12107">
        <ele>353</ele>
        <time>2012-03-25T14:17:17Z</time>
      </trkpt>
      <trkpt lat="48.68011" lon="6.12104">
        <ele>353</ele>
        <time>2012-03-25T14:17:19Z</time>
      </trkpt>
      <trkpt lat="48.68008" lon="6.12103">
        <ele>351</ele>
        <time>2012-03-25T14:17:21Z</time>
      </trkpt>
      <trkpt lat="48.68003" lon="6.12103">
        <ele>351</ele>
        <time>2012-03-25T14:17:23Z</time>
      </trkpt>
      <trkpt lat="48.67997" lon="6.12106">
        <ele>354</ele>
        <time>2012-03-25T14:17:25Z</time>
      </trkpt>
      <trkpt lat="48.67991" lon="6.12111">
        <ele>353</ele>
        <time>2012-03-25T14:17:27Z</time>
      </trkpt>
      <trkpt lat="48.67983" lon="6.12115">
        <ele>356</ele>
        <time>2012-03-25T14:17:29Z</time>
      </trkpt>
      <trkpt lat="48.67975" lon="6.12117">
        <ele>358</ele>
        <time>2012-03-25T14:17:31Z</time>
      </trkpt>
      <trkpt lat="48.6797" lon="6.1212">
        <ele>359</ele>
        <time>2012-03-25T14:17:33Z</time>
      </trkpt>
      <trkpt lat="48.67965" lon="6.12123">
        <ele>363</ele>
        <time>2012-03-25T14:17:35Z</time>
      </trkpt>
      <trkpt lat="48.6796" lon="6.12127">
        <ele>369</ele>
        <time>2012-03-25T14:17:37Z</time>
      </trkpt>
      <trkpt lat="48.67955" lon="6.12129">
        <ele>371</ele>
        <time>2012-03-25T14:17:39Z</time>
      </trkpt>
      <trkpt lat="48.67948" lon="6.12131">
        <ele>371</ele>
        <time>2012-03-25T14:17:41Z</time>
      </trkpt>
      <trkpt lat="48.6794" lon="6.12131">
        <ele>368</ele>
        <time>2012-03-25T14:17:43Z</time>
      </trkpt>
      <trkpt lat="48.67932" lon="6.1213">
        <ele>371</ele>
        <time>2012-03-25T14:17:45Z</time>
      </trkpt>
      <trkpt lat="48.67922" lon="6.12131">
        <ele>367</ele>
        <time>2012-03-25T14:17:47Z</time>
      </trkpt>
      <trkpt lat="48.67914" lon="6.12131">
        <ele>367</ele>
        <time>2012-03-25T14:17:49Z</time>
      </trkpt>
      <trkpt lat="48.67903" lon="6.12133">
        <ele>376</ele>
        <time>2012-03-25T14:17:51Z</time>
      </trkpt>
      <trkpt lat="48.67894" lon="6.12139">
        <ele>376</ele>
        <time>2012-03-25T14:17:53Z</time>
      </trkpt>
      <trkpt lat="48.67885" lon="6.12142">
        <ele>374</ele>
        <time>2012-03-25T14:17:55Z</time>
      </trkpt>
      <trkpt lat="48.67877" lon="6.12147">
        <ele>375</ele>
        <time>2012-03-25T14:17:57Z</time>
      </trkpt>
      <trkpt lat="48.67868" lon="6.12149">
        <ele>377</ele>
        <time>2012-03-25T14:17:59Z</time>
      </trkpt>
      <trkpt lat="48.67858" lon="6.12153">
        <ele>375</ele>
        <time>2012-03-25T14:18:01Z</time>
      </trkpt>
      <trkpt lat="48.67851" lon="6.12155">
        <ele>377</ele>
        <time>2012-03-25T14:18:03Z</time>
      </trkpt>
      <trkpt lat="48.67844" lon="6.12155">
        <ele>375</ele>
        <time>2012-03-25T14:18:05Z</time>
      </trkpt>
      <trkpt lat="48.67838" lon="6.12154">
        <ele>376</ele>
        <time>2012-03-25T14:18:07Z</time>
      </trkpt>
      <trkpt lat="48.67828" lon="6.12159">
        <ele>374</ele>
        <time>2012-03-25T14:18:09Z</time>
      </trkpt>
      <trkpt lat="48.67822" lon="6.12161">
        <ele>377</ele>
        <time>2012-03-25T14:18:11Z</time>
      </trkpt>
      <trkpt lat="48.67814" lon="6.12162">
        <ele>378</ele>
        <time>2012-03-25T14:18:13Z</time>
      </trkpt>
      <trkpt lat="48.67807" lon="6.12158">
        <ele>376</ele>
        <time>2012-03-25T14:18:15Z</time>
      </trkpt>
      <trkpt lat="48.67799" lon="6.12155">
        <ele>374</ele>
        <time>2012-03-25T14:18:17Z</time>
      </trkpt>
      <trkpt lat="48.67789" lon="6.12152">
        <ele>373</ele>
        <time>2012-03-25T14:18:19Z</time>
      </trkpt>
      <trkpt lat="48.67778" lon="6.12151">
        <ele>370</ele>
        <time>2012-03-25T14:18:21Z</time>
      </trkpt>
      <trkpt lat="48.67769" lon="6.12151">
        <ele>371</ele>
        <time>2012-03-25T14:18:23Z</time>
      </trkpt>
      <trkpt lat="48.67759" lon="6.12149">
        <ele>374</ele>
        <time>2012-03-25T14:18:25Z</time>
      </trkpt>
      <trkpt lat="48.6775" lon="6.12148">
        <ele>372</ele>
        <time>2012-03-25T14:18:27Z</time>
      </trkpt>
      <trkpt lat="48.6774" lon="6.12148">
        <ele>373</ele>
        <time>2012-03-25T14:18:29Z</time>
      </trkpt>
      <trkpt lat="48.67729" lon="6.12149">
        <ele>373</ele>
        <time>2012-03-25T14:18:31Z</time>
      </trkpt>
      <trkpt lat="48.6772" lon="6.12149">
        <ele>375</ele>
        <time>2012-03-25T14:18:33Z</time>
      </trkpt>
      <trkpt lat="48.67714" lon="6.1215">
        <ele>376</ele>
        <time>2012-03-25T14:18:35Z</time>
      </trkpt>
      <trkpt lat="48.67708" lon="6.1215">
        <ele>371</ele>
        <time>2012-03-25T14:18:37Z</time>
      </trkpt>
      <trkpt lat="48.67704" lon="6.12148">
        <ele>371</ele>
        <time>2012-03-25T14:18:39Z</time>
      </trkpt>
      <trkpt lat="48.67701" lon="6.12145">
        <ele>369</ele>
        <time>2012-03-25T14:18:41Z</time>
      </trkpt>
      <trkpt lat="48.67698" lon="6.12139">
        <ele>375</ele>
        <time>2012-03-25T14:18:43Z</time>
      </trkpt>
      <trkpt lat="48.67691" lon="6.12136">
        <ele>369</ele>
        <time>2012-03-25T14:18:45Z</time>
      </trkpt>
      <trkpt lat="48.67678" lon="6.12137">
        <ele>376</ele>
        <time>2012-03-25T14:18:49Z</time>
      </trkpt>
      <trkpt lat="48.67671" lon="6.12141">
        <ele>372</ele>
        <time>2012-03-25T14:18:51Z</time>
      </trkpt>
      <trkpt lat="48.67665" lon="6.12142">
        <ele>369</ele>
        <time>2012-03-25T14:18:53Z</time>
      </trkpt>
      <trkpt lat="48.67657" lon="6.12143">
        <ele>367</ele>
        <time>2012-03-25T14:18:55Z</time>
      </trkpt>
      <trkpt lat="48.67649" lon="6.12145">
        <ele>368</ele>
        <time>2012-03-25T14:18:57Z</time>
      </trkpt>
      <trkpt lat="48.67643" lon="6.12142">
        <ele>366</ele>
        <time>2012-03-25T14:18:59Z</time>
      </trkpt>
      <trkpt lat="48.67637" lon="6.1214">
        <ele>366</ele>
        <time>2012-03-25T14:19:01Z</time>
      </trkpt>
      <trkpt lat="48.67631" lon="6.12138">
        <ele>366</ele>
        <time>2012-03-25T14:19:03Z</time>
      </trkpt>
      <trkpt lat="48.67624" lon="6.12139">
        <ele>359</ele>
        <time>2012-03-25T14:19:05Z</time>
      </trkpt>
      <trkpt lat="48.67617" lon="6.12141">
        <ele>358</ele>
        <time>2012-03-25T14:19:07Z</time>
      </trkpt>
      <trkpt lat="48.6761" lon="6.12142">
        <ele>363</ele>
        <time>2012-03-25T14:19:09Z</time>
      </trkpt>
      <trkpt lat="48.67603" lon="6.12145">
        <ele>367</ele>
        <time>2012-03-25T14:19:13Z</time>
      </trkpt>
      <trkpt lat="48.67597" lon="6.12139">
        <ele>370</ele>
        <time>2012-03-25T14:19:15Z</time>
      </trkpt>
      <trkpt lat="48.6759" lon="6.12138">
        <ele>369</ele>
        <time>2012-03-25T14:19:17Z</time>
      </trkpt>
      <trkpt lat="48.67583" lon="6.12143">
        <ele>366</ele>
        <time>2012-03-25T14:19:19Z</time>
      </trkpt>
      <trkpt lat="48.67574" lon="6.12148">
        <ele>362</ele>
        <time>2012-03-25T14:19:21Z</time>
      </trkpt>
      <trkpt lat="48.67567" lon="6.12151">
        <ele>366</ele>
        <time>2012-03-25T14:19:23Z</time>
      </trkpt>
      <trkpt lat="48.67562" lon="6.12152">
        <ele>364</ele>
        <time>2012-03-25T14:19:25Z</time>
      </trkpt>
      <trkpt lat="48.67556" lon="6.12155">
        <ele>363</ele>
        <time>2012-03-25T14:19:27Z</time>
      </trkpt>
      <trkpt lat="48.67551" lon="6.12157">
        <ele>362</ele>
        <time>2012-03-25T14:19:29Z</time>
      </trkpt>
      <trkpt lat="48.67548" lon="6.12156">
        <ele>362</ele>
        <time>2012-03-25T14:19:31Z</time>
      </trkpt>
      <trkpt lat="48.67543" lon="6.12148">
        <ele>372</ele>
        <time>2012-03-25T14:19:35Z</time>
      </trkpt>
      <trkpt lat="48.67541" lon="6.12142">
        <ele>375</ele>
        <time>2012-03-25T14:19:37Z</time>
      </trkpt>
      <trkpt lat="48.67535" lon="6.12138">
        <ele>373</ele>
        <time>2012-03-25T14:19:39Z</time>
      </trkpt>
      <trkpt lat="48.67528" lon="6.12138">
        <ele>374</ele>
        <time>2012-03-25T14:19:41Z</time>
      </trkpt>
      <trkpt lat="48.6752" lon="6.12139">
        <ele>371</ele>
        <time>2012-03-25T14:19:43Z</time>
      </trkpt>
      <trkpt lat="48.67512" lon="6.12141">
        <ele>368</ele>
        <time>2012-03-25T14:19:45Z</time>
      </trkpt>
      <trkpt lat="48.67502" lon="6.12145">
        <ele>365</ele>
        <time>2012-03-25T14:19:47Z</time>
      </trkpt>
      <trkpt lat="48.67494" lon="6.12146">
        <ele>363</ele>
        <time>2012-03-25T14:19:49Z</time>
      </trkpt>
      <trkpt lat="48.67487" lon="6.12149">
        <ele>362</ele>
        <time>2012-03-25T14:19:51Z</time>
      </trkpt>
      <trkpt lat="48.67481" lon="6.12151">
        <ele>364</ele>
        <time>2012-03-25T14:19:53Z</time>
      </trkpt>
      <trkpt lat="48.67474" lon="6.12153">
        <ele>360</ele>
        <time>2012-03-25T14:19:55Z</time>
      </trkpt>
      <trkpt lat="48.67467" lon="6.12155">
        <ele>361</ele>
        <time>2012-03-25T14:19:57Z</time>
      </trkpt>
      <trkpt lat="48.67458" lon="6.12158">
        <ele>356</ele>
        <time>2012-03-25T14:19:59Z</time>
      </trkpt>
      <trkpt lat="48.6745" lon="6.12161">
        <ele>356</ele>
        <time>2012-03-25T14:20:01Z</time>
      </trkpt>
      <trkpt lat="48.67443" lon="6.12163">
        <ele>356</ele>
        <time>2012-03-25T14:20:03Z</time>
      </trkpt>
      <trkpt lat="48.67436" lon="6.12165">
        <ele>355</ele>
        <time>2012-03-25T14:20:05Z</time>
      </trkpt>
      <trkpt lat="48.67428" lon="6.12167">
        <ele>354</ele>
        <time>2012-03-25T14:20:07Z</time>
      </trkpt>
      <trkpt lat="48.67421" lon="6.1217">
        <ele>354</ele>
        <time>2012-03-25T14:20:09Z</time>
      </trkpt>
      <trkpt lat="48.67413" lon="6.1217">
        <ele>356</ele>
        <time>2012-03-25T14:20:11Z</time>
      </trkpt>
      <trkpt lat="48.67407" lon="6.12166">
        <ele>357</ele>
        <time>2012-03-25T14:20:13Z</time>
      </trkpt>
      <trkpt lat="48.67404" lon="6.12162">
        <ele>352</ele>
        <time>2012-03-25T14:20:15Z</time>
      </trkpt>
      <trkpt lat="48.67403" lon="6.12155">
        <ele>352</ele>
        <time>2012-03-25T14:20:17Z</time>
      </trkpt>
      <trkpt lat="48.67401" lon="6.12148">
        <ele>350</ele>
        <time>2012-03-25T14:20:19Z</time>
      </trkpt>
      <trkpt lat="48.67399" lon="6.12141">
        <ele>356</ele>
        <time>2012-03-25T14:20:21Z</time>
      </trkpt>
      <trkpt lat="48.67398" lon="6.12131">
        <ele>357</ele>
        <time>2012-03-25T14:20:23Z</time>
      </trkpt>
      <trkpt lat="48.67395" lon="6.1212">
        <ele>357</ele>
        <time>2012-03-25T14:20:25Z</time>
      </trkpt>
      <trkpt lat="48.67394" lon="6.12105">
        <ele>357</ele>
        <time>2012-03-25T14:20:27Z</time>
      </trkpt>
      <trkpt lat="48.67394" lon="6.1209">
        <ele>357</ele>
        <time>2012-03-25T14:20:29Z</time>
      </trkpt>
      <trkpt lat="48.67395" lon="6.12075">
        <ele>360</ele>
        <time>2012-03-25T14:20:31Z</time>
      </trkpt>
      <trkpt lat="48.67399" lon="6.12063">
        <ele>357</ele>
        <time>2012-03-25T14:20:33Z</time>
      </trkpt>
      <trkpt lat="48.674" lon="6.1205">
        <ele>359</ele>
        <time>2012-03-25T14:20:35Z</time>
      </trkpt>
      <trkpt lat="48.67401" lon="6.12038">
        <ele>364</ele>
        <time>2012-03-25T14:20:37Z</time>
      </trkpt>
      <trkpt lat="48.67402" lon="6.12025">
        <ele>362</ele>
        <time>2012-03-25T14:20:39Z</time>
      </trkpt>
      <trkpt lat="48.67403" lon="6.12003">
        <ele>364</ele>
        <time>2012-03-25T14:20:41Z</time>
      </trkpt>
      <trkpt lat="48.67407" lon="6.11981">
        <ele>361</ele>
        <time>2012-03-25T14:20:43Z</time>
      </trkpt>
      <trkpt lat="48.67409" lon="6.11962">
        <ele>363</ele>
        <time>2012-03-25T14:20:45Z</time>
      </trkpt>
      <trkpt lat="48.67408" lon="6.11947">
        <ele>364</ele>
        <time>2012-03-25T14:20:47Z</time>
      </trkpt>
      <trkpt lat="48.67409" lon="6.1193">
        <ele>360</ele>
        <time>2012-03-25T14:20:49Z</time>
      </trkpt>
      <trkpt lat="48.67409" lon="6.11912">
        <ele>370</ele>
        <time>2012-03-25T14:20:51Z</time>
      </trkpt>
      <trkpt lat="48.67411" lon="6.11892">
        <ele>373</ele>
        <time>2012-03-25T14:20:53Z</time>
      </trkpt>
      <trkpt lat="48.67411" lon="6.11872">
        <ele>368</ele>
        <time>2012-03-25T14:20:55Z</time>
      </trkpt>
      <trkpt lat="48.67411" lon="6.11856">
        <ele>369</ele>
        <time>2012-03-25T14:20:57Z</time>
      </trkpt>
      <trkpt lat="48.67411" lon="6.11839">
        <ele>374</ele>
        <time>2012-03-25T14:20:59Z</time>
      </trkpt>
      <trkpt lat="48.67412" lon="6.11817">
        <ele>369</ele>
        <time>2012-03-25T14:21:01Z</time>
      </trkpt>
      <trkpt lat="48.67411" lon="6.11794">
        <ele>368</ele>
        <time>2012-03-25T14:21:03Z</time>
      </trkpt>
      <trkpt lat="48.67416" lon="6.11765">
        <ele>371</ele>
        <time>2012-03-25T14:21:05Z</time>
      </trkpt>
      <trkpt lat="48.67418" lon="6.11741">
        <ele>369</ele>
        <time>2012-03-25T14:21:07Z</time>
      </trkpt>
      <trkpt lat="48.67419" lon="6.11717">
        <ele>369</ele>
        <time>2012-03-25T14:21:09Z</time>
      </trkpt>
      <trkpt lat="48.67421" lon="6.11697">
        <ele>366</ele>
        <time>2012-03-25T14:21:11Z</time>
      </trkpt>
      <trkpt lat="48.67423" lon="6.11683">
        <ele>364</ele>
        <time>2012-03-25T14:21:13Z</time>
      </trkpt>
      <trkpt lat="48.67422" lon="6.11666">
        <ele>366</ele>
        <time>2012-03-25T14:21:15Z</time>
      </trkpt>
      <trkpt lat="48.67424" lon="6.11653">
        <ele>367</ele>
        <time>2012-03-25T14:21:17Z</time>
      </trkpt>
      <trkpt lat="48.67425" lon="6.11647">
        <ele>365</ele>
        <time>2012-03-25T14:21:19Z</time>
      </trkpt>
      <trkpt lat="48.67427" lon="6.11635">
        <ele>360</ele>
        <time>2012-03-25T14:21:21Z</time>
      </trkpt>
      <trkpt lat="48.67428" lon="6.11627">
        <ele>360</ele>
        <time>2012-03-25T14:21:23Z</time>
      </trkpt>
      <trkpt lat="48.67429" lon="6.11618">
        <ele>362</ele>
        <time>2012-03-25T14:21:25Z</time>
      </trkpt>
      <trkpt lat="48.6743" lon="6.11608">
        <ele>363</ele>
        <time>2012-03-25T14:21:27Z</time>
      </trkpt>
      <trkpt lat="48.67432" lon="6.11598">
        <ele>360</ele>
        <time>2012-03-25T14:21:29Z</time>
      </trkpt>
      <trkpt lat="48.67432" lon="6.11582">
        <ele>363</ele>
        <time>2012-03-25T14:21:31Z</time>
      </trkpt>
      <trkpt lat="48.67435" lon="6.11566">
        <ele>359</ele>
        <time>2012-03-25T14:21:33Z</time>
      </trkpt>
      <trkpt lat="48.67437" lon="6.11554">
        <ele>359</ele>
        <time>2012-03-25T14:21:35Z</time>
      </trkpt>
      <trkpt lat="48.67438" lon="6.11546">
        <ele>356</ele>
        <time>2012-03-25T14:21:37Z</time>
      </trkpt>
      <trkpt lat="48.67438" lon="6.1154">
        <ele>358</ele>
        <time>2012-03-25T14:21:41Z</time>
      </trkpt>
      <trkpt lat="48.67437" lon="6.11535">
        <ele>359</ele>
        <time>2012-03-25T14:21:43Z</time>
      </trkpt>
      <trkpt lat="48.67438" lon="6.11524">
        <ele>357</ele>
        <time>2012-03-25T14:21:45Z</time>
      </trkpt>
      <trkpt lat="48.67438" lon="6.11519">
        <ele>354</ele>
        <time>2012-03-25T14:21:47Z</time>
      </trkpt>
      <trkpt lat="48.67438" lon="6.11514">
        <ele>351</ele>
        <time>2012-03-25T14:21:51Z</time>
      </trkpt>
      <trkpt lat="48.67438" lon="6.11513">
        <ele>345</ele>
        <time>2012-03-25T14:21:53Z</time>
      </trkpt>
      <trkpt lat="48.67439" lon="6.11509">
        <ele>347</ele>
        <time>2012-03-25T14:21:59Z</time>
      </trkpt>
      <trkpt lat="48.67439" lon="6.11504">
        <ele>344</ele>
        <time>2012-03-25T14:22:07Z</time>
      </trkpt>
      <trkpt lat="48.67439" lon="6.11501">
        <ele>342</ele>
        <time>2012-03-25T14:22:09Z</time>
      </trkpt>
      <trkpt lat="48.67437" lon="6.11492">
        <ele>343</ele>
        <time>2012-03-25T14:22:19Z</time>
      </trkpt>
      <trkpt lat="48.67441" lon="6.11477">
        <ele>339</ele>
        <time>2012-03-25T14:22:27Z</time>
      </trkpt>
      <trkpt lat="48.67441" lon="6.11471">
        <ele>339</ele>
        <time>2012-03-25T14:22:31Z</time>
      </trkpt>
      <trkpt lat="48.67442" lon="6.11469">
        <ele>343</ele>
        <time>2012-03-25T14:22:33Z</time>
      </trkpt>
      <trkpt lat="48.67444" lon="6.11464">
        <ele>339</ele>
        <time>2012-03-25T14:22:37Z</time>
      </trkpt>
      <trkpt lat="48.67445" lon="6.11457">
        <ele>333</ele>
        <time>2012-03-25T14:22:45Z</time>
      </trkpt>
      <trkpt lat="48.67446" lon="6.11453">
        <ele>332</ele>
        <time>2012-03-25T14:22:47Z</time>
      </trkpt>
      <trkpt lat="48.67446" lon="6.1145">
        <ele>326</ele>
        <time>2012-03-25T14:22:51Z</time>
      </trkpt>
      <trkpt lat="48.67445" lon="6.11448">
        <ele>303</ele>
        <time>2012-03-25T14:22:57Z</time>
      </trkpt>
      <trkpt lat="48.67444" lon="6.11449">
        <ele>304</ele>
        <time>2012-03-25T14:23:17Z</time>
      </trkpt>
      <trkpt lat="48.67442" lon="6.11446">
        <ele>304</ele>
        <time>2012-03-25T14:23:21Z</time>
      </trkpt>
      <trkpt lat="48.67443" lon="6.11445">
        <ele>307</ele>
        <time>2012-03-25T14:23:23Z</time>
      </trkpt>
      <trkpt lat="48.67445" lon="6.11444">
        <ele>305</ele>
        <time>2012-03-25T14:23:25Z</time>
      </trkpt>
      <trkpt lat="48.67448" lon="6.11443">
        <ele>309</ele>
        <time>2012-03-25T14:23:27Z</time>
      </trkpt>
      <trkpt lat="48.67451" lon="6.11442">
        <ele>310</ele>
        <time>2012-03-25T14:23:29Z</time>
      </trkpt>
      <trkpt lat="48.67455" lon="6.11441">
        <ele>309</ele>
        <time>2012-03-25T14:23:31Z</time>
      </trkpt>
      <trkpt lat="48.6746" lon="6.11443">
        <ele>306</ele>
        <time>2012-03-25T14:23:33Z</time>
      </trkpt>
      <trkpt lat="48.67465" lon="6.11442">
        <ele>312</ele>
        <time>2012-03-25T14:23:35Z</time>
      </trkpt>
      <trkpt lat="48.67471" lon="6.11443">
        <ele>312</ele>
        <time>2012-03-25T14:23:37Z</time>
      </trkpt>
      <trkpt lat="48.67479" lon="6.11442">
        <ele>314</ele>
        <time>2012-03-25T14:23:39Z</time>
      </trkpt>
      <trkpt lat="48.67487" lon="6.11441">
        <ele>311</ele>
        <time>2012-03-25T14:23:41Z</time>
      </trkpt>
      <trkpt lat="48.67494" lon="6.11438">
        <ele>308</ele>
        <time>2012-03-25T14:23:43Z</time>
      </trkpt>
      <trkpt lat="48.67502" lon="6.11434">
        <ele>309</ele>
        <time>2012-03-25T14:23:45Z</time>
      </trkpt>
      <trkpt lat="48.67511" lon="6.11431">
        <ele>308</ele>
        <time>2012-03-25T14:23:47Z</time>
      </trkpt>
      <trkpt lat="48.67519" lon="6.11429">
        <ele>311</ele>
        <time>2012-03-25T14:23:49Z</time>
      </trkpt>
      <trkpt lat="48.67528" lon="6.11429">
        <ele>318</ele>
        <time>2012-03-25T14:23:51Z</time>
      </trkpt>
      <trkpt lat="48.67537" lon="6.11428">
        <ele>320</ele>
        <time>2012-03-25T14:23:53Z</time>
      </trkpt>
      <trkpt lat="48.67547" lon="6.11424">
        <ele>319</ele>
        <time>2012-03-25T14:23:55Z</time>
      </trkpt>
      <trkpt lat="48.67555" lon="6.11423">
        <ele>320</ele>
        <time>2012-03-25T14:23:57Z</time>
      </trkpt>
      <trkpt lat="48.67563" lon="6.11424">
        <ele>321</ele>
        <time>2012-03-25T14:23:59Z</time>
      </trkpt>
      <trkpt lat="48.67571" lon="6.11424">
        <ele>320</ele>
        <time>2012-03-25T14:24:01Z</time>
      </trkpt>
      <trkpt lat="48.67577" lon="6.11424">
        <ele>321</ele>
        <time>2012-03-25T14:24:03Z</time>
      </trkpt>
      <trkpt lat="48.67586" lon="6.11422">
        <ele>319</ele>
        <time>2012-03-25T14:24:05Z</time>
      </trkpt>
      <trkpt lat="48.67594" lon="6.11421">
        <ele>318</ele>
        <time>2012-03-25T14:24:07Z</time>
      </trkpt>
      <trkpt lat="48.67599" lon="6.11421">
        <ele>320</ele>
        <time>2012-03-25T14:24:09Z</time>
      </trkpt>
      <trkpt lat="48.67605" lon="6.1142">
        <ele>323</ele>
        <time>2012-03-25T14:24:11Z</time>
      </trkpt>
      <trkpt lat="48.67613" lon="6.1142">
        <ele>322</ele>
        <time>2012-03-25T14:24:13Z</time>
      </trkpt>
      <trkpt lat="48.67623" lon="6.11419">
        <ele>325</ele>
        <time>2012-03-25T14:24:15Z</time>
      </trkpt>
      <trkpt lat="48.67631" lon="6.1142">
        <ele>324</ele>
        <time>2012-03-25T14:24:17Z</time>
      </trkpt>
      <trkpt lat="48.6764" lon="6.11422">
        <ele>323</ele>
        <time>2012-03-25T14:24:19Z</time>
      </trkpt>
      <trkpt lat="48.67648" lon="6.11424">
        <ele>327</ele>
        <time>2012-03-25T14:24:21Z</time>
      </trkpt>
      <trkpt lat="48.67665" lon="6.11424">
        <ele>331</ele>
        <time>2012-03-25T14:24:25Z</time>
      </trkpt>
      <trkpt lat="48.67673" lon="6.11427">
        <ele>326</ele>
        <time>2012-03-25T14:24:27Z</time>
      </trkpt>
      <trkpt lat="48.67678" lon="6.11431">
        <ele>326</ele>
        <time>2012-03-25T14:24:29Z</time>
      </trkpt>
      <trkpt lat="48.67682" lon="6.11434">
        <ele>328</ele>
        <time>2012-03-25T14:24:31Z</time>
      </trkpt>
      <trkpt lat="48.67686" lon="6.11439">
        <ele>327</ele>
        <time>2012-03-25T14:24:33Z</time>
      </trkpt>
      <trkpt lat="48.6769" lon="6.11442">
        <ele>326</ele>
        <time>2012-03-25T14:24:35Z</time>
      </trkpt>
      <trkpt lat="48.67695" lon="6.11445">
        <ele>324</ele>
        <time>2012-03-25T14:24:37Z</time>
      </trkpt>
      <trkpt lat="48.67702" lon="6.11449">
        <ele>328</ele>
        <time>2012-03-25T14:24:39Z</time>
      </trkpt>
      <trkpt lat="48.67707" lon="6.11454">
        <ele>329</ele>
        <time>2012-03-25T14:24:41Z</time>
      </trkpt>
      <trkpt lat="48.67714" lon="6.11457">
        <ele>327</ele>
        <time>2012-03-25T14:24:43Z</time>
      </trkpt>
      <trkpt lat="48.67722" lon="6.1146">
        <ele>326</ele>
        <time>2012-03-25T14:24:45Z</time>
      </trkpt>
      <trkpt lat="48.6773" lon="6.11463">
        <ele>322</ele>
        <time>2012-03-25T14:24:47Z</time>
      </trkpt>
      <trkpt lat="48.67736" lon="6.11464">
        <ele>319</ele>
        <time>2012-03-25T14:24:49Z</time>
      </trkpt>
      <trkpt lat="48.67745" lon="6.11459">
        <ele>321</ele>
        <time>2012-03-25T14:24:51Z</time>
      </trkpt>
      <trkpt lat="48.6775" lon="6.11462">
        <ele>325</ele>
        <time>2012-03-25T14:24:53Z</time>
      </trkpt>
      <trkpt lat="48.67754" lon="6.11464">
        <ele>325</ele>
        <time>2012-03-25T14:24:55Z</time>
      </trkpt>
      <trkpt lat="48.67757" lon="6.11464">
        <ele>327</ele>
        <time>2012-03-25T14:24:57Z</time>
      </trkpt>
      <trkpt lat="48.67761" lon="6.11464">
        <ele>326</ele>
        <time>2012-03-25T14:24:59Z</time>
      </trkpt>
      <trkpt lat="48.67764" lon="6.11464">
        <ele>322</ele>
        <time>2012-03-25T14:25:01Z</time>
      </trkpt>
      <trkpt lat="48.67771" lon="6.11472">
        <ele>320</ele>
        <time>2012-03-25T14:25:07Z</time>
      </trkpt>
      <trkpt lat="48.67773" lon="6.11475">
        <ele>315</ele>
        <time>2012-03-25T14:25:09Z</time>
      </trkpt>
      <trkpt lat="48.67777" lon="6.11476">
        <ele>319</ele>
        <time>2012-03-25T14:25:11Z</time>
      </trkpt>
      <trkpt lat="48.67781" lon="6.11477">
        <ele>318</ele>
        <time>2012-03-25T14:25:13Z</time>
      </trkpt>
      <trkpt lat="48.67785" lon="6.11477">
        <ele>316</ele>
        <time>2012-03-25T14:25:15Z</time>
      </trkpt>
      <trkpt lat="48.67789" lon="6.11478">
        <ele>318</ele>
        <time>2012-03-25T14:25:17Z</time>
      </trkpt>
      <trkpt lat="48.67793" lon="6.11479">
        <ele>319</ele>
        <time>2012-03-25T14:25:19Z</time>
      </trkpt>
      <trkpt lat="48.67798" lon="6.1148">
        <ele>319</ele>
        <time>2012-03-25T14:25:21Z</time>
      </trkpt>
      <trkpt lat="48.67805" lon="6.11478">
        <ele>320</ele>
        <time>2012-03-25T14:25:23Z</time>
      </trkpt>
      <trkpt lat="48.67811" lon="6.11475">
        <ele>327</ele>
        <time>2012-03-25T14:25:25Z</time>
      </trkpt>
      <trkpt lat="48.67815" lon="6.11472">
        <ele>329</ele>
        <time>2012-03-25T14:25:27Z</time>
      </trkpt>
      <trkpt lat="48.67819" lon="6.11469">
        <ele>336</ele>
        <time>2012-03-25T14:25:29Z</time>
      </trkpt>
      <trkpt lat="48.67823" lon="6.11468">
        <ele>338</ele>
        <time>2012-03-25T14:25:31Z</time>
      </trkpt>
      <trkpt lat="48.67828" lon="6.11468">
        <ele>338</ele>
        <time>2012-03-25T14:25:33Z</time>
      </trkpt>
      <trkpt lat="48.67839" lon="6.1146">
        <ele>338</ele>
        <time>2012-03-25T14:25:39Z</time>
      </trkpt>
      <trkpt lat="48.67844" lon="6.11457">
        <ele>341</ele>
        <time>2012-03-25T14:25:41Z</time>
      </trkpt>
      <trkpt lat="48.67847" lon="6.11453">
        <ele>342</ele>
        <time>2012-03-25T14:25:43Z</time>
      </trkpt>
      <trkpt lat="48.67852" lon="6.11449">
        <ele>341</ele>
        <time>2012-03-25T14:25:45Z</time>
      </trkpt>
      <trkpt lat="48.67857" lon="6.11444">
        <ele>335</ele>
        <time>2012-03-25T14:25:47Z</time>
      </trkpt>
      <trkpt lat="48.6786" lon="6.11443">
        <ele>336</ele>
        <time>2012-03-25T14:25:49Z</time>
      </trkpt>
      <trkpt lat="48.67862" lon="6.11441">
        <ele>336</ele>
        <time>2012-03-25T14:25:51Z</time>
      </trkpt>
      <trkpt lat="48.67864" lon="6.11438">
        <ele>334</ele>
        <time>2012-03-25T14:25:53Z</time>
      </trkpt>
      <trkpt lat="48.67866" lon="6.11435">
        <ele>329</ele>
        <time>2012-03-25T14:25:55Z</time>
      </trkpt>
      <trkpt lat="48.67868" lon="6.11433">
        <ele>328</ele>
        <time>2012-03-25T14:25:57Z</time>
      </trkpt>
      <trkpt lat="48.67871" lon="6.11429">
        <ele>336</ele>
        <time>2012-03-25T14:25:59Z</time>
      </trkpt>
      <trkpt lat="48.67874" lon="6.11421">
        <ele>342</ele>
        <time>2012-03-25T14:26:01Z</time>
      </trkpt>
      <trkpt lat="48.67877" lon="6.11411">
        <ele>340</ele>
        <time>2012-03-25T14:26:03Z</time>
      </trkpt>
      <trkpt lat="48.67879" lon="6.11401">
        <ele>338</ele>
        <time>2012-03-25T14:26:05Z</time>
      </trkpt>
      <trkpt lat="48.67882" lon="6.11391">
        <ele>336</ele>
        <time>2012-03-25T14:26:07Z</time>
      </trkpt>
      <trkpt lat="48.67882" lon="6.11383">
        <ele>332</ele>
        <time>2012-03-25T14:26:09Z</time>
      </trkpt>
      <trkpt lat="48.67883" lon="6.11374">
        <ele>335</ele>
        <time>2012-03-25T14:26:11Z</time>
      </trkpt>
      <trkpt lat="48.67882" lon="6.11365">
        <ele>336</ele>
        <time>2012-03-25T14:26:13Z</time>
      </trkpt>
      <trkpt lat="48.67882" lon="6.11356">
        <ele>336</ele>
        <time>2012-03-25T14:26:15Z</time>
      </trkpt>
      <trkpt lat="48.67881" lon="6.11348">
        <ele>333</ele>
        <time>2012-03-25T14:26:17Z</time>
      </trkpt>
      <trkpt lat="48.67882" lon="6.1134">
        <ele>336</ele>
        <time>2012-03-25T14:26:19Z</time>
      </trkpt>
      <trkpt lat="48.67883" lon="6.11332">
        <ele>334</ele>
        <time>2012-03-25T14:26:21Z</time>
      </trkpt>
      <trkpt lat="48.67883" lon="6.11322">
        <ele>332</ele>
        <time>2012-03-25T14:26:23Z</time>
      </trkpt>
      <trkpt lat="48.67883" lon="6.11312">
        <ele>334</ele>
        <time>2012-03-25T14:26:25Z</time>
      </trkpt>
      <trkpt lat="48.67884" lon="6.11303">
        <ele>335</ele>
        <time>2012-03-25T14:26:27Z</time>
      </trkpt>
      <trkpt lat="48.67884" lon="6.11295">
        <ele>330</ele>
        <time>2012-03-25T14:26:29Z</time>
      </trkpt>
      <trkpt lat="48.67885" lon="6.11287">
        <ele>332</ele>
        <time>2012-03-25T14:26:31Z</time>
      </trkpt>
      <trkpt lat="48.67886" lon="6.11279">
        <ele>335</ele>
        <time>2012-03-25T14:26:33Z</time>
      </trkpt>
      <trkpt lat="48.67884" lon="6.11271">
        <ele>336</ele>
        <time>2012-03-25T14:26:35Z</time>
      </trkpt>
      <trkpt lat="48.67884" lon="6.11264">
        <ele>335</ele>
        <time>2012-03-25T14:26:37Z</time>
      </trkpt>
      <trkpt lat="48.67883" lon="6.11257">
        <ele>333</ele>
        <time>2012-03-25T14:26:39Z</time>
      </trkpt>
      <trkpt lat="48.67884" lon="6.11249">
        <ele>333</ele>
        <time>2012-03-25T14:26:41Z</time>
      </trkpt>
      <trkpt lat="48.67885" lon="6.11241">
        <ele>337</ele>
        <time>2012-03-25T14:26:43Z</time>
      </trkpt>
      <trkpt lat="48.67883" lon="6.11235">
        <ele>333</ele>
        <time>2012-03-25T14:26:45Z</time>
      </trkpt>
      <trkpt lat="48.67882" lon="6.11229">
        <ele>340</ele>
        <time>2012-03-25T14:26:47Z</time>
      </trkpt>
      <trkpt lat="48.6788" lon="6.11222">
        <ele>341</ele>
        <time>2012-03-25T14:26:49Z</time>
      </trkpt>
      <trkpt lat="48.67878" lon="6.11214">
        <ele>339</ele>
        <time>2012-03-25T14:26:51Z</time>
      </trkpt>
      <trkpt lat="48.67876" lon="6.11208">
        <ele>338</ele>
        <time>2012-03-25T14:26:53Z</time>
      </trkpt>
      <trkpt lat="48.67874" lon="6.112">
        <ele>342</ele>
        <time>2012-03-25T14:26:55Z</time>
      </trkpt>
      <trkpt lat="48.67873" lon="6.11192">
        <ele>344</ele>
        <time>2012-03-25T14:26:57Z</time>
      </trkpt>
      <trkpt lat="48.67874" lon="6.11185">
        <ele>341</ele>
        <time>2012-03-25T14:26:59Z</time>
      </trkpt>
      <trkpt lat="48.67873" lon="6.11177">
        <ele>340</ele>
        <time>2012-03-25T14:27:01Z</time>
      </trkpt>
      <trkpt lat="48.67872" lon="6.1117">
        <ele>339</ele>
        <time>2012-03-25T14:27:03Z</time>
      </trkpt>
      <trkpt lat="48.6787" lon="6.11163">
        <ele>336</ele>
        <time>2012-03-25T14:27:05Z</time>
      </trkpt>
      <trkpt lat="48.6787" lon="6.11155">
        <ele>336</ele>
        <time>2012-03-25T14:27:07Z</time>
      </trkpt>
      <trkpt lat="48.67869" lon="6.11147">
        <ele>337</ele>
        <time>2012-03-25T14:27:09Z</time>
      </trkpt>
      <trkpt lat="48.67868" lon="6.11139">
        <ele>339</ele>
        <time>2012-03-25T14:27:11Z</time>
      </trkpt>
      <trkpt lat="48.67868" lon="6.11131">
        <ele>338</ele>
        <time>2012-03-25T14:27:13Z</time>
      </trkpt>
      <trkpt lat="48.67867" lon="6.11123">
        <ele>337</ele>
        <time>2012-03-25T14:27:15Z</time>
      </trkpt>
      <trkpt lat="48.67867" lon="6.11117">
        <ele>335</ele>
        <time>2012-03-25T14:27:17Z</time>
      </trkpt>
      <trkpt lat="48.67866" lon="6.11109">
        <ele>340</ele>
        <time>2012-03-25T14:27:19Z</time>
      </trkpt>
      <trkpt lat="48.67865" lon="6.11103">
        <ele>339</ele>
        <time>2012-03-25T14:27:21Z</time>
      </trkpt>
      <trkpt lat="48.67865" lon="6.11096">
        <ele>338</ele>
        <time>2012-03-25T14:27:23Z</time>
      </trkpt>
      <trkpt lat="48.67865" lon="6.1109">
        <ele>339</ele>
        <time>2012-03-25T14:27:25Z</time>
      </trkpt>
      <trkpt lat="48.67864" lon="6.11083">
        <ele>340</ele>
        <time>2012-03-25T14:27:27Z</time>
      </trkpt>
      <trkpt lat="48.67864" lon="6.11076">
        <ele>339</ele>
        <time>2012-03-25T14:27:29Z</time>
      </trkpt>
      <trkpt lat="48.67864" lon="6.11069">
        <ele>342</ele>
        <time>2012-03-25T14:27:31Z</time>
      </trkpt>
      <trkpt lat="48.67862" lon="6.11063">
        <ele>340</ele>
        <time>2012-03-25T14:27:33Z</time>
      </trkpt>
      <trkpt lat="48.67862" lon="6.11055">
        <ele>341</ele>
        <time>2012-03-25T14:27:35Z</time>
      </trkpt>
      <trkpt lat="48.67862" lon="6.11049">
        <ele>344</ele>
        <time>2012-03-25T14:27:37Z</time>
      </trkpt>
      <trkpt lat="48.67862" lon="6.11042">
        <ele>347</ele>
        <time>2012-03-25T14:27:39Z</time>
      </trkpt>
      <trkpt lat="48.67862" lon="6.11035">
        <ele>347</ele>
        <time>2012-03-25T14:27:41Z</time>
      </trkpt>
      <trkpt lat="48.67862" lon="6.11028">
        <ele>349</ele>
        <time>2012-03-25T14:27:43Z</time>
      </trkpt>
      <trkpt lat="48.6786" lon="6.11022">
        <ele>350</ele>
        <time>2012-03-25T14:27:45Z</time>
      </trkpt>
      <trkpt lat="48.67857" lon="6.11017">
        <ele>347</ele>
        <time>2012-03-25T14:27:47Z</time>
      </trkpt>
      <trkpt lat="48.67854" lon="6.11013">
        <ele>349</ele>
        <time>2012-03-25T14:27:49Z</time>
      </trkpt>
      <trkpt lat="48.67854" lon="6.11006">
        <ele>344</ele>
        <time>2012-03-25T14:27:51Z</time>
      </trkpt>
      <trkpt lat="48.67854" lon="6.10997">
        <ele>344</ele>
        <time>2012-03-25T14:27:53Z</time>
      </trkpt>
      <trkpt lat="48.67855" lon="6.10985">
        <ele>342</ele>
        <time>2012-03-25T14:27:55Z</time>
      </trkpt>
      <trkpt lat="48.67853" lon="6.10978">
        <ele>344</ele>
        <time>2012-03-25T14:27:57Z</time>
      </trkpt>
      <trkpt lat="48.67852" lon="6.1097">
        <ele>348</ele>
        <time>2012-03-25T14:27:59Z</time>
      </trkpt>
      <trkpt lat="48.67851" lon="6.10957">
        <ele>350</ele>
        <time>2012-03-25T14:28:01Z</time>
      </trkpt>
      <trkpt lat="48.67849" lon="6.10946">
        <ele>350</ele>
        <time>2012-03-25T14:28:03Z</time>
      </trkpt>
      <trkpt lat="48.67848" lon="6.10934">
        <ele>349</ele>
        <time>2012-03-25T14:28:05Z</time>
      </trkpt>
      <trkpt lat="48.67847" lon="6.10924">
        <ele>349</ele>
        <time>2012-03-25T14:28:07Z</time>
      </trkpt>
      <trkpt lat="48.67846" lon="6.10915">
        <ele>347</ele>
        <time>2012-03-25T14:28:09Z</time>
      </trkpt>
      <trkpt lat="48.67845" lon="6.10905">
        <ele>345</ele>
        <time>2012-03-25T14:28:11Z</time>
      </trkpt>
      <trkpt lat="48.67843" lon="6.10896">
        <ele>346</ele>
        <time>2012-03-25T14:28:13Z</time>
      </trkpt>
      <trkpt lat="48.67842" lon="6.10886">
        <ele>345</ele>
        <time>2012-03-25T14:28:15Z</time>
      </trkpt>
      <trkpt lat="48.67841" lon="6.10876">
        <ele>347</ele>
        <time>2012-03-25T14:28:17Z</time>
      </trkpt>
      <trkpt lat="48.67838" lon="6.10858">
        <ele>347</ele>
        <time>2012-03-25T14:28:21Z</time>
      </trkpt>
      <trkpt lat="48.67836" lon="6.10845">
        <ele>347</ele>
        <time>2012-03-25T14:28:23Z</time>
      </trkpt>
      <trkpt lat="48.67835" lon="6.10833">
        <ele>346</ele>
        <time>2012-03-25T14:28:25Z</time>
      </trkpt>
      <trkpt lat="48.67833" lon="6.10822">
        <ele>344</ele>
        <time>2012-03-25T14:28:27Z</time>
      </trkpt>
      <trkpt lat="48.67832" lon="6.10812">
        <ele>342</ele>
        <time>2012-03-25T14:28:29Z</time>
      </trkpt>
      <trkpt lat="48.67831" lon="6.108">
        <ele>338</ele>
        <time>2012-03-25T14:28:31Z</time>
      </trkpt>
      <trkpt lat="48.67829" lon="6.10788">
        <ele>337</ele>
        <time>2012-03-25T14:28:33Z</time>
      </trkpt>
      <trkpt lat="48.67827" lon="6.10776">
        <ele>336</ele>
        <time>2012-03-25T14:28:35Z</time>
      </trkpt>
      <trkpt lat="48.67824" lon="6.10766">
        <ele>336</ele>
        <time>2012-03-25T14:28:37Z</time>
      </trkpt>
      <trkpt lat="48.67822" lon="6.10755">
        <ele>338</ele>
        <time>2012-03-25T14:28:39Z</time>
      </trkpt>
      <trkpt lat="48.67819" lon="6.10746">
        <ele>341</ele>
        <time>2012-03-25T14:28:41Z</time>
      </trkpt>
      <trkpt lat="48.67817" lon="6.10734">
        <ele>341</ele>
        <time>2012-03-25T14:28:43Z</time>
      </trkpt>
      <trkpt lat="48.67815" lon="6.1072">
        <ele>341</ele>
        <time>2012-03-25T14:28:45Z</time>
      </trkpt>
      <trkpt lat="48.67814" lon="6.10706">
        <ele>340</ele>
        <time>2012-03-25T14:28:47Z</time>
      </trkpt>
      <trkpt lat="48.67812" lon="6.10692">
        <ele>340</ele>
        <time>2012-03-25T14:28:49Z</time>
      </trkpt>
      <trkpt lat="48.67809" lon="6.10678">
        <ele>339</ele>
        <time>2012-03-25T14:28:51Z</time>
      </trkpt>
      <trkpt lat="48.67806" lon="6.10666">
        <ele>341</ele>
        <time>2012-03-25T14:28:53Z</time>
      </trkpt>
      <trkpt lat="48.67804" lon="6.10653">
        <ele>339</ele>
        <time>2012-03-25T14:28:55Z</time>
      </trkpt>
      <trkpt lat="48.67803" lon="6.10641">
        <ele>344</ele>
        <time>2012-03-25T14:28:57Z</time>
      </trkpt>
      <trkpt lat="48.67801" lon="6.10627">
        <ele>344</ele>
        <time>2012-03-25T14:28:59Z</time>
      </trkpt>
      <trkpt lat="48.67796" lon="6.10598">
        <ele>346</ele>
        <time>2012-03-25T14:29:03Z</time>
      </trkpt>
      <trkpt lat="48.67795" lon="6.10583">
        <ele>346</ele>
        <time>2012-03-25T14:29:05Z</time>
      </trkpt>
      <trkpt lat="48.67794" lon="6.10566">
        <ele>344</ele>
        <time>2012-03-25T14:29:07Z</time>
      </trkpt>
      <trkpt lat="48.67791" lon="6.1055">
        <ele>341</ele>
        <time>2012-03-25T14:29:09Z</time>
      </trkpt>
      <trkpt lat="48.6779" lon="6.10534">
        <ele>339</ele>
        <time>2012-03-25T14:29:11Z</time>
      </trkpt>
      <trkpt lat="48.67787" lon="6.10517">
        <ele>339</ele>
        <time>2012-03-25T14:29:13Z</time>
      </trkpt>
      <trkpt lat="48.67785" lon="6.10502">
        <ele>341</ele>
        <time>2012-03-25T14:29:15Z</time>
      </trkpt>
      <trkpt lat="48.67784" lon="6.10484">
        <ele>341</ele>
        <time>2012-03-25T14:29:17Z</time>
      </trkpt>
      <trkpt lat="48.67782" lon="6.10466">
        <ele>339</ele>
        <time>2012-03-25T14:29:19Z</time>
      </trkpt>
      <trkpt lat="48.67781" lon="6.10449">
        <ele>339</ele>
        <time>2012-03-25T14:29:21Z</time>
      </trkpt>
      <trkpt lat="48.67778" lon="6.10429">
        <ele>339</ele>
        <time>2012-03-25T14:29:23Z</time>
      </trkpt>
      <trkpt lat="48.67776" lon="6.10408">
        <ele>337</ele>
        <time>2012-03-25T14:29:25Z</time>
      </trkpt>
      <trkpt lat="48.67774" lon="6.10387">
        <ele>338</ele>
        <time>2012-03-25T14:29:27Z</time>
      </trkpt>
      <trkpt lat="48.67772" lon="6.10367">
        <ele>338</ele>
        <time>2012-03-25T14:29:29Z</time>
      </trkpt>
      <trkpt lat="48.6777" lon="6.10347">
        <ele>336</ele>
        <time>2012-03-25T14:29:31Z</time>
      </trkpt>
      <trkpt lat="48.67768" lon="6.10325">
        <ele>335</ele>
        <time>2012-03-25T14:29:33Z</time>
      </trkpt>
      <trkpt lat="48.67764" lon="6.10302">
        <ele>333</ele>
        <time>2012-03-25T14:29:35Z</time>
      </trkpt>
      <trkpt lat="48.67761" lon="6.10283">
        <ele>334</ele>
        <time>2012-03-25T14:29:37Z</time>
      </trkpt>
      <trkpt lat="48.67757" lon="6.10268">
        <ele>339</ele>
        <time>2012-03-25T14:29:39Z</time>
      </trkpt>
      <trkpt lat="48.67754" lon="6.10257">
        <ele>337</ele>
        <time>2012-03-25T14:29:41Z</time>
      </trkpt>
      <trkpt lat="48.67753" lon="6.10248">
        <ele>338</ele>
        <time>2012-03-25T14:29:43Z</time>
      </trkpt>
      <trkpt lat="48.67751" lon="6.1024">
        <ele>335</ele>
        <time>2012-03-25T14:29:45Z</time>
      </trkpt>
      <trkpt lat="48.67749" lon="6.10231">
        <ele>335</ele>
        <time>2012-03-25T14:29:47Z</time>
      </trkpt>
      <trkpt lat="48.67745" lon="6.10223">
        <ele>339</ele>
        <time>2012-03-25T14:29:49Z</time>
      </trkpt>
      <trkpt lat="48.67742" lon="6.10214">
        <ele>340</ele>
        <time>2012-03-25T14:29:51Z</time>
      </trkpt>
      <trkpt lat="48.6774" lon="6.10205">
        <ele>338</ele>
        <time>2012-03-25T14:29:53Z</time>
      </trkpt>
      <trkpt lat="48.6774" lon="6.10192">
        <ele>338</ele>
        <time>2012-03-25T14:29:55Z</time>
      </trkpt>
      <trkpt lat="48.67738" lon="6.10182">
        <ele>338</ele>
        <time>2012-03-25T14:29:57Z</time>
      </trkpt>
      <trkpt lat="48.67737" lon="6.1017">
        <ele>337</ele>
        <time>2012-03-25T14:29:59Z</time>
      </trkpt>
      <trkpt lat="48.67736" lon="6.1016">
        <ele>337</ele>
        <time>2012-03-25T14:30:01Z</time>
      </trkpt>
      <trkpt lat="48.67733" lon="6.1015">
        <ele>337</ele>
        <time>2012-03-25T14:30:03Z</time>
      </trkpt>
      <trkpt lat="48.67732" lon="6.10139">
        <ele>337</ele>
        <time>2012-03-25T14:30:05Z</time>
      </trkpt>
      <trkpt lat="48.6773" lon="6.10131">
        <ele>338</ele>
        <time>2012-03-25T14:30:07Z</time>
      </trkpt>
      <trkpt lat="48.67728" lon="6.1012">
        <ele>341</ele>
        <time>2012-03-25T14:30:09Z</time>
      </trkpt>
      <trkpt lat="48.67727" lon="6.10107">
        <ele>342</ele>
        <time>2012-03-25T14:30:11Z</time>
      </trkpt>
      <trkpt lat="48.67727" lon="6.10094">
        <ele>342</ele>
        <time>2012-03-25T14:30:13Z</time>
      </trkpt>
      <trkpt lat="48.67726" lon="6.10082">
        <ele>343</ele>
        <time>2012-03-25T14:30:15Z</time>
      </trkpt>
      <trkpt lat="48.67724" lon="6.10068">
        <ele>342</ele>
        <time>2012-03-25T14:30:17Z</time>
      </trkpt>
      <trkpt lat="48.67723" lon="6.10055">
        <ele>341</ele>
        <time>2012-03-25T14:30:19Z</time>
      </trkpt>
      <trkpt lat="48.67722" lon="6.10043">
        <ele>340</ele>
        <time>2012-03-25T14:30:21Z</time>
      </trkpt>
      <trkpt lat="48.67722" lon="6.10032">
        <ele>345</ele>
        <time>2012-03-25T14:30:23Z</time>
      </trkpt>
      <trkpt lat="48.67722" lon="6.10022">
        <ele>342</ele>
        <time>2012-03-25T14:30:25Z</time>
      </trkpt>
      <trkpt lat="48.67722" lon="6.10013">
        <ele>343</ele>
        <time>2012-03-25T14:30:27Z</time>
      </trkpt>
      <trkpt lat="48.6772" lon="6.10003">
        <ele>344</ele>
        <time>2012-03-25T14:30:29Z</time>
      </trkpt>
      <trkpt lat="48.67717" lon="6.09992">
        <ele>346</ele>
        <time>2012-03-25T14:30:31Z</time>
      </trkpt>
      <trkpt lat="48.67716" lon="6.09981">
        <ele>344</ele>
        <time>2012-03-25T14:30:33Z</time>
      </trkpt>
      <trkpt lat="48.67714" lon="6.09971">
        <ele>344</ele>
        <time>2012-03-25T14:30:35Z</time>
      </trkpt>
      <trkpt lat="48.67712" lon="6.0996">
        <ele>344</ele>
        <time>2012-03-25T14:30:37Z</time>
      </trkpt>
      <trkpt lat="48.67709" lon="6.09949">
        <ele>343</ele>
        <time>2012-03-25T14:30:39Z</time>
      </trkpt>
      <trkpt lat="48.67708" lon="6.09936">
        <ele>345</ele>
        <time>2012-03-25T14:30:41Z</time>
      </trkpt>
      <trkpt lat="48.67706" lon="6.09924">
        <ele>346</ele>
        <time>2012-03-25T14:30:43Z</time>
      </trkpt>
      <trkpt lat="48.67705" lon="6.09913">
        <ele>343</ele>
        <time>2012-03-25T14:30:45Z</time>
      </trkpt>
      <trkpt lat="48.67702" lon="6.09903">
        <ele>344</ele>
        <time>2012-03-25T14:30:47Z</time>
      </trkpt>
      <trkpt lat="48.67701" lon="6.09894">
        <ele>348</ele>
        <time>2012-03-25T14:30:49Z</time>
      </trkpt>
      <trkpt lat="48.67699" lon="6.09885">
        <ele>349</ele>
        <time>2012-03-25T14:30:51Z</time>
      </trkpt>
      <trkpt lat="48.67698" lon="6.09874">
        <ele>349</ele>
        <time>2012-03-25T14:30:53Z</time>
      </trkpt>
      <trkpt lat="48.67696" lon="6.09864">
        <ele>352</ele>
        <time>2012-03-25T14:30:55Z</time>
      </trkpt>
      <trkpt lat="48.67694" lon="6.09855">
        <ele>351</ele>
        <time>2012-03-25T14:30:57Z</time>
      </trkpt>
      <trkpt lat="48.67694" lon="6.09845">
        <ele>352</ele>
        <time>2012-03-25T14:30:59Z</time>
      </trkpt>
      <trkpt lat="48.67693" lon="6.09837">
        <ele>354</ele>
        <time>2012-03-25T14:31:01Z</time>
      </trkpt>
      <trkpt lat="48.67693" lon="6.09827">
        <ele>357</ele>
        <time>2012-03-25T14:31:03Z</time>
      </trkpt>
      <trkpt lat="48.67693" lon="6.09817">
        <ele>361</ele>
        <time>2012-03-25T14:31:05Z</time>
      </trkpt>
      <trkpt lat="48.67697" lon="6.09804">
        <ele>363</ele>
        <time>2012-03-25T14:31:07Z</time>
      </trkpt>
      <trkpt lat="48.677" lon="6.09794">
        <ele>364</ele>
        <time>2012-03-25T14:31:09Z</time>
      </trkpt>
      <trkpt lat="48.677" lon="6.09784">
        <ele>369</ele>
        <time>2012-03-25T14:31:11Z</time>
      </trkpt>
      <trkpt lat="48.67699" lon="6.09774">
        <ele>364</ele>
        <time>2012-03-25T14:31:13Z</time>
      </trkpt>
      <trkpt lat="48.67699" lon="6.09763">
        <ele>365</ele>
        <time>2012-03-25T14:31:15Z</time>
      </trkpt>
      <trkpt lat="48.677" lon="6.0975">
        <ele>363</ele>
        <time>2012-03-25T14:31:17Z</time>
      </trkpt>
      <trkpt lat="48.67701" lon="6.09739">
        <ele>360</ele>
        <time>2012-03-25T14:31:19Z</time>
      </trkpt>
      <trkpt lat="48.67702" lon="6.09726">
        <ele>358</ele>
        <time>2012-03-25T14:31:21Z</time>
      </trkpt>
      <trkpt lat="48.67703" lon="6.09715">
        <ele>356</ele>
        <time>2012-03-25T14:31:23Z</time>
      </trkpt>
      <trkpt lat="48.67704" lon="6.09704">
        <ele>359</ele>
        <time>2012-03-25T14:31:25Z</time>
      </trkpt>
      <trkpt lat="48.67704" lon="6.09691">
        <ele>359</ele>
        <time>2012-03-25T14:31:27Z</time>
      </trkpt>
      <trkpt lat="48.67705" lon="6.09678">
        <ele>356</ele>
        <time>2012-03-25T14:31:29Z</time>
      </trkpt>
      <trkpt lat="48.67706" lon="6.09665">
        <ele>355</ele>
        <time>2012-03-25T14:31:31Z</time>
      </trkpt>
      <trkpt lat="48.67706" lon="6.09655">
        <ele>353</ele>
        <time>2012-03-25T14:31:33Z</time>
      </trkpt>
      <trkpt lat="48.67706" lon="6.09644">
        <ele>352</ele>
        <time>2012-03-25T14:31:35Z</time>
      </trkpt>
      <trkpt lat="48.67707" lon="6.09632">
        <ele>353</ele>
        <time>2012-03-25T14:31:37Z</time>
      </trkpt>
      <trkpt lat="48.67707" lon="6.09621">
        <ele>352</ele>
        <time>2012-03-25T14:31:39Z</time>
      </trkpt>
      <trkpt lat="48.67709" lon="6.09609">
        <ele>351</ele>
        <time>2012-03-25T14:31:41Z</time>
      </trkpt>
      <trkpt lat="48.6771" lon="6.09597">
        <ele>352</ele>
        <time>2012-03-25T14:31:43Z</time>
      </trkpt>
      <trkpt lat="48.67712" lon="6.09586">
        <ele>354</ele>
        <time>2012-03-25T14:31:45Z</time>
      </trkpt>
      <trkpt lat="48.67713" lon="6.09575">
        <ele>352</ele>
        <time>2012-03-25T14:31:47Z</time>
      </trkpt>
      <trkpt lat="48.67714" lon="6.09565">
        <ele>353</ele>
        <time>2012-03-25T14:31:49Z</time>
      </trkpt>
      <trkpt lat="48.67715" lon="6.09554">
        <ele>353</ele>
        <time>2012-03-25T14:31:51Z</time>
      </trkpt>
      <trkpt lat="48.67716" lon="6.09544">
        <ele>352</ele>
        <time>2012-03-25T14:31:53Z</time>
      </trkpt>
      <trkpt lat="48.67717" lon="6.09535">
        <ele>352</ele>
        <time>2012-03-25T14:31:55Z</time>
      </trkpt>
      <trkpt lat="48.67719" lon="6.09526">
        <ele>353</ele>
        <time>2012-03-25T14:31:57Z</time>
      </trkpt>
      <trkpt lat="48.6772" lon="6.09515">
        <ele>353</ele>
        <time>2012-03-25T14:31:59Z</time>
      </trkpt>
      <trkpt lat="48.67721" lon="6.09504">
        <ele>353</ele>
        <time>2012-03-25T14:32:01Z</time>
      </trkpt>
      <trkpt lat="48.67722" lon="6.09494">
        <ele>353</ele>
        <time>2012-03-25T14:32:03Z</time>
      </trkpt>
      <trkpt lat="48.67723" lon="6.09482">
        <ele>353</ele>
        <time>2012-03-25T14:32:05Z</time>
      </trkpt>
      <trkpt lat="48.67725" lon="6.09471">
        <ele>353</ele>
        <time>2012-03-25T14:32:07Z</time>
      </trkpt>
      <trkpt lat="48.67726" lon="6.09459">
        <ele>352</ele>
        <time>2012-03-25T14:32:09Z</time>
      </trkpt>
      <trkpt lat="48.67727" lon="6.09448">
        <ele>353</ele>
        <time>2012-03-25T14:32:11Z</time>
      </trkpt>
      <trkpt lat="48.67728" lon="6.09437">
        <ele>353</ele>
        <time>2012-03-25T14:32:13Z</time>
      </trkpt>
      <trkpt lat="48.67729" lon="6.09426">
        <ele>352</ele>
        <time>2012-03-25T14:32:15Z</time>
      </trkpt>
      <trkpt lat="48.6773" lon="6.09414">
        <ele>353</ele>
        <time>2012-03-25T14:32:17Z</time>
      </trkpt>
      <trkpt lat="48.67731" lon="6.09403">
        <ele>355</ele>
        <time>2012-03-25T14:32:19Z</time>
      </trkpt>
      <trkpt lat="48.67732" lon="6.0939">
        <ele>355</ele>
        <time>2012-03-25T14:32:21Z</time>
      </trkpt>
      <trkpt lat="48.67733" lon="6.09379">
        <ele>356</ele>
        <time>2012-03-25T14:32:23Z</time>
      </trkpt>
      <trkpt lat="48.67733" lon="6.09367">
        <ele>354</ele>
        <time>2012-03-25T14:32:25Z</time>
      </trkpt>
      <trkpt lat="48.67736" lon="6.09353">
        <ele>354</ele>
        <time>2012-03-25T14:32:27Z</time>
      </trkpt>
      <trkpt lat="48.67737" lon="6.09338">
        <ele>352</ele>
        <time>2012-03-25T14:32:29Z</time>
      </trkpt>
      <trkpt lat="48.67738" lon="6.09322">
        <ele>352</ele>
        <time>2012-03-25T14:32:31Z</time>
      </trkpt>
      <trkpt lat="48.67739" lon="6.09309">
        <ele>353</ele>
        <time>2012-03-25T14:32:33Z</time>
      </trkpt>
      <trkpt lat="48.6774" lon="6.09298">
        <ele>354</ele>
        <time>2012-03-25T14:32:35Z</time>
      </trkpt>
      <trkpt lat="48.67741" lon="6.09288">
        <ele>354</ele>
        <time>2012-03-25T14:32:37Z</time>
      </trkpt>
      <trkpt lat="48.67743" lon="6.09276">
        <ele>352</ele>
        <time>2012-03-25T14:32:39Z</time>
      </trkpt>
      <trkpt lat="48.67744" lon="6.09263">
        <ele>352</ele>
        <time>2012-03-25T14:32:41Z</time>
      </trkpt>
      <trkpt lat="48.67745" lon="6.09252">
        <ele>352</ele>
        <time>2012-03-25T14:32:43Z</time>
      </trkpt>
      <trkpt lat="48.67746" lon="6.09242">
        <ele>352</ele>
        <time>2012-03-25T14:32:45Z</time>
      </trkpt>
      <trkpt lat="48.67746" lon="6.09231">
        <ele>352</ele>
        <time>2012-03-25T14:32:47Z</time>
      </trkpt>
      <trkpt lat="48.67747" lon="6.09226">
        <ele>351</ele>
        <time>2012-03-25T14:32:48Z</time>
      </trkpt>
      <trkpt lat="48.67747" lon="6.0922">
        <ele>351</ele>
        <time>2012-03-25T14:32:49Z</time>
      </trkpt>
      <trkpt lat="48.67747" lon="6.09211">
        <ele>352</ele>
        <time>2012-03-25T14:32:51Z</time>
      </trkpt>
      <trkpt lat="48.67748" lon="6.09198">
        <ele>352</ele>
        <time>2012-03-25T14:32:53Z</time>
      </trkpt>
      <trkpt lat="48.67748" lon="6.09187">
        <ele>349</ele>
        <time>2012-03-25T14:32:55Z</time>
      </trkpt>
      <trkpt lat="48.67749" lon="6.09173">
        <ele>350</ele>
        <time>2012-03-25T14:32:57Z</time>
      </trkpt>
      <trkpt lat="48.6775" lon="6.09159">
        <ele>350</ele>
        <time>2012-03-25T14:32:59Z</time>
      </trkpt>
      <trkpt lat="48.67751" lon="6.09145">
        <ele>349</ele>
        <time>2012-03-25T14:33:01Z</time>
      </trkpt>
      <trkpt lat="48.67753" lon="6.0913">
        <ele>349</ele>
        <time>2012-03-25T14:33:03Z</time>
      </trkpt>
      <trkpt lat="48.67754" lon="6.09116">
        <ele>349</ele>
        <time>2012-03-25T14:33:05Z</time>
      </trkpt>
      <trkpt lat="48.67756" lon="6.09101">
        <ele>349</ele>
        <time>2012-03-25T14:33:07Z</time>
      </trkpt>
      <trkpt lat="48.67756" lon="6.09084">
        <ele>348</ele>
        <time>2012-03-25T14:33:09Z</time>
      </trkpt>
      <trkpt lat="48.67757" lon="6.09068">
        <ele>349</ele>
        <time>2012-03-25T14:33:11Z</time>
      </trkpt>
      <trkpt lat="48.67758" lon="6.09052">
        <ele>348</ele>
        <time>2012-03-25T14:33:13Z</time>
      </trkpt>
      <trkpt lat="48.67761" lon="6.09033">
        <ele>349</ele>
        <time>2012-03-25T14:33:15Z</time>
      </trkpt>
      <trkpt lat="48.67761" lon="6.09013">
        <ele>349</ele>
        <time>2012-03-25T14:33:17Z</time>
      </trkpt>
      <trkpt lat="48.6776" lon="6.08994">
        <ele>348</ele>
        <time>2012-03-25T14:33:19Z</time>
      </trkpt>
      <trkpt lat="48.67756" lon="6.08978">
        <ele>348</ele>
        <time>2012-03-25T14:33:21Z</time>
      </trkpt>
      <trkpt lat="48.67748" lon="6.08969">
        <ele>346</ele>
        <time>2012-03-25T14:33:23Z</time>
      </trkpt>
      <trkpt lat="48.67742" lon="6.08961">
        <ele>347</ele>
        <time>2012-03-25T14:33:25Z</time>
      </trkpt>
      <trkpt lat="48.67734" lon="6.08952">
        <ele>346</ele>
        <time>2012-03-25T14:33:27Z</time>
      </trkpt>
      <trkpt lat="48.67727" lon="6.08943">
        <ele>345</ele>
        <time>2012-03-25T14:33:29Z</time>
      </trkpt>
      <trkpt lat="48.6772" lon="6.08937">
        <ele>349</ele>
        <time>2012-03-25T14:33:31Z</time>
      </trkpt>
      <trkpt lat="48.67712" lon="6.08929">
        <ele>346</ele>
        <time>2012-03-25T14:33:33Z</time>
      </trkpt>
      <trkpt lat="48.67703" lon="6.0892">
        <ele>348</ele>
        <time>2012-03-25T14:33:35Z</time>
      </trkpt>
      <trkpt lat="48.67695" lon="6.08913">
        <ele>350</ele>
        <time>2012-03-25T14:33:37Z</time>
      </trkpt>
      <trkpt lat="48.67688" lon="6.08907">
        <ele>354</ele>
        <time>2012-03-25T14:33:39Z</time>
      </trkpt>
      <trkpt lat="48.67679" lon="6.08901">
        <ele>355</ele>
        <time>2012-03-25T14:33:41Z</time>
      </trkpt>
      <trkpt lat="48.67671" lon="6.08892">
        <ele>357</ele>
        <time>2012-03-25T14:33:43Z</time>
      </trkpt>
      <trkpt lat="48.67662" lon="6.08884">
        <ele>359</ele>
        <time>2012-03-25T14:33:45Z</time>
      </trkpt>
      <trkpt lat="48.67652" lon="6.08874">
        <ele>355</ele>
        <time>2012-03-25T14:33:47Z</time>
      </trkpt>
      <trkpt lat="48.67639" lon="6.08865">
        <ele>350</ele>
        <time>2012-03-25T14:33:49Z</time>
      </trkpt>
      <trkpt lat="48.67625" lon="6.0886">
        <ele>354</ele>
        <time>2012-03-25T14:33:51Z</time>
      </trkpt>
      <trkpt lat="48.67607" lon="6.08856">
        <ele>352</ele>
        <time>2012-03-25T14:33:53Z</time>
      </trkpt>
      <trkpt lat="48.67588" lon="6.08851">
        <ele>357</ele>
        <time>2012-03-25T14:33:55Z</time>
      </trkpt>
      <trkpt lat="48.67566" lon="6.08844">
        <ele>356</ele>
        <time>2012-03-25T14:33:57Z</time>
      </trkpt>
      <trkpt lat="48.67545" lon="6.08835">
        <ele>357</ele>
        <time>2012-03-25T14:33:59Z</time>
      </trkpt>
      <trkpt lat="48.67522" lon="6.08824">
        <ele>358</ele>
        <time>2012-03-25T14:34:01Z</time>
      </trkpt>
      <trkpt lat="48.67499" lon="6.08813">
        <ele>360</ele>
        <time>2012-03-25T14:34:03Z</time>
      </trkpt>
      <trkpt lat="48.67471" lon="6.08811">
        <ele>360</ele>
        <time>2012-03-25T14:34:05Z</time>
      </trkpt>
      <trkpt lat="48.67444" lon="6.0881">
        <ele>360</ele>
        <time>2012-03-25T14:34:07Z</time>
      </trkpt>
      <trkpt lat="48.67418" lon="6.08818">
        <ele>355</ele>
        <time>2012-03-25T14:34:09Z</time>
      </trkpt>
      <trkpt lat="48.67395" lon="6.08828">
        <ele>356</ele>
        <time>2012-03-25T14:34:11Z</time>
      </trkpt>
      <trkpt lat="48.67378" lon="6.0883">
        <ele>357</ele>
        <time>2012-03-25T14:34:13Z</time>
      </trkpt>
      <trkpt lat="48.67351" lon="6.08828">
        <ele>362</ele>
        <time>2012-03-25T14:34:17Z</time>
      </trkpt>
      <trkpt lat="48.67344" lon="6.08808">
        <ele>348</ele>
        <time>2012-03-25T14:34:19Z</time>
      </trkpt>
      <trkpt lat="48.67341" lon="6.08787">
        <ele>343</ele>
        <time>2012-03-25T14:34:21Z</time>
      </trkpt>
      <trkpt lat="48.67338" lon="6.0877">
        <ele>337</ele>
        <time>2012-03-25T14:34:23Z</time>
      </trkpt>
      <trkpt lat="48.67336" lon="6.08753">
        <ele>331</ele>
        <time>2012-03-25T14:34:25Z</time>
      </trkpt>
      <trkpt lat="48.67336" lon="6.08737">
        <ele>332</ele>
        <time>2012-03-25T14:34:27Z</time>
      </trkpt>
      <trkpt lat="48.67337" lon="6.08721">
        <ele>337</ele>
        <time>2012-03-25T14:34:29Z</time>
      </trkpt>
      <trkpt lat="48.67336" lon="6.0869">
        <ele>338</ele>
        <time>2012-03-25T14:34:37Z</time>
      </trkpt>
      <trkpt lat="48.67332" lon="6.08684">
        <ele>343</ele>
        <time>2012-03-25T14:34:39Z</time>
      </trkpt>
      <trkpt lat="48.67324" lon="6.08673">
        <ele>348</ele>
        <time>2012-03-25T14:34:45Z</time>
      </trkpt>
      <trkpt lat="48.67318" lon="6.08663">
        <ele>358</ele>
        <time>2012-03-25T14:34:51Z</time>
      </trkpt>
      <trkpt lat="48.67301" lon="6.08647">
        <ele>359</ele>
        <time>2012-03-25T14:34:59Z</time>
      </trkpt>
      <trkpt lat="48.67296" lon="6.08643">
        <ele>356</ele>
        <time>2012-03-25T14:35:01Z</time>
      </trkpt>
      <trkpt lat="48.6729" lon="6.08638">
        <ele>358</ele>
        <time>2012-03-25T14:35:03Z</time>
      </trkpt>
      <trkpt lat="48.67284" lon="6.08634">
        <ele>355</ele>
        <time>2012-03-25T14:35:05Z</time>
      </trkpt>
      <trkpt lat="48.67277" lon="6.08626">
        <ele>359</ele>
        <time>2012-03-25T14:35:09Z</time>
      </trkpt>
      <trkpt lat="48.67268" lon="6.08615">
        <ele>364</ele>
        <time>2012-03-25T14:35:13Z</time>
      </trkpt>
      <trkpt lat="48.6725" lon="6.08578">
        <ele>375</ele>
        <time>2012-03-25T14:35:29Z</time>
      </trkpt>
      <trkpt lat="48.67243" lon="6.08568">
        <ele>371</ele>
        <time>2012-03-25T14:35:33Z</time>
      </trkpt>
      <trkpt lat="48.67236" lon="6.08557">
        <ele>381</ele>
        <time>2012-03-25T14:35:37Z</time>
      </trkpt>
      <trkpt lat="48.67229" lon="6.08546">
        <ele>377</ele>
        <time>2012-03-25T14:35:41Z</time>
      </trkpt>
      <trkpt lat="48.6722" lon="6.08531">
        <ele>379</ele>
        <time>2012-03-25T14:35:45Z</time>
      </trkpt>
      <trkpt lat="48.67212" lon="6.08521">
        <ele>378</ele>
        <time>2012-03-25T14:35:49Z</time>
      </trkpt>
      <trkpt lat="48.67205" lon="6.08511">
        <ele>372</ele>
        <time>2012-03-25T14:35:53Z</time>
      </trkpt>
      <trkpt lat="48.67191" lon="6.0847">
        <ele>377</ele>
        <time>2012-03-25T14:36:07Z</time>
      </trkpt>
      <trkpt lat="48.67188" lon="6.08463">
        <ele>382</ele>
        <time>2012-03-25T14:36:09Z</time>
      </trkpt>
      <trkpt lat="48.67178" lon="6.08436">
        <ele>383</ele>
        <time>2012-03-25T14:36:21Z</time>
      </trkpt>
      <trkpt lat="48.67152" lon="6.08414">
        <ele>382</ele>
        <time>2012-03-25T14:36:33Z</time>
      </trkpt>
      <trkpt lat="48.67145" lon="6.08407">
        <ele>388</ele>
        <time>2012-03-25T14:36:37Z</time>
      </trkpt>
      <trkpt lat="48.67136" lon="6.08396">
        <ele>381</ele>
        <time>2012-03-25T14:36:41Z</time>
      </trkpt>
      <trkpt lat="48.67131" lon="6.08391">
        <ele>379</ele>
        <time>2012-03-25T14:36:43Z</time>
      </trkpt>
      <trkpt lat="48.67127" lon="6.08387">
        <ele>378</ele>
        <time>2012-03-25T14:36:45Z</time>
      </trkpt>
      <trkpt lat="48.67123" lon="6.08382">
        <ele>381</ele>
        <time>2012-03-25T14:36:47Z</time>
      </trkpt>
      <trkpt lat="48.67116" lon="6.08373">
        <ele>380</ele>
        <time>2012-03-25T14:36:51Z</time>
      </trkpt>
      <trkpt lat="48.67109" lon="6.08366">
        <ele>381</ele>
        <time>2012-03-25T14:36:55Z</time>
      </trkpt>
      <trkpt lat="48.671" lon="6.08357">
        <ele>382</ele>
        <time>2012-03-25T14:37:01Z</time>
      </trkpt>
      <trkpt lat="48.67093" lon="6.08351">
        <ele>382</ele>
        <time>2012-03-25T14:37:05Z</time>
      </trkpt>
      <trkpt lat="48.67089" lon="6.08348">
        <ele>383</ele>
        <time>2012-03-25T14:37:07Z</time>
      </trkpt>
      <trkpt lat="48.6708" lon="6.0834">
        <ele>385</ele>
        <time>2012-03-25T14:37:11Z</time>
      </trkpt>
      <trkpt lat="48.67076" lon="6.08335">
        <ele>388</ele>
        <time>2012-03-25T14:37:13Z</time>
      </trkpt>
      <trkpt lat="48.67055" lon="6.08315">
        <ele>385</ele>
        <time>2012-03-25T14:37:23Z</time>
      </trkpt>
      <trkpt lat="48.67047" lon="6.08308">
        <ele>382</ele>
        <time>2012-03-25T14:37:27Z</time>
      </trkpt>
      <trkpt lat="48.6703" lon="6.08291">
        <ele>387</ele>
        <time>2012-03-25T14:37:37Z</time>
      </trkpt>
      <trkpt lat="48.67025" lon="6.08288">
        <ele>390</ele>
        <time>2012-03-25T14:37:39Z</time>
      </trkpt>
      <trkpt lat="48.67017" lon="6.08279">
        <ele>391</ele>
        <time>2012-03-25T14:37:43Z</time>
      </trkpt>
      <trkpt lat="48.67011" lon="6.0827">
        <ele>389</ele>
        <time>2012-03-25T14:37:47Z</time>
      </trkpt>
      <trkpt lat="48.67007" lon="6.08267">
        <ele>388</ele>
        <time>2012-03-25T14:37:49Z</time>
      </trkpt>
      <trkpt lat="48.66999" lon="6.0826">
        <ele>392</ele>
        <time>2012-03-25T14:37:53Z</time>
      </trkpt>
      <trkpt lat="48.66995" lon="6.08256">
        <ele>392</ele>
        <time>2012-03-25T14:37:55Z</time>
      </trkpt>
      <trkpt lat="48.66987" lon="6.08251">
        <ele>391</ele>
        <time>2012-03-25T14:37:59Z</time>
      </trkpt>
      <trkpt lat="48.6698" lon="6.08248">
        <ele>396</ele>
        <time>2012-03-25T14:38:01Z</time>
      </trkpt>
      <trkpt lat="48.6697" lon="6.08241">
        <ele>394</ele>
        <time>2012-03-25T14:38:05Z</time>
      </trkpt>
      <trkpt lat="48.66927" lon="6.082">
        <ele>393</ele>
        <time>2012-03-25T14:38:25Z</time>
      </trkpt>
      <trkpt lat="48.66922" lon="6.08195">
        <ele>392</ele>
        <time>2012-03-25T14:38:27Z</time>
      </trkpt>
      <trkpt lat="48.66917" lon="6.08189">
        <ele>387</ele>
        <time>2012-03-25T14:38:29Z</time>
      </trkpt>
      <trkpt lat="48.66909" lon="6.0818">
        <ele>394</ele>
        <time>2012-03-25T14:38:33Z</time>
      </trkpt>
      <trkpt lat="48.66899" lon="6.0817">
        <ele>396</ele>
        <time>2012-03-25T14:38:37Z</time>
      </trkpt>
      <trkpt lat="48.66894" lon="6.08165">
        <ele>393</ele>
        <time>2012-03-25T14:38:39Z</time>
      </trkpt>
      <trkpt lat="48.66889" lon="6.08161">
        <ele>395</ele>
        <time>2012-03-25T14:38:41Z</time>
      </trkpt>
      <trkpt lat="48.66884" lon="6.08158">
        <ele>399</ele>
        <time>2012-03-25T14:38:43Z</time>
      </trkpt>
      <trkpt lat="48.66879" lon="6.08155">
        <ele>395</ele>
        <time>2012-03-25T14:38:45Z</time>
      </trkpt>
      <trkpt lat="48.66874" lon="6.08153">
        <ele>399</ele>
        <time>2012-03-25T14:38:47Z</time>
      </trkpt>
      <trkpt lat="48.66861" lon="6.08143">
        <ele>398</ele>
        <time>2012-03-25T14:38:53Z</time>
      </trkpt>
      <trkpt lat="48.66855" lon="6.08138">
        <ele>397</ele>
        <time>2012-03-25T14:38:55Z</time>
      </trkpt>
      <trkpt lat="48.66848" lon="6.08132">
        <ele>401</ele>
        <time>2012-03-25T14:38:57Z</time>
      </trkpt>
      <trkpt lat="48.66842" lon="6.08127">
        <ele>402</ele>
        <time>2012-03-25T14:38:59Z</time>
      </trkpt>
      <trkpt lat="48.66837" lon="6.08122">
        <ele>407</ele>
        <time>2012-03-25T14:39:01Z</time>
      </trkpt>
      <trkpt lat="48.66832" lon="6.08116">
        <ele>403</ele>
        <time>2012-03-25T14:39:03Z</time>
      </trkpt>
      <trkpt lat="48.66826" lon="6.08111">
        <ele>403</ele>
        <time>2012-03-25T14:39:05Z</time>
      </trkpt>
      <trkpt lat="48.6682" lon="6.08106">
        <ele>402</ele>
        <time>2012-03-25T14:39:07Z</time>
      </trkpt>
      <trkpt lat="48.66814" lon="6.081">
        <ele>401</ele>
        <time>2012-03-25T14:39:09Z</time>
      </trkpt>
      <trkpt lat="48.66809" lon="6.08095">
        <ele>396</ele>
        <time>2012-03-25T14:39:11Z</time>
      </trkpt>
      <trkpt lat="48.66803" lon="6.0809">
        <ele>401</ele>
        <time>2012-03-25T14:39:13Z</time>
      </trkpt>
      <trkpt lat="48.66798" lon="6.08085">
        <ele>396</ele>
        <time>2012-03-25T14:39:15Z</time>
      </trkpt>
      <trkpt lat="48.66792" lon="6.08082">
        <ele>401</ele>
        <time>2012-03-25T14:39:17Z</time>
      </trkpt>
      <trkpt lat="48.66786" lon="6.08078">
        <ele>399</ele>
        <time>2012-03-25T14:39:19Z</time>
      </trkpt>
      <trkpt lat="48.66776" lon="6.08064">
        <ele>400</ele>
        <time>2012-03-25T14:39:23Z</time>
      </trkpt>
      <trkpt lat="48.66771" lon="6.08058">
        <ele>401</ele>
        <time>2012-03-25T14:39:25Z</time>
      </trkpt>
      <trkpt lat="48.66767" lon="6.0805">
        <ele>401</ele>
        <time>2012-03-25T14:39:27Z</time>
      </trkpt>
      <trkpt lat="48.66764" lon="6.08041">
        <ele>400</ele>
        <time>2012-03-25T14:39:29Z</time>
      </trkpt>
      <trkpt lat="48.66758" lon="6.08035">
        <ele>395</ele>
        <time>2012-03-25T14:39:31Z</time>
      </trkpt>
      <trkpt lat="48.66748" lon="6.0803">
        <ele>388</ele>
        <time>2012-03-25T14:39:33Z</time>
      </trkpt>
      <trkpt lat="48.66739" lon="6.08034">
        <ele>384</ele>
        <time>2012-03-25T14:39:35Z</time>
      </trkpt>
      <trkpt lat="48.66736" lon="6.0804">
        <ele>385</ele>
        <time>2012-03-25T14:39:37Z</time>
      </trkpt>
      <trkpt lat="48.66736" lon="6.08047">
        <ele>386</ele>
        <time>2012-03-25T14:39:39Z</time>
      </trkpt>
      <trkpt lat="48.66735" lon="6.08057">
        <ele>383</ele>
        <time>2012-03-25T14:39:41Z</time>
      </trkpt>
      <trkpt lat="48.66734" lon="6.0807">
        <ele>380</ele>
        <time>2012-03-25T14:39:43Z</time>
      </trkpt>
      <trkpt lat="48.66734" lon="6.08083">
        <ele>384</ele>
        <time>2012-03-25T14:39:45Z</time>
      </trkpt>
      <trkpt lat="48.66733" lon="6.08097">
        <ele>381</ele>
        <time>2012-03-25T14:39:47Z</time>
      </trkpt>
      <trkpt lat="48.66734" lon="6.08111">
        <ele>381</ele>
        <time>2012-03-25T14:39:49Z</time>
      </trkpt>
      <trkpt lat="48.66736" lon="6.08124">
        <ele>384</ele>
        <time>2012-03-25T14:39:51Z</time>
      </trkpt>
      <trkpt lat="48.66737" lon="6.08139">
        <ele>387</ele>
        <time>2012-03-25T14:39:53Z</time>
      </trkpt>
      <trkpt lat="48.66739" lon="6.08155">
        <ele>388</ele>
        <time>2012-03-25T14:39:55Z</time>
      </trkpt>
      <trkpt lat="48.6674" lon="6.08171">
        <ele>389</ele>
        <time>2012-03-25T14:39:57Z</time>
      </trkpt>
      <trkpt lat="48.6674" lon="6.08187">
        <ele>389</ele>
        <time>2012-03-25T14:39:59Z</time>
      </trkpt>
      <trkpt lat="48.66741" lon="6.08204">
        <ele>392</ele>
        <time>2012-03-25T14:40:01Z</time>
      </trkpt>
      <trkpt lat="48.66742" lon="6.08224">
        <ele>388</ele>
        <time>2012-03-25T14:40:03Z</time>
      </trkpt>
      <trkpt lat="48.66743" lon="6.08246">
        <ele>392</ele>
        <time>2012-03-25T14:40:05Z</time>
      </trkpt>
      <trkpt lat="48.66743" lon="6.0827">
        <ele>391</ele>
        <time>2012-03-25T14:40:07Z</time>
      </trkpt>
      <trkpt lat="48.66744" lon="6.08295">
        <ele>390</ele>
        <time>2012-03-25T14:40:09Z</time>
      </trkpt>
      <trkpt lat="48.66744" lon="6.08321">
        <ele>392</ele>
        <time>2012-03-25T14:40:11Z</time>
      </trkpt>
      <trkpt lat="48.66744" lon="6.08347">
        <ele>390</ele>
        <time>2012-03-25T14:40:13Z</time>
      </trkpt>
      <trkpt lat="48.66744" lon="6.08376">
        <ele>397</ele>
        <time>2012-03-25T14:40:15Z</time>
      </trkpt>
      <trkpt lat="48.66744" lon="6.08402">
        <ele>397</ele>
        <time>2012-03-25T14:40:17Z</time>
      </trkpt>
      <trkpt lat="48.66744" lon="6.08428">
        <ele>396</ele>
        <time>2012-03-25T14:40:19Z</time>
      </trkpt>
      <trkpt lat="48.66745" lon="6.08451">
        <ele>391</ele>
        <time>2012-03-25T14:40:21Z</time>
      </trkpt>
      <trkpt lat="48.66744" lon="6.08477">
        <ele>391</ele>
        <time>2012-03-25T14:40:23Z</time>
      </trkpt>
      <trkpt lat="48.66742" lon="6.08501">
        <ele>387</ele>
        <time>2012-03-25T14:40:25Z</time>
      </trkpt>
      <trkpt lat="48.66742" lon="6.08529">
        <ele>388</ele>
        <time>2012-03-25T14:40:27Z</time>
      </trkpt>
      <trkpt lat="48.66742" lon="6.08554">
        <ele>390</ele>
        <time>2012-03-25T14:40:29Z</time>
      </trkpt>
      <trkpt lat="48.66741" lon="6.08573">
        <ele>389</ele>
        <time>2012-03-25T14:40:31Z</time>
      </trkpt>
      <trkpt lat="48.66741" lon="6.08591">
        <ele>391</ele>
        <time>2012-03-25T14:40:33Z</time>
      </trkpt>
      <trkpt lat="48.66741" lon="6.08626">
        <ele>386</ele>
        <time>2012-03-25T14:40:37Z</time>
      </trkpt>
      <trkpt lat="48.66742" lon="6.08641">
        <ele>387</ele>
        <time>2012-03-25T14:40:39Z</time>
      </trkpt>
      <trkpt lat="48.66742" lon="6.08656">
        <ele>387</ele>
        <time>2012-03-25T14:40:41Z</time>
      </trkpt>
      <trkpt lat="48.66744" lon="6.08674">
        <ele>388</ele>
        <time>2012-03-25T14:40:43Z</time>
      </trkpt>
      <trkpt lat="48.66745" lon="6.0869">
        <ele>388</ele>
        <time>2012-03-25T14:40:45Z</time>
      </trkpt>
      <trkpt lat="48.66747" lon="6.08705">
        <ele>387</ele>
        <time>2012-03-25T14:40:47Z</time>
      </trkpt>
      <trkpt lat="48.66747" lon="6.0872">
        <ele>385</ele>
        <time>2012-03-25T14:40:49Z</time>
      </trkpt>
      <trkpt lat="48.66748" lon="6.08736">
        <ele>384</ele>
        <time>2012-03-25T14:40:51Z</time>
      </trkpt>
      <trkpt lat="48.66748" lon="6.08751">
        <ele>378</ele>
        <time>2012-03-25T14:40:53Z</time>
      </trkpt>
      <trkpt lat="48.6675" lon="6.08767">
        <ele>379</ele>
        <time>2012-03-25T14:40:55Z</time>
      </trkpt>
      <trkpt lat="48.66751" lon="6.08783">
        <ele>380</ele>
        <time>2012-03-25T14:40:57Z</time>
      </trkpt>
      <trkpt lat="48.66752" lon="6.08799">
        <ele>380</ele>
        <time>2012-03-25T14:40:59Z</time>
      </trkpt>
      <trkpt lat="48.66753" lon="6.08815">
        <ele>378</ele>
        <time>2012-03-25T14:41:01Z</time>
      </trkpt>
      <trkpt lat="48.66753" lon="6.08828">
        <ele>375</ele>
        <time>2012-03-25T14:41:03Z</time>
      </trkpt>
      <trkpt lat="48.66754" lon="6.0884">
        <ele>372</ele>
        <time>2012-03-25T14:41:05Z</time>
      </trkpt>
      <trkpt lat="48.66754" lon="6.08851">
        <ele>370</ele>
        <time>2012-03-25T14:41:07Z</time>
      </trkpt>
      <trkpt lat="48.66753" lon="6.08862">
        <ele>376</ele>
        <time>2012-03-25T14:41:09Z</time>
      </trkpt>
      <trkpt lat="48.66753" lon="6.08873">
        <ele>374</ele>
        <time>2012-03-25T14:41:11Z</time>
      </trkpt>
      <trkpt lat="48.66753" lon="6.08884">
        <ele>376</ele>
        <time>2012-03-25T14:41:13Z</time>
      </trkpt>
      <trkpt lat="48.66753" lon="6.08895">
        <ele>377</ele>
        <time>2012-03-25T14:41:15Z</time>
      </trkpt>
      <trkpt lat="48.6675" lon="6.08906">
        <ele>377</ele>
        <time>2012-03-25T14:41:17Z</time>
      </trkpt>
      <trkpt lat="48.66744" lon="6.08915">
        <ele>377</ele>
        <time>2012-03-25T14:41:19Z</time>
      </trkpt>
      <trkpt lat="48.66736" lon="6.08927">
        <ele>377</ele>
        <time>2012-03-25T14:41:21Z</time>
      </trkpt>
      <trkpt lat="48.66729" lon="6.08936">
        <ele>377</ele>
        <time>2012-03-25T14:41:23Z</time>
      </trkpt>
      <trkpt lat="48.66721" lon="6.08946">
        <ele>381</ele>
        <time>2012-03-25T14:41:25Z</time>
      </trkpt>
      <trkpt lat="48.6671" lon="6.08957">
        <ele>383</ele>
        <time>2012-03-25T14:41:27Z</time>
      </trkpt>
      <trkpt lat="48.66701" lon="6.08967">
        <ele>382</ele>
        <time>2012-03-25T14:41:29Z</time>
      </trkpt>
      <trkpt lat="48.66691" lon="6.08981">
        <ele>387</ele>
        <time>2012-03-25T14:41:31Z</time>
      </trkpt>
      <trkpt lat="48.66678" lon="6.09">
        <ele>376</ele>
        <time>2012-03-25T14:41:33Z</time>
      </trkpt>
      <trkpt lat="48.6667" lon="6.09019">
        <ele>377</ele>
        <time>2012-03-25T14:41:35Z</time>
      </trkpt>
      <trkpt lat="48.66668" lon="6.09041">
        <ele>375</ele>
        <time>2012-03-25T14:41:37Z</time>
      </trkpt>
      <trkpt lat="48.66671" lon="6.09064">
        <ele>376</ele>
        <time>2012-03-25T14:41:39Z</time>
      </trkpt>
      <trkpt lat="48.66678" lon="6.09086">
        <ele>367</ele>
        <time>2012-03-25T14:41:41Z</time>
      </trkpt>
      <trkpt lat="48.66686" lon="6.09099">
        <ele>368</ele>
        <time>2012-03-25T14:41:43Z</time>
      </trkpt>
      <trkpt lat="48.66692" lon="6.09115">
        <ele>362</ele>
        <time>2012-03-25T14:41:47Z</time>
      </trkpt>
      <trkpt lat="48.66697" lon="6.09117">
        <ele>357</ele>
        <time>2012-03-25T14:41:49Z</time>
      </trkpt>
      <trkpt lat="48.66702" lon="6.09121">
        <ele>361</ele>
        <time>2012-03-25T14:41:51Z</time>
      </trkpt>
      <trkpt lat="48.66708" lon="6.09124">
        <ele>358</ele>
        <time>2012-03-25T14:41:53Z</time>
      </trkpt>
      <trkpt lat="48.66713" lon="6.09127">
        <ele>352</ele>
        <time>2012-03-25T14:41:55Z</time>
      </trkpt>
      <trkpt lat="48.66723" lon="6.09133">
        <ele>349</ele>
        <time>2012-03-25T14:41:59Z</time>
      </trkpt>
      <trkpt lat="48.66728" lon="6.09133">
        <ele>350</ele>
        <time>2012-03-25T14:42:01Z</time>
      </trkpt>
      <trkpt lat="48.66734" lon="6.09134">
        <ele>348</ele>
        <time>2012-03-25T14:42:03Z</time>
      </trkpt>
      <trkpt lat="48.66739" lon="6.09133">
        <ele>351</ele>
        <time>2012-03-25T14:42:05Z</time>
      </trkpt>
      <trkpt lat="48.66744" lon="6.09134">
        <ele>348</ele>
        <time>2012-03-25T14:42:07Z</time>
      </trkpt>
      <trkpt lat="48.66749" lon="6.09134">
        <ele>345</ele>
        <time>2012-03-25T14:42:09Z</time>
      </trkpt>
      <trkpt lat="48.66753" lon="6.09134">
        <ele>342</ele>
        <time>2012-03-25T14:42:11Z</time>
      </trkpt>
      <trkpt lat="48.66758" lon="6.09135">
        <ele>344</ele>
        <time>2012-03-25T14:42:13Z</time>
      </trkpt>
      <trkpt lat="48.66763" lon="6.09136">
        <ele>345</ele>
        <time>2012-03-25T14:42:15Z</time>
      </trkpt>
      <trkpt lat="48.66768" lon="6.09136">
        <ele>345</ele>
        <time>2012-03-25T14:42:17Z</time>
      </trkpt>
      <trkpt lat="48.66772" lon="6.09137">
        <ele>345</ele>
        <time>2012-03-25T14:42:19Z</time>
      </trkpt>
      <trkpt lat="48.66777" lon="6.09137">
        <ele>346</ele>
        <time>2012-03-25T14:42:21Z</time>
      </trkpt>
      <trkpt lat="48.66782" lon="6.09138">
        <ele>349</ele>
        <time>2012-03-25T14:42:23Z</time>
      </trkpt>
      <trkpt lat="48.66788" lon="6.09137">
        <ele>355</ele>
        <time>2012-03-25T14:42:25Z</time>
      </trkpt>
      <trkpt lat="48.66792" lon="6.09137">
        <ele>355</ele>
        <time>2012-03-25T14:42:27Z</time>
      </trkpt>
      <trkpt lat="48.66796" lon="6.09137">
        <ele>352</ele>
        <time>2012-03-25T14:42:29Z</time>
      </trkpt>
      <trkpt lat="48.66801" lon="6.09137">
        <ele>351</ele>
        <time>2012-03-25T14:42:31Z</time>
      </trkpt>
      <trkpt lat="48.66806" lon="6.09136">
        <ele>352</ele>
        <time>2012-03-25T14:42:33Z</time>
      </trkpt>
      <trkpt lat="48.66809" lon="6.09139">
        <ele>350</ele>
        <time>2012-03-25T14:42:35Z</time>
      </trkpt>
      <trkpt lat="48.66812" lon="6.09141">
        <ele>356</ele>
        <time>2012-03-25T14:42:37Z</time>
      </trkpt>
      <trkpt lat="48.66815" lon="6.09145">
        <ele>362</ele>
        <time>2012-03-25T14:42:39Z</time>
      </trkpt>
      <trkpt lat="48.66819" lon="6.09149">
        <ele>362</ele>
        <time>2012-03-25T14:42:41Z</time>
      </trkpt>
      <trkpt lat="48.66821" lon="6.09153">
        <ele>367</ele>
        <time>2012-03-25T14:42:43Z</time>
      </trkpt>
      <trkpt lat="48.66824" lon="6.09157">
        <ele>368</ele>
        <time>2012-03-25T14:42:45Z</time>
      </trkpt>
      <trkpt lat="48.66826" lon="6.09161">
        <ele>366</ele>
        <time>2012-03-25T14:42:47Z</time>
      </trkpt>
      <trkpt lat="48.66826" lon="6.09166">
        <ele>364</ele>
        <time>2012-03-25T14:42:49Z</time>
      </trkpt>
      <trkpt lat="48.66827" lon="6.09171">
        <ele>365</ele>
        <time>2012-03-25T14:42:51Z</time>
      </trkpt>
      <trkpt lat="48.66828" lon="6.09177">
        <ele>365</ele>
        <time>2012-03-25T14:42:53Z</time>
      </trkpt>
      <trkpt lat="48.66828" lon="6.09182">
        <ele>368</ele>
        <time>2012-03-25T14:42:55Z</time>
      </trkpt>
      <trkpt lat="48.66827" lon="6.09188">
        <ele>372</ele>
        <time>2012-03-25T14:42:57Z</time>
      </trkpt>
      <trkpt lat="48.66827" lon="6.09193">
        <ele>372</ele>
        <time>2012-03-25T14:42:59Z</time>
      </trkpt>
      <trkpt lat="48.66825" lon="6.09198">
        <ele>373</ele>
        <time>2012-03-25T14:43:01Z</time>
      </trkpt>
      <trkpt lat="48.66822" lon="6.09203">
        <ele>372</ele>
        <time>2012-03-25T14:43:03Z</time>
      </trkpt>
      <trkpt lat="48.66819" lon="6.09208">
        <ele>371</ele>
        <time>2012-03-25T14:43:05Z</time>
      </trkpt>
      <trkpt lat="48.66816" lon="6.0921">
        <ele>373</ele>
        <time>2012-03-25T14:43:07Z</time>
      </trkpt>
      <trkpt lat="48.66814" lon="6.09215">
        <ele>374</ele>
        <time>2012-03-25T14:43:09Z</time>
      </trkpt>
      <trkpt lat="48.66812" lon="6.09218">
        <ele>375</ele>
        <time>2012-03-25T14:43:11Z</time>
      </trkpt>
      <trkpt lat="48.66809" lon="6.0922">
        <ele>376</ele>
        <time>2012-03-25T14:43:13Z</time>
      </trkpt>
      <trkpt lat="48.66806" lon="6.09224">
        <ele>380</ele>
        <time>2012-03-25T14:43:15Z</time>
      </trkpt>
      <trkpt lat="48.66803" lon="6.09227">
        <ele>382</ele>
        <time>2012-03-25T14:43:17Z</time>
      </trkpt>
      <trkpt lat="48.668" lon="6.09229">
        <ele>381</ele>
        <time>2012-03-25T14:43:19Z</time>
      </trkpt>
      <trkpt lat="48.66794" lon="6.09233">
        <ele>383</ele>
        <time>2012-03-25T14:43:21Z</time>
      </trkpt>
      <trkpt lat="48.6679" lon="6.09238">
        <ele>382</ele>
        <time>2012-03-25T14:43:23Z</time>
      </trkpt>
      <trkpt lat="48.66784" lon="6.09242">
        <ele>391</ele>
        <time>2012-03-25T14:43:25Z</time>
      </trkpt>
      <trkpt lat="48.66779" lon="6.09248">
        <ele>386</ele>
        <time>2012-03-25T14:43:27Z</time>
      </trkpt>
      <trkpt lat="48.66774" lon="6.09252">
        <ele>390</ele>
        <time>2012-03-25T14:43:29Z</time>
      </trkpt>
      <trkpt lat="48.66771" lon="6.09257">
        <ele>385</ele>
        <time>2012-03-25T14:43:31Z</time>
      </trkpt>
      <trkpt lat="48.66767" lon="6.09261">
        <ele>384</ele>
        <time>2012-03-25T14:43:33Z</time>
      </trkpt>
      <trkpt lat="48.66764" lon="6.09265">
        <ele>384</ele>
        <time>2012-03-25T14:43:35Z</time>
      </trkpt>
      <trkpt lat="48.6676" lon="6.09269">
        <ele>382</ele>
        <time>2012-03-25T14:43:37Z</time>
      </trkpt>
      <trkpt lat="48.66758" lon="6.09275">
        <ele>381</ele>
        <time>2012-03-25T14:43:39Z</time>
      </trkpt>
      <trkpt lat="48.66756" lon="6.0928">
        <ele>377</ele>
        <time>2012-03-25T14:43:41Z</time>
      </trkpt>
      <trkpt lat="48.66755" lon="6.09285">
        <ele>373</ele>
        <time>2012-03-25T14:43:43Z</time>
      </trkpt>
      <trkpt lat="48.66753" lon="6.0929">
        <ele>379</ele>
        <time>2012-03-25T14:43:45Z</time>
      </trkpt>
      <trkpt lat="48.66752" lon="6.09296">
        <ele>376</ele>
        <time>2012-03-25T14:43:47Z</time>
      </trkpt>
      <trkpt lat="48.66752" lon="6.09302">
        <ele>378</ele>
        <time>2012-03-25T14:43:49Z</time>
      </trkpt>
      <trkpt lat="48.66752" lon="6.09308">
        <ele>381</ele>
        <time>2012-03-25T14:43:51Z</time>
      </trkpt>
      <trkpt lat="48.66752" lon="6.09315">
        <ele>386</ele>
        <time>2012-03-25T14:43:53Z</time>
      </trkpt>
      <trkpt lat="48.66753" lon="6.09321">
        <ele>388</ele>
        <time>2012-03-25T14:43:55Z</time>
      </trkpt>
      <trkpt lat="48.66753" lon="6.09327">
        <ele>387</ele>
        <time>2012-03-25T14:43:57Z</time>
      </trkpt>
      <trkpt lat="48.66753" lon="6.09333">
        <ele>390</ele>
        <time>2012-03-25T14:43:59Z</time>
      </trkpt>
      <trkpt lat="48.66753" lon="6.09339">
        <ele>389</ele>
        <time>2012-03-25T14:44:01Z</time>
      </trkpt>
      <trkpt lat="48.66753" lon="6.09344">
        <ele>387</ele>
        <time>2012-03-25T14:44:03Z</time>
      </trkpt>
      <trkpt lat="48.66753" lon="6.0935">
        <ele>386</ele>
        <time>2012-03-25T14:44:05Z</time>
      </trkpt>
      <trkpt lat="48.66753" lon="6.09356">
        <ele>389</ele>
        <time>2012-03-25T14:44:07Z</time>
      </trkpt>
      <trkpt lat="48.66753" lon="6.09363">
        <ele>393</ele>
        <time>2012-03-25T14:44:09Z</time>
      </trkpt>
      <trkpt lat="48.66753" lon="6.09369">
        <ele>392</ele>
        <time>2012-03-25T14:44:11Z</time>
      </trkpt>
      <trkpt lat="48.66754" lon="6.09376">
        <ele>395</ele>
        <time>2012-03-25T14:44:13Z</time>
      </trkpt>
      <trkpt lat="48.66754" lon="6.09383">
        <ele>395</ele>
        <time>2012-03-25T14:44:15Z</time>
      </trkpt>
      <trkpt lat="48.66756" lon="6.09391">
        <ele>396</ele>
        <time>2012-03-25T14:44:17Z</time>
      </trkpt>
      <trkpt lat="48.66756" lon="6.09399">
        <ele>398</ele>
        <time>2012-03-25T14:44:19Z</time>
      </trkpt>
      <trkpt lat="48.66755" lon="6.09407">
        <ele>399</ele>
        <time>2012-03-25T14:44:21Z</time>
      </trkpt>
      <trkpt lat="48.66755" lon="6.09416">
        <ele>392</ele>
        <time>2012-03-25T14:44:23Z</time>
      </trkpt>
      <trkpt lat="48.66753" lon="6.09425">
        <ele>391</ele>
        <time>2012-03-25T14:44:25Z</time>
      </trkpt>
      <trkpt lat="48.66752" lon="6.09434">
        <ele>391</ele>
        <time>2012-03-25T14:44:27Z</time>
      </trkpt>
      <trkpt lat="48.66751" lon="6.09444">
        <ele>392</ele>
        <time>2012-03-25T14:44:29Z</time>
      </trkpt>
      <trkpt lat="48.66749" lon="6.09454">
        <ele>395</ele>
        <time>2012-03-25T14:44:31Z</time>
      </trkpt>
      <trkpt lat="48.66749" lon="6.09463">
        <ele>394</ele>
        <time>2012-03-25T14:44:33Z</time>
      </trkpt>
      <trkpt lat="48.66749" lon="6.09473">
        <ele>391</ele>
        <time>2012-03-25T14:44:35Z</time>
      </trkpt>
      <trkpt lat="48.66749" lon="6.09482">
        <ele>395</ele>
        <time>2012-03-25T14:44:37Z</time>
      </trkpt>
      <trkpt lat="48.66749" lon="6.09491">
        <ele>393</ele>
        <time>2012-03-25T14:44:39Z</time>
      </trkpt>
      <trkpt lat="48.6675" lon="6.095">
        <ele>395</ele>
        <time>2012-03-25T14:44:41Z</time>
      </trkpt>
      <trkpt lat="48.66749" lon="6.09508">
        <ele>397</ele>
        <time>2012-03-25T14:44:43Z</time>
      </trkpt>
      <trkpt lat="48.6675" lon="6.09519">
        <ele>400</ele>
        <time>2012-03-25T14:44:45Z</time>
      </trkpt>
      <trkpt lat="48.66749" lon="6.0953">
        <ele>397</ele>
        <time>2012-03-25T14:44:47Z</time>
      </trkpt>
      <trkpt lat="48.66748" lon="6.0954">
        <ele>394</ele>
        <time>2012-03-25T14:44:49Z</time>
      </trkpt>
      <trkpt lat="48.66748" lon="6.0955">
        <ele>393</ele>
        <time>2012-03-25T14:44:51Z</time>
      </trkpt>
      <trkpt lat="48.66747" lon="6.09561">
        <ele>395</ele>
        <time>2012-03-25T14:44:53Z</time>
      </trkpt>
      <trkpt lat="48.66747" lon="6.09571">
        <ele>392</ele>
        <time>2012-03-25T14:44:55Z</time>
      </trkpt>
      <trkpt lat="48.66747" lon="6.09581">
        <ele>393</ele>
        <time>2012-03-25T14:44:57Z</time>
      </trkpt>
      <trkpt lat="48.66747" lon="6.09591">
        <ele>394</ele>
        <time>2012-03-25T14:44:59Z</time>
      </trkpt>
      <trkpt lat="48.66747" lon="6.09602">
        <ele>396</ele>
        <time>2012-03-25T14:45:01Z</time>
      </trkpt>
      <trkpt lat="48.66748" lon="6.09614">
        <ele>392</ele>
        <time>2012-03-25T14:45:03Z</time>
      </trkpt>
      <trkpt lat="48.66748" lon="6.09627">
        <ele>394</ele>
        <time>2012-03-25T14:45:05Z</time>
      </trkpt>
      <trkpt lat="48.66748" lon="6.0964">
        <ele>396</ele>
        <time>2012-03-25T14:45:07Z</time>
      </trkpt>
      <trkpt lat="48.66748" lon="6.09653">
        <ele>395</ele>
        <time>2012-03-25T14:45:09Z</time>
      </trkpt>
      <trkpt lat="48.66748" lon="6.09667">
        <ele>396</ele>
        <time>2012-03-25T14:45:11Z</time>
      </trkpt>
      <trkpt lat="48.66747" lon="6.0968">
        <ele>391</ele>
        <time>2012-03-25T14:45:13Z</time>
      </trkpt>
      <trkpt lat="48.66747" lon="6.09695">
        <ele>388</ele>
        <time>2012-03-25T14:45:15Z</time>
      </trkpt>
      <trkpt lat="48.66748" lon="6.09711">
        <ele>385</ele>
        <time>2012-03-25T14:45:17Z</time>
      </trkpt>
      <trkpt lat="48.66747" lon="6.09729">
        <ele>385</ele>
        <time>2012-03-25T14:45:19Z</time>
      </trkpt>
      <trkpt lat="48.66747" lon="6.09746">
        <ele>379</ele>
        <time>2012-03-25T14:45:21Z</time>
      </trkpt>
      <trkpt lat="48.66749" lon="6.09762">
        <ele>385</ele>
        <time>2012-03-25T14:45:23Z</time>
      </trkpt>
      <trkpt lat="48.6675" lon="6.09778">
        <ele>385</ele>
        <time>2012-03-25T14:45:25Z</time>
      </trkpt>
      <trkpt lat="48.6675" lon="6.09794">
        <ele>386</ele>
        <time>2012-03-25T14:45:27Z</time>
      </trkpt>
      <trkpt lat="48.6675" lon="6.0981">
        <ele>387</ele>
        <time>2012-03-25T14:45:29Z</time>
      </trkpt>
      <trkpt lat="48.6675" lon="6.09825">
        <ele>388</ele>
        <time>2012-03-25T14:45:31Z</time>
      </trkpt>
      <trkpt lat="48.66752" lon="6.0984">
        <ele>387</ele>
        <time>2012-03-25T14:45:33Z</time>
      </trkpt>
      <trkpt lat="48.66752" lon="6.09854">
        <ele>388</ele>
        <time>2012-03-25T14:45:35Z</time>
      </trkpt>
      <trkpt lat="48.66752" lon="6.09869">
        <ele>387</ele>
        <time>2012-03-25T14:45:37Z</time>
      </trkpt>
      <trkpt lat="48.66752" lon="6.09885">
        <ele>386</ele>
        <time>2012-03-25T14:45:39Z</time>
      </trkpt>
      <trkpt lat="48.66751" lon="6.09901">
        <ele>383</ele>
        <time>2012-03-25T14:45:41Z</time>
      </trkpt>
      <trkpt lat="48.66752" lon="6.09916">
        <ele>382</ele>
        <time>2012-03-25T14:45:43Z</time>
      </trkpt>
      <trkpt lat="48.66753" lon="6.0993">
        <ele>385</ele>
        <time>2012-03-25T14:45:45Z</time>
      </trkpt>
      <trkpt lat="48.66752" lon="6.09944">
        <ele>387</ele>
        <time>2012-03-25T14:45:47Z</time>
      </trkpt>
      <trkpt lat="48.66752" lon="6.09959">
        <ele>390</ele>
        <time>2012-03-25T14:45:49Z</time>
      </trkpt>
      <trkpt lat="48.66752" lon="6.09974">
        <ele>394</ele>
        <time>2012-03-25T14:45:51Z</time>
      </trkpt>
      <trkpt lat="48.66752" lon="6.09989">
        <ele>392</ele>
        <time>2012-03-25T14:45:53Z</time>
      </trkpt>
      <trkpt lat="48.66752" lon="6.10006">
        <ele>392</ele>
        <time>2012-03-25T14:45:55Z</time>
      </trkpt>
      <trkpt lat="48.66752" lon="6.10022">
        <ele>392</ele>
        <time>2012-03-25T14:45:57Z</time>
      </trkpt>
      <trkpt lat="48.66753" lon="6.10037">
        <ele>388</ele>
        <time>2012-03-25T14:45:59Z</time>
      </trkpt>
      <trkpt lat="48.66752" lon="6.10053">
        <ele>386</ele>
        <time>2012-03-25T14:46:01Z</time>
      </trkpt>
      <trkpt lat="48.66752" lon="6.10068">
        <ele>385</ele>
        <time>2012-03-25T14:46:03Z</time>
      </trkpt>
      <trkpt lat="48.66752" lon="6.10083">
        <ele>383</ele>
        <time>2012-03-25T14:46:05Z</time>
      </trkpt>
      <trkpt lat="48.66752" lon="6.10096">
        <ele>389</ele>
        <time>2012-03-25T14:46:07Z</time>
      </trkpt>
      <trkpt lat="48.66751" lon="6.10112">
        <ele>393</ele>
        <time>2012-03-25T14:46:09Z</time>
      </trkpt>
      <trkpt lat="48.66752" lon="6.10129">
        <ele>390</ele>
        <time>2012-03-25T14:46:11Z</time>
      </trkpt>
      <trkpt lat="48.66752" lon="6.10147">
        <ele>389</ele>
        <time>2012-03-25T14:46:13Z</time>
      </trkpt>
      <trkpt lat="48.66751" lon="6.10163">
        <ele>391</ele>
        <time>2012-03-25T14:46:15Z</time>
      </trkpt>
      <trkpt lat="48.6675" lon="6.1018">
        <ele>390</ele>
        <time>2012-03-25T14:46:17Z</time>
      </trkpt>
      <trkpt lat="48.6675" lon="6.10198">
        <ele>388</ele>
        <time>2012-03-25T14:46:19Z</time>
      </trkpt>
      <trkpt lat="48.6675" lon="6.10219">
        <ele>390</ele>
        <time>2012-03-25T14:46:21Z</time>
      </trkpt>
      <trkpt lat="48.6675" lon="6.10238">
        <ele>392</ele>
        <time>2012-03-25T14:46:23Z</time>
      </trkpt>
      <trkpt lat="48.6675" lon="6.10258">
        <ele>385</ele>
        <time>2012-03-25T14:46:25Z</time>
      </trkpt>
      <trkpt lat="48.66751" lon="6.1028">
        <ele>381</ele>
        <time>2012-03-25T14:46:27Z</time>
      </trkpt>
      <trkpt lat="48.66751" lon="6.10306">
        <ele>382</ele>
        <time>2012-03-25T14:46:29Z</time>
      </trkpt>
      <trkpt lat="48.66749" lon="6.1033">
        <ele>379</ele>
        <time>2012-03-25T14:46:31Z</time>
      </trkpt>
      <trkpt lat="48.6675" lon="6.10356">
        <ele>377</ele>
        <time>2012-03-25T14:46:33Z</time>
      </trkpt>
      <trkpt lat="48.66749" lon="6.10386">
        <ele>380</ele>
        <time>2012-03-25T14:46:35Z</time>
      </trkpt>
      <trkpt lat="48.66748" lon="6.10413">
        <ele>377</ele>
        <time>2012-03-25T14:46:37Z</time>
      </trkpt>
      <trkpt lat="48.66746" lon="6.10439">
        <ele>373</ele>
        <time>2012-03-25T14:46:39Z</time>
      </trkpt>
      <trkpt lat="48.66745" lon="6.10465">
        <ele>375</ele>
        <time>2012-03-25T14:46:41Z</time>
      </trkpt>
      <trkpt lat="48.66745" lon="6.10491">
        <ele>373</ele>
        <time>2012-03-25T14:46:43Z</time>
      </trkpt>
      <trkpt lat="48.66744" lon="6.10514">
        <ele>373</ele>
        <time>2012-03-25T14:46:45Z</time>
      </trkpt>
      <trkpt lat="48.66744" lon="6.10541">
        <ele>373</ele>
        <time>2012-03-25T14:46:47Z</time>
      </trkpt>
      <trkpt lat="48.66744" lon="6.10568">
        <ele>371</ele>
        <time>2012-03-25T14:46:49Z</time>
      </trkpt>
      <trkpt lat="48.66744" lon="6.10593">
        <ele>375</ele>
        <time>2012-03-25T14:46:51Z</time>
      </trkpt>
      <trkpt lat="48.66744" lon="6.10619">
        <ele>380</ele>
        <time>2012-03-25T14:46:53Z</time>
      </trkpt>
      <trkpt lat="48.66743" lon="6.10647">
        <ele>379</ele>
        <time>2012-03-25T14:46:55Z</time>
      </trkpt>
      <trkpt lat="48.66744" lon="6.10676">
        <ele>377</ele>
        <time>2012-03-25T14:46:57Z</time>
      </trkpt>
      <trkpt lat="48.66744" lon="6.10702">
        <ele>381</ele>
        <time>2012-03-25T14:46:59Z</time>
      </trkpt>
      <trkpt lat="48.66744" lon="6.10715">
        <ele>381</ele>
        <time>2012-03-25T14:47:00Z</time>
      </trkpt>
      <trkpt lat="48.66743" lon="6.1073">
        <ele>383</ele>
        <time>2012-03-25T14:47:01Z</time>
      </trkpt>
      <trkpt lat="48.66742" lon="6.1076">
        <ele>386</ele>
        <time>2012-03-25T14:47:03Z</time>
      </trkpt>
      <trkpt lat="48.66742" lon="6.1079">
        <ele>384</ele>
        <time>2012-03-25T14:47:05Z</time>
      </trkpt>
      <trkpt lat="48.66741" lon="6.1082">
        <ele>381</ele>
        <time>2012-03-25T14:47:07Z</time>
      </trkpt>
      <trkpt lat="48.66741" lon="6.10851">
        <ele>381</ele>
        <time>2012-03-25T14:47:09Z</time>
      </trkpt>
      <trkpt lat="48.66742" lon="6.10884">
        <ele>375</ele>
        <time>2012-03-25T14:47:11Z</time>
      </trkpt>
      <trkpt lat="48.66741" lon="6.10916">
        <ele>371</ele>
        <time>2012-03-25T14:47:13Z</time>
      </trkpt>
      <trkpt lat="48.6674" lon="6.10946">
        <ele>366</ele>
        <time>2012-03-25T14:47:15Z</time>
      </trkpt>
      <trkpt lat="48.6674" lon="6.10977">
        <ele>364</ele>
        <time>2012-03-25T14:47:17Z</time>
      </trkpt>
      <trkpt lat="48.66741" lon="6.11007">
        <ele>361</ele>
        <time>2012-03-25T14:47:19Z</time>
      </trkpt>
      <trkpt lat="48.66742" lon="6.11034">
        <ele>367</ele>
        <time>2012-03-25T14:47:21Z</time>
      </trkpt>
      <trkpt lat="48.66742" lon="6.11059">
        <ele>366</ele>
        <time>2012-03-25T14:47:23Z</time>
      </trkpt>
      <trkpt lat="48.66742" lon="6.11082">
        <ele>364</ele>
        <time>2012-03-25T14:47:25Z</time>
      </trkpt>
      <trkpt lat="48.66739" lon="6.11104">
        <ele>363</ele>
        <time>2012-03-25T14:47:27Z</time>
      </trkpt>
      <trkpt lat="48.66732" lon="6.1112">
        <ele>367</ele>
        <time>2012-03-25T14:47:29Z</time>
      </trkpt>
      <trkpt lat="48.66726" lon="6.11127">
        <ele>368</ele>
        <time>2012-03-25T14:47:31Z</time>
      </trkpt>
      <trkpt lat="48.66719" lon="6.1113">
        <ele>371</ele>
        <time>2012-03-25T14:47:33Z</time>
      </trkpt>
      <trkpt lat="48.66716" lon="6.11134">
        <ele>370</ele>
        <time>2012-03-25T14:47:35Z</time>
      </trkpt>
      <trkpt lat="48.66697" lon="6.11146">
        <ele>350</ele>
        <time>2012-03-25T14:47:39Z</time>
      </trkpt>
      <trkpt lat="48.66687" lon="6.1115">
        <ele>347</ele>
        <time>2012-03-25T14:47:41Z</time>
      </trkpt>
      <trkpt lat="48.66676" lon="6.11153">
        <ele>345</ele>
        <time>2012-03-25T14:47:43Z</time>
      </trkpt>
      <trkpt lat="48.66665" lon="6.11156">
        <ele>344</ele>
        <time>2012-03-25T14:47:45Z</time>
      </trkpt>
      <trkpt lat="48.66654" lon="6.11159">
        <ele>343</ele>
        <time>2012-03-25T14:47:47Z</time>
      </trkpt>
      <trkpt lat="48.66645" lon="6.11162">
        <ele>338</ele>
        <time>2012-03-25T14:47:49Z</time>
      </trkpt>
      <trkpt lat="48.66636" lon="6.11166">
        <ele>342</ele>
        <time>2012-03-25T14:47:51Z</time>
      </trkpt>
      <trkpt lat="48.66626" lon="6.11169">
        <ele>340</ele>
        <time>2012-03-25T14:47:53Z</time>
      </trkpt>
      <trkpt lat="48.66616" lon="6.11173">
        <ele>339</ele>
        <time>2012-03-25T14:47:55Z</time>
      </trkpt>
      <trkpt lat="48.66607" lon="6.11175">
        <ele>339</ele>
        <time>2012-03-25T14:47:57Z</time>
      </trkpt>
      <trkpt lat="48.66597" lon="6.11176">
        <ele>344</ele>
        <time>2012-03-25T14:47:59Z</time>
      </trkpt>
      <trkpt lat="48.66586" lon="6.11178">
        <ele>339</ele>
        <time>2012-03-25T14:48:01Z</time>
      </trkpt>
      <trkpt lat="48.66579" lon="6.1118">
        <ele>342</ele>
        <time>2012-03-25T14:48:02Z</time>
      </trkpt>
      <trkpt lat="48.66573" lon="6.11181">
        <ele>342</ele>
        <time>2012-03-25T14:48:03Z</time>
      </trkpt>
      <trkpt lat="48.66558" lon="6.11184">
        <ele>346</ele>
        <time>2012-03-25T14:48:05Z</time>
      </trkpt>
      <trkpt lat="48.66543" lon="6.11186">
        <ele>346</ele>
        <time>2012-03-25T14:48:07Z</time>
      </trkpt>
      <trkpt lat="48.66528" lon="6.11189">
        <ele>347</ele>
        <time>2012-03-25T14:48:09Z</time>
      </trkpt>
      <trkpt lat="48.66514" lon="6.11192">
        <ele>348</ele>
        <time>2012-03-25T14:48:11Z</time>
      </trkpt>
      <trkpt lat="48.66501" lon="6.11194">
        <ele>343</ele>
        <time>2012-03-25T14:48:13Z</time>
      </trkpt>
      <trkpt lat="48.6649" lon="6.11196">
        <ele>350</ele>
        <time>2012-03-25T14:48:15Z</time>
      </trkpt>
      <trkpt lat="48.66478" lon="6.11198">
        <ele>351</ele>
        <time>2012-03-25T14:48:17Z</time>
      </trkpt>
      <trkpt lat="48.66468" lon="6.11199">
        <ele>360</ele>
        <time>2012-03-25T14:48:19Z</time>
      </trkpt>
      <trkpt lat="48.66457" lon="6.11201">
        <ele>361</ele>
        <time>2012-03-25T14:48:21Z</time>
      </trkpt>
      <trkpt lat="48.66448" lon="6.11203">
        <ele>362</ele>
        <time>2012-03-25T14:48:23Z</time>
      </trkpt>
      <trkpt lat="48.6644" lon="6.11203">
        <ele>358</ele>
        <time>2012-03-25T14:48:25Z</time>
      </trkpt>
      <trkpt lat="48.66432" lon="6.11203">
        <ele>356</ele>
        <time>2012-03-25T14:48:27Z</time>
      </trkpt>
      <trkpt lat="48.66424" lon="6.11203">
        <ele>362</ele>
        <time>2012-03-25T14:48:29Z</time>
      </trkpt>
      <trkpt lat="48.66415" lon="6.11204">
        <ele>363</ele>
        <time>2012-03-25T14:48:31Z</time>
      </trkpt>
      <trkpt lat="48.66407" lon="6.11207">
        <ele>363</ele>
        <time>2012-03-25T14:48:33Z</time>
      </trkpt>
      <trkpt lat="48.66398" lon="6.1121">
        <ele>361</ele>
        <time>2012-03-25T14:48:35Z</time>
      </trkpt>
      <trkpt lat="48.66388" lon="6.11212">
        <ele>358</ele>
        <time>2012-03-25T14:48:37Z</time>
      </trkpt>
      <trkpt lat="48.66379" lon="6.11214">
        <ele>360</ele>
        <time>2012-03-25T14:48:39Z</time>
      </trkpt>
      <trkpt lat="48.66369" lon="6.11217">
        <ele>360</ele>
        <time>2012-03-25T14:48:41Z</time>
      </trkpt>
      <trkpt lat="48.66361" lon="6.1122">
        <ele>361</ele>
        <time>2012-03-25T14:48:43Z</time>
      </trkpt>
      <trkpt lat="48.66351" lon="6.11223">
        <ele>364</ele>
        <time>2012-03-25T14:48:45Z</time>
      </trkpt>
      <trkpt lat="48.66344" lon="6.11225">
        <ele>367</ele>
        <time>2012-03-25T14:48:47Z</time>
      </trkpt>
      <trkpt lat="48.66337" lon="6.11229">
        <ele>368</ele>
        <time>2012-03-25T14:48:49Z</time>
      </trkpt>
      <trkpt lat="48.66327" lon="6.1123">
        <ele>368</ele>
        <time>2012-03-25T14:48:51Z</time>
      </trkpt>
      <trkpt lat="48.66316" lon="6.11232">
        <ele>368</ele>
        <time>2012-03-25T14:48:53Z</time>
      </trkpt>
      <trkpt lat="48.66305" lon="6.11233">
        <ele>375</ele>
        <time>2012-03-25T14:48:55Z</time>
      </trkpt>
      <trkpt lat="48.66297" lon="6.11233">
        <ele>376</ele>
        <time>2012-03-25T14:48:57Z</time>
      </trkpt>
      <trkpt lat="48.66288" lon="6.11235">
        <ele>377</ele>
        <time>2012-03-25T14:48:59Z</time>
      </trkpt>
      <trkpt lat="48.6628" lon="6.11238">
        <ele>378</ele>
        <time>2012-03-25T14:49:01Z</time>
      </trkpt>
      <trkpt lat="48.66271" lon="6.11239">
        <ele>370</ele>
        <time>2012-03-25T14:49:03Z</time>
      </trkpt>
      <trkpt lat="48.66262" lon="6.11237">
        <ele>365</ele>
        <time>2012-03-25T14:49:05Z</time>
      </trkpt>
      <trkpt lat="48.66253" lon="6.11234">
        <ele>363</ele>
        <time>2012-03-25T14:49:07Z</time>
      </trkpt>
      <trkpt lat="48.66245" lon="6.11232">
        <ele>357</ele>
        <time>2012-03-25T14:49:09Z</time>
      </trkpt>
      <trkpt lat="48.6624" lon="6.11228">
        <ele>359</ele>
        <time>2012-03-25T14:49:11Z</time>
      </trkpt>
      <trkpt lat="48.66235" lon="6.11221">
        <ele>355</ele>
        <time>2012-03-25T14:49:13Z</time>
      </trkpt>
      <trkpt lat="48.66229" lon="6.11215">
        <ele>358</ele>
        <time>2012-03-25T14:49:15Z</time>
      </trkpt>
      <trkpt lat="48.66222" lon="6.11209">
        <ele>357</ele>
        <time>2012-03-25T14:49:17Z</time>
      </trkpt>
      <trkpt lat="48.66215" lon="6.11202">
        <ele>357</ele>
        <time>2012-03-25T14:49:19Z</time>
      </trkpt>
      <trkpt lat="48.66205" lon="6.11195">
        <ele>355</ele>
        <time>2012-03-25T14:49:21Z</time>
      </trkpt>
      <trkpt lat="48.66191" lon="6.11193">
        <ele>358</ele>
        <time>2012-03-25T14:49:23Z</time>
      </trkpt>
      <trkpt lat="48.66178" lon="6.11199">
        <ele>355</ele>
        <time>2012-03-25T14:49:25Z</time>
      </trkpt>
      <trkpt lat="48.6617" lon="6.11209">
        <ele>358</ele>
        <time>2012-03-25T14:49:27Z</time>
      </trkpt>
      <trkpt lat="48.66164" lon="6.11221">
        <ele>358</ele>
        <time>2012-03-25T14:49:29Z</time>
      </trkpt>
      <trkpt lat="48.66158" lon="6.11231">
        <ele>359</ele>
        <time>2012-03-25T14:49:31Z</time>
      </trkpt>
      <trkpt lat="48.66153" lon="6.11241">
        <ele>356</ele>
        <time>2012-03-25T14:49:33Z</time>
      </trkpt>
      <trkpt lat="48.66148" lon="6.11252">
        <ele>355</ele>
        <time>2012-03-25T14:49:35Z</time>
      </trkpt>
      <trkpt lat="48.66142" lon="6.11264">
        <ele>356</ele>
        <time>2012-03-25T14:49:37Z</time>
      </trkpt>
      <trkpt lat="48.66138" lon="6.11275">
        <ele>356</ele>
        <time>2012-03-25T14:49:39Z</time>
      </trkpt>
      <trkpt lat="48.66133" lon="6.11286">
        <ele>358</ele>
        <time>2012-03-25T14:49:41Z</time>
      </trkpt>
      <trkpt lat="48.66128" lon="6.11295">
        <ele>358</ele>
        <time>2012-03-25T14:49:43Z</time>
      </trkpt>
      <trkpt lat="48.66122" lon="6.11302">
        <ele>357</ele>
        <time>2012-03-25T14:49:45Z</time>
      </trkpt>
      <trkpt lat="48.66116" lon="6.11311">
        <ele>362</ele>
        <time>2012-03-25T14:49:47Z</time>
      </trkpt>
      <trkpt lat="48.66109" lon="6.11319">
        <ele>367</ele>
        <time>2012-03-25T14:49:49Z</time>
      </trkpt>
      <trkpt lat="48.66102" lon="6.11323">
        <ele>356</ele>
        <time>2012-03-25T14:49:51Z</time>
      </trkpt>
      <trkpt lat="48.66094" lon="6.11327">
        <ele>355</ele>
        <time>2012-03-25T14:49:53Z</time>
      </trkpt>
      <trkpt lat="48.66085" lon="6.11331">
        <ele>361</ele>
        <time>2012-03-25T14:49:55Z</time>
      </trkpt>
      <trkpt lat="48.66077" lon="6.11337">
        <ele>358</ele>
        <time>2012-03-25T14:49:57Z</time>
      </trkpt>
      <trkpt lat="48.66068" lon="6.11343">
        <ele>358</ele>
        <time>2012-03-25T14:49:59Z</time>
      </trkpt>
      <trkpt lat="48.66059" lon="6.11347">
        <ele>356</ele>
        <time>2012-03-25T14:50:01Z</time>
      </trkpt>
      <trkpt lat="48.66051" lon="6.11351">
        <ele>355</ele>
        <time>2012-03-25T14:50:03Z</time>
      </trkpt>
      <trkpt lat="48.66044" lon="6.11355">
        <ele>355</ele>
        <time>2012-03-25T14:50:05Z</time>
      </trkpt>
      <trkpt lat="48.66035" lon="6.11361">
        <ele>356</ele>
        <time>2012-03-25T14:50:07Z</time>
      </trkpt>
      <trkpt lat="48.66026" lon="6.11365">
        <ele>356</ele>
        <time>2012-03-25T14:50:09Z</time>
      </trkpt>
      <trkpt lat="48.66018" lon="6.11371">
        <ele>357</ele>
        <time>2012-03-25T14:50:11Z</time>
      </trkpt>
      <trkpt lat="48.66009" lon="6.11376">
        <ele>358</ele>
        <time>2012-03-25T14:50:13Z</time>
      </trkpt>
      <trkpt lat="48.66" lon="6.11381">
        <ele>356</ele>
        <time>2012-03-25T14:50:15Z</time>
      </trkpt>
      <trkpt lat="48.65989" lon="6.11387">
        <ele>355</ele>
        <time>2012-03-25T14:50:17Z</time>
      </trkpt>
      <trkpt lat="48.65978" lon="6.11395">
        <ele>357</ele>
        <time>2012-03-25T14:50:19Z</time>
      </trkpt>
      <trkpt lat="48.65966" lon="6.11404">
        <ele>356</ele>
        <time>2012-03-25T14:50:21Z</time>
      </trkpt>
      <trkpt lat="48.65955" lon="6.11415">
        <ele>359</ele>
        <time>2012-03-25T14:50:23Z</time>
      </trkpt>
      <trkpt lat="48.65944" lon="6.11429">
        <ele>357</ele>
        <time>2012-03-25T14:50:25Z</time>
      </trkpt>
      <trkpt lat="48.65932" lon="6.11444">
        <ele>353</ele>
        <time>2012-03-25T14:50:27Z</time>
      </trkpt>
      <trkpt lat="48.65918" lon="6.11462">
        <ele>353</ele>
        <time>2012-03-25T14:50:29Z</time>
      </trkpt>
      <trkpt lat="48.65905" lon="6.11474">
        <ele>352</ele>
        <time>2012-03-25T14:50:31Z</time>
      </trkpt>
      <trkpt lat="48.65892" lon="6.11484">
        <ele>354</ele>
        <time>2012-03-25T14:50:33Z</time>
      </trkpt>
      <trkpt lat="48.65881" lon="6.11495">
        <ele>356</ele>
        <time>2012-03-25T14:50:35Z</time>
      </trkpt>
      <trkpt lat="48.65876" lon="6.11502">
        <ele>355</ele>
        <time>2012-03-25T14:50:36Z</time>
      </trkpt>
      <trkpt lat="48.65871" lon="6.11525">
        <ele>349</ele>
        <time>2012-03-25T14:50:39Z</time>
      </trkpt>
      <trkpt lat="48.65868" lon="6.11543">
        <ele>345</ele>
        <time>2012-03-25T14:50:41Z</time>
      </trkpt>
      <trkpt lat="48.65868" lon="6.11561">
        <ele>346</ele>
        <time>2012-03-25T14:50:43Z</time>
      </trkpt>
      <trkpt lat="48.65873" lon="6.11598">
        <ele>345</ele>
        <time>2012-03-25T14:50:47Z</time>
      </trkpt>
      <trkpt lat="48.65876" lon="6.11618">
        <ele>342</ele>
        <time>2012-03-25T14:50:49Z</time>
      </trkpt>
      <trkpt lat="48.65879" lon="6.11637">
        <ele>340</ele>
        <time>2012-03-25T14:50:51Z</time>
      </trkpt>
      <trkpt lat="48.65882" lon="6.11657">
        <ele>339</ele>
        <time>2012-03-25T14:50:53Z</time>
      </trkpt>
      <trkpt lat="48.65884" lon="6.11679">
        <ele>338</ele>
        <time>2012-03-25T14:50:55Z</time>
      </trkpt>
      <trkpt lat="48.65886" lon="6.11699">
        <ele>339</ele>
        <time>2012-03-25T14:50:57Z</time>
      </trkpt>
      <trkpt lat="48.65886" lon="6.11719">
        <ele>338</ele>
        <time>2012-03-25T14:50:59Z</time>
      </trkpt>
      <trkpt lat="48.65888" lon="6.11738">
        <ele>338</ele>
        <time>2012-03-25T14:51:01Z</time>
      </trkpt>
      <trkpt lat="48.65888" lon="6.11758">
        <ele>339</ele>
        <time>2012-03-25T14:51:03Z</time>
      </trkpt>
      <trkpt lat="48.65888" lon="6.11775">
        <ele>338</ele>
        <time>2012-03-25T14:51:05Z</time>
      </trkpt>
      <trkpt lat="48.65888" lon="6.11788">
        <ele>338</ele>
        <time>2012-03-25T14:51:07Z</time>
      </trkpt>
      <trkpt lat="48.65886" lon="6.11799">
        <ele>338</ele>
        <time>2012-03-25T14:51:09Z</time>
      </trkpt>
      <trkpt lat="48.65885" lon="6.11808">
        <ele>339</ele>
        <time>2012-03-25T14:51:11Z</time>
      </trkpt>
      <trkpt lat="48.65884" lon="6.11815">
        <ele>339</ele>
        <time>2012-03-25T14:51:13Z</time>
      </trkpt>
      <trkpt lat="48.65882" lon="6.11821">
        <ele>340</ele>
        <time>2012-03-25T14:51:15Z</time>
      </trkpt>
      <trkpt lat="48.65881" lon="6.11827">
        <ele>341</ele>
        <time>2012-03-25T14:51:17Z</time>
      </trkpt>
      <trkpt lat="48.65879" lon="6.11833">
        <ele>342</ele>
        <time>2012-03-25T14:51:19Z</time>
      </trkpt>
      <trkpt lat="48.65877" lon="6.11839">
        <ele>342</ele>
        <time>2012-03-25T14:51:21Z</time>
      </trkpt>
      <trkpt lat="48.65876" lon="6.11846">
        <ele>344</ele>
        <time>2012-03-25T14:51:23Z</time>
      </trkpt>
      <trkpt lat="48.65875" lon="6.11852">
        <ele>346</ele>
        <time>2012-03-25T14:51:25Z</time>
      </trkpt>
      <trkpt lat="48.65872" lon="6.11859">
        <ele>350</ele>
        <time>2012-03-25T14:51:27Z</time>
      </trkpt>
      <trkpt lat="48.65871" lon="6.11865">
        <ele>348</ele>
        <time>2012-03-25T14:51:29Z</time>
      </trkpt>
      <trkpt lat="48.65869" lon="6.11872">
        <ele>348</ele>
        <time>2012-03-25T14:51:31Z</time>
      </trkpt>
      <trkpt lat="48.65866" lon="6.11887">
        <ele>343</ele>
        <time>2012-03-25T14:51:35Z</time>
      </trkpt>
      <trkpt lat="48.65864" lon="6.11894">
        <ele>344</ele>
        <time>2012-03-25T14:51:37Z</time>
      </trkpt>
      <trkpt lat="48.65862" lon="6.11901">
        <ele>346</ele>
        <time>2012-03-25T14:51:39Z</time>
      </trkpt>
      <trkpt lat="48.6586" lon="6.1191">
        <ele>345</ele>
        <time>2012-03-25T14:51:41Z</time>
      </trkpt>
      <trkpt lat="48.65857" lon="6.11917">
        <ele>349</ele>
        <time>2012-03-25T14:51:43Z</time>
      </trkpt>
      <trkpt lat="48.65855" lon="6.11923">
        <ele>351</ele>
        <time>2012-03-25T14:51:45Z</time>
      </trkpt>
      <trkpt lat="48.65854" lon="6.1193">
        <ele>352</ele>
        <time>2012-03-25T14:51:47Z</time>
      </trkpt>
      <trkpt lat="48.65852" lon="6.11936">
        <ele>353</ele>
        <time>2012-03-25T14:51:49Z</time>
      </trkpt>
      <trkpt lat="48.65851" lon="6.11942">
        <ele>351</ele>
        <time>2012-03-25T14:51:51Z</time>
      </trkpt>
      <trkpt lat="48.65849" lon="6.11949">
        <ele>352</ele>
        <time>2012-03-25T14:51:53Z</time>
      </trkpt>
      <trkpt lat="48.65848" lon="6.11957">
        <ele>351</ele>
        <time>2012-03-25T14:51:55Z</time>
      </trkpt>
      <trkpt lat="48.65846" lon="6.11966">
        <ele>351</ele>
        <time>2012-03-25T14:51:57Z</time>
      </trkpt>
      <trkpt lat="48.65844" lon="6.11973">
        <ele>349</ele>
        <time>2012-03-25T14:51:59Z</time>
      </trkpt>
      <trkpt lat="48.65843" lon="6.1198">
        <ele>351</ele>
        <time>2012-03-25T14:52:01Z</time>
      </trkpt>
      <trkpt lat="48.65841" lon="6.11987">
        <ele>351</ele>
        <time>2012-03-25T14:52:03Z</time>
      </trkpt>
      <trkpt lat="48.65839" lon="6.11994">
        <ele>351</ele>
        <time>2012-03-25T14:52:05Z</time>
      </trkpt>
      <trkpt lat="48.65838" lon="6.12">
        <ele>351</ele>
        <time>2012-03-25T14:52:07Z</time>
      </trkpt>
      <trkpt lat="48.65836" lon="6.12007">
        <ele>349</ele>
        <time>2012-03-25T14:52:09Z</time>
      </trkpt>
      <trkpt lat="48.65835" lon="6.12013">
        <ele>349</ele>
        <time>2012-03-25T14:52:11Z</time>
      </trkpt>
      <trkpt lat="48.65834" lon="6.12021">
        <ele>349</ele>
        <time>2012-03-25T14:52:13Z</time>
      </trkpt>
      <trkpt lat="48.65834" lon="6.12029">
        <ele>350</ele>
        <time>2012-03-25T14:52:15Z</time>
      </trkpt>
      <trkpt lat="48.65833" lon="6.12038">
        <ele>352</ele>
        <time>2012-03-25T14:52:17Z</time>
      </trkpt>
      <trkpt lat="48.65833" lon="6.12046">
        <ele>350</ele>
        <time>2012-03-25T14:52:19Z</time>
      </trkpt>
      <trkpt lat="48.65834" lon="6.12054">
        <ele>352</ele>
        <time>2012-03-25T14:52:21Z</time>
      </trkpt>
      <trkpt lat="48.65835" lon="6.12062">
        <ele>353</ele>
        <time>2012-03-25T14:52:23Z</time>
      </trkpt>
      <trkpt lat="48.65836" lon="6.12069">
        <ele>354</ele>
        <time>2012-03-25T14:52:25Z</time>
      </trkpt>
      <trkpt lat="48.65837" lon="6.12077">
        <ele>355</ele>
        <time>2012-03-25T14:52:27Z</time>
      </trkpt>
      <trkpt lat="48.65837" lon="6.12084">
        <ele>355</ele>
        <time>2012-03-25T14:52:29Z</time>
      </trkpt>
      <trkpt lat="48.65838" lon="6.12092">
        <ele>356</ele>
        <time>2012-03-25T14:52:31Z</time>
      </trkpt>
      <trkpt lat="48.65841" lon="6.12125">
        <ele>364</ele>
        <time>2012-03-25T14:52:41Z</time>
      </trkpt>
      <trkpt lat="48.65842" lon="6.12133">
        <ele>365</ele>
        <time>2012-03-25T14:52:43Z</time>
      </trkpt>
      <trkpt lat="48.65843" lon="6.12139">
        <ele>369</ele>
        <time>2012-03-25T14:52:45Z</time>
      </trkpt>
      <trkpt lat="48.65844" lon="6.12147">
        <ele>367</ele>
        <time>2012-03-25T14:52:47Z</time>
      </trkpt>
      <trkpt lat="48.65845" lon="6.12155">
        <ele>367</ele>
        <time>2012-03-25T14:52:49Z</time>
      </trkpt>
      <trkpt lat="48.65846" lon="6.12165">
        <ele>366</ele>
        <time>2012-03-25T14:52:51Z</time>
      </trkpt>
      <trkpt lat="48.65848" lon="6.12174">
        <ele>364</ele>
        <time>2012-03-25T14:52:53Z</time>
      </trkpt>
      <trkpt lat="48.6585" lon="6.12183">
        <ele>363</ele>
        <time>2012-03-25T14:52:55Z</time>
      </trkpt>
      <trkpt lat="48.65853" lon="6.12191">
        <ele>363</ele>
        <time>2012-03-25T14:52:57Z</time>
      </trkpt>
      <trkpt lat="48.65855" lon="6.12198">
        <ele>363</ele>
        <time>2012-03-25T14:52:59Z</time>
      </trkpt>
      <trkpt lat="48.65857" lon="6.12205">
        <ele>363</ele>
        <time>2012-03-25T14:53:01Z</time>
      </trkpt>
      <trkpt lat="48.6586" lon="6.12213">
        <ele>364</ele>
        <time>2012-03-25T14:53:03Z</time>
      </trkpt>
      <trkpt lat="48.65862" lon="6.12221">
        <ele>365</ele>
        <time>2012-03-25T14:53:05Z</time>
      </trkpt>
      <trkpt lat="48.65865" lon="6.12229">
        <ele>366</ele>
        <time>2012-03-25T14:53:07Z</time>
      </trkpt>
      <trkpt lat="48.65867" lon="6.12237">
        <ele>368</ele>
        <time>2012-03-25T14:53:09Z</time>
      </trkpt>
      <trkpt lat="48.65869" lon="6.12244">
        <ele>369</ele>
        <time>2012-03-25T14:53:11Z</time>
      </trkpt>
      <trkpt lat="48.65871" lon="6.12251">
        <ele>368</ele>
        <time>2012-03-25T14:53:13Z</time>
      </trkpt>
      <trkpt lat="48.65874" lon="6.12259">
        <ele>367</ele>
        <time>2012-03-25T14:53:15Z</time>
      </trkpt>
      <trkpt lat="48.65877" lon="6.12266">
        <ele>367</ele>
        <time>2012-03-25T14:53:17Z</time>
      </trkpt>
      <trkpt lat="48.6588" lon="6.12274">
        <ele>366</ele>
        <time>2012-03-25T14:53:19Z</time>
      </trkpt>
      <trkpt lat="48.65883" lon="6.12283">
        <ele>366</ele>
        <time>2012-03-25T14:53:21Z</time>
      </trkpt>
      <trkpt lat="48.65885" lon="6.12292">
        <ele>365</ele>
        <time>2012-03-25T14:53:23Z</time>
      </trkpt>
      <trkpt lat="48.65888" lon="6.123">
        <ele>365</ele>
        <time>2012-03-25T14:53:25Z</time>
      </trkpt>
      <trkpt lat="48.65891" lon="6.12307">
        <ele>365</ele>
        <time>2012-03-25T14:53:27Z</time>
      </trkpt>
      <trkpt lat="48.65893" lon="6.12314">
        <ele>365</ele>
        <time>2012-03-25T14:53:29Z</time>
      </trkpt>
      <trkpt lat="48.65896" lon="6.12324">
        <ele>363</ele>
        <time>2012-03-25T14:53:31Z</time>
      </trkpt>
      <trkpt lat="48.65898" lon="6.12332">
        <ele>364</ele>
        <time>2012-03-25T14:53:33Z</time>
      </trkpt>
      <trkpt lat="48.659" lon="6.12341">
        <ele>365</ele>
        <time>2012-03-25T14:53:35Z</time>
      </trkpt>
      <trkpt lat="48.65902" lon="6.1235">
        <ele>364</ele>
        <time>2012-03-25T14:53:37Z</time>
      </trkpt>
      <trkpt lat="48.65905" lon="6.1237">
        <ele>365</ele>
        <time>2012-03-25T14:53:41Z</time>
      </trkpt>
      <trkpt lat="48.65906" lon="6.1238">
        <ele>366</ele>
        <time>2012-03-25T14:53:43Z</time>
      </trkpt>
      <trkpt lat="48.65908" lon="6.12387">
        <ele>367</ele>
        <time>2012-03-25T14:53:45Z</time>
      </trkpt>
      <trkpt lat="48.65911" lon="6.12395">
        <ele>369</ele>
        <time>2012-03-25T14:53:47Z</time>
      </trkpt>
      <trkpt lat="48.65914" lon="6.12402">
        <ele>370</ele>
        <time>2012-03-25T14:53:49Z</time>
      </trkpt>
      <trkpt lat="48.65916" lon="6.12409">
        <ele>371</ele>
        <time>2012-03-25T14:53:51Z</time>
      </trkpt>
      <trkpt lat="48.65919" lon="6.12416">
        <ele>369</ele>
        <time>2012-03-25T14:53:53Z</time>
      </trkpt>
      <trkpt lat="48.65922" lon="6.12424">
        <ele>369</ele>
        <time>2012-03-25T14:53:55Z</time>
      </trkpt>
      <trkpt lat="48.65925" lon="6.12432">
        <ele>370</ele>
        <time>2012-03-25T14:53:57Z</time>
      </trkpt>
      <trkpt lat="48.65927" lon="6.1244">
        <ele>371</ele>
        <time>2012-03-25T14:53:59Z</time>
      </trkpt>
      <trkpt lat="48.65929" lon="6.12448">
        <ele>373</ele>
        <time>2012-03-25T14:54:01Z</time>
      </trkpt>
      <trkpt lat="48.65931" lon="6.12456">
        <ele>372</ele>
        <time>2012-03-25T14:54:03Z</time>
      </trkpt>
      <trkpt lat="48.65933" lon="6.12465">
        <ele>372</ele>
        <time>2012-03-25T14:54:05Z</time>
      </trkpt>
      <trkpt lat="48.65935" lon="6.12473">
        <ele>373</ele>
        <time>2012-03-25T14:54:07Z</time>
      </trkpt>
      <trkpt lat="48.65937" lon="6.12481">
        <ele>372</ele>
        <time>2012-03-25T14:54:09Z</time>
      </trkpt>
      <trkpt lat="48.6594" lon="6.12489">
        <ele>373</ele>
        <time>2012-03-25T14:54:11Z</time>
      </trkpt>
      <trkpt lat="48.65943" lon="6.12496">
        <ele>374</ele>
        <time>2012-03-25T14:54:13Z</time>
      </trkpt>
      <trkpt lat="48.65947" lon="6.12505">
        <ele>373</ele>
        <time>2012-03-25T14:54:15Z</time>
      </trkpt>
      <trkpt lat="48.65952" lon="6.12514">
        <ele>371</ele>
        <time>2012-03-25T14:54:17Z</time>
      </trkpt>
      <trkpt lat="48.65957" lon="6.12523">
        <ele>370</ele>
        <time>2012-03-25T14:54:19Z</time>
      </trkpt>
      <trkpt lat="48.65961" lon="6.12531">
        <ele>368</ele>
        <time>2012-03-25T14:54:21Z</time>
      </trkpt>
      <trkpt lat="48.65965" lon="6.12538">
        <ele>368</ele>
        <time>2012-03-25T14:54:23Z</time>
      </trkpt>
      <trkpt lat="48.65969" lon="6.12544">
        <ele>369</ele>
        <time>2012-03-25T14:54:25Z</time>
      </trkpt>
      <trkpt lat="48.65973" lon="6.12552">
        <ele>366</ele>
        <time>2012-03-25T14:54:27Z</time>
      </trkpt>
      <trkpt lat="48.65977" lon="6.1256">
        <ele>366</ele>
        <time>2012-03-25T14:54:29Z</time>
      </trkpt>
      <trkpt lat="48.65981" lon="6.12568">
        <ele>374</ele>
        <time>2012-03-25T14:54:31Z</time>
      </trkpt>
      <trkpt lat="48.65984" lon="6.12576">
        <ele>375</ele>
        <time>2012-03-25T14:54:33Z</time>
      </trkpt>
      <trkpt lat="48.65987" lon="6.12583">
        <ele>375</ele>
        <time>2012-03-25T14:54:35Z</time>
      </trkpt>
      <trkpt lat="48.65994" lon="6.12594">
        <ele>370</ele>
        <time>2012-03-25T14:54:39Z</time>
      </trkpt>
      <trkpt lat="48.65999" lon="6.12602">
        <ele>370</ele>
        <time>2012-03-25T14:54:41Z</time>
      </trkpt>
      <trkpt lat="48.66002" lon="6.12611">
        <ele>369</ele>
        <time>2012-03-25T14:54:43Z</time>
      </trkpt>
      <trkpt lat="48.66006" lon="6.12621">
        <ele>370</ele>
        <time>2012-03-25T14:54:45Z</time>
      </trkpt>
      <trkpt lat="48.66009" lon="6.12629">
        <ele>370</ele>
        <time>2012-03-25T14:54:47Z</time>
      </trkpt>
      <trkpt lat="48.66011" lon="6.12638">
        <ele>371</ele>
        <time>2012-03-25T14:54:49Z</time>
      </trkpt>
      <trkpt lat="48.66014" lon="6.12646">
        <ele>371</ele>
        <time>2012-03-25T14:54:51Z</time>
      </trkpt>
      <trkpt lat="48.66017" lon="6.12654">
        <ele>375</ele>
        <time>2012-03-25T14:54:53Z</time>
      </trkpt>
      <trkpt lat="48.66019" lon="6.12662">
        <ele>373</ele>
        <time>2012-03-25T14:54:55Z</time>
      </trkpt>
      <trkpt lat="48.66021" lon="6.12671">
        <ele>373</ele>
        <time>2012-03-25T14:54:57Z</time>
      </trkpt>
      <trkpt lat="48.66024" lon="6.1268">
        <ele>372</ele>
        <time>2012-03-25T14:54:59Z</time>
      </trkpt>
      <trkpt lat="48.66028" lon="6.1269">
        <ele>371</ele>
        <time>2012-03-25T14:55:01Z</time>
      </trkpt>
      <trkpt lat="48.6603" lon="6.12698">
        <ele>372</ele>
        <time>2012-03-25T14:55:03Z</time>
      </trkpt>
      <trkpt lat="48.66033" lon="6.12707">
        <ele>372</ele>
        <time>2012-03-25T14:55:05Z</time>
      </trkpt>
      <trkpt lat="48.66036" lon="6.12716">
        <ele>374</ele>
        <time>2012-03-25T14:55:07Z</time>
      </trkpt>
      <trkpt lat="48.66038" lon="6.12725">
        <ele>375</ele>
        <time>2012-03-25T14:55:09Z</time>
      </trkpt>
      <trkpt lat="48.6604" lon="6.12736">
        <ele>373</ele>
        <time>2012-03-25T14:55:11Z</time>
      </trkpt>
      <trkpt lat="48.66043" lon="6.12747">
        <ele>375</ele>
        <time>2012-03-25T14:55:13Z</time>
      </trkpt>
      <trkpt lat="48.66046" lon="6.12758">
        <ele>376</ele>
        <time>2012-03-25T14:55:15Z</time>
      </trkpt>
      <trkpt lat="48.66049" lon="6.12769">
        <ele>374</ele>
        <time>2012-03-25T14:55:17Z</time>
      </trkpt>
      <trkpt lat="48.66052" lon="6.1278">
        <ele>373</ele>
        <time>2012-03-25T14:55:19Z</time>
      </trkpt>
      <trkpt lat="48.66054" lon="6.12791">
        <ele>373</ele>
        <time>2012-03-25T14:55:21Z</time>
      </trkpt>
      <trkpt lat="48.66055" lon="6.12802">
        <ele>372</ele>
        <time>2012-03-25T14:55:23Z</time>
      </trkpt>
      <trkpt lat="48.66056" lon="6.12814">
        <ele>371</ele>
        <time>2012-03-25T14:55:25Z</time>
      </trkpt>
      <trkpt lat="48.66058" lon="6.12825">
        <ele>373</ele>
        <time>2012-03-25T14:55:27Z</time>
      </trkpt>
      <trkpt lat="48.6606" lon="6.12835">
        <ele>372</ele>
        <time>2012-03-25T14:55:29Z</time>
      </trkpt>
      <trkpt lat="48.66063" lon="6.12847">
        <ele>373</ele>
        <time>2012-03-25T14:55:31Z</time>
      </trkpt>
      <trkpt lat="48.66065" lon="6.12858">
        <ele>374</ele>
        <time>2012-03-25T14:55:33Z</time>
      </trkpt>
      <trkpt lat="48.66068" lon="6.12869">
        <ele>375</ele>
        <time>2012-03-25T14:55:35Z</time>
      </trkpt>
      <trkpt lat="48.6607" lon="6.12882">
        <ele>376</ele>
        <time>2012-03-25T14:55:37Z</time>
      </trkpt>
      <trkpt lat="48.66071" lon="6.12904">
        <ele>375</ele>
        <time>2012-03-25T14:55:41Z</time>
      </trkpt>
      <trkpt lat="48.66073" lon="6.12917">
        <ele>373</ele>
        <time>2012-03-25T14:55:43Z</time>
      </trkpt>
      <trkpt lat="48.66078" lon="6.12931">
        <ele>372</ele>
        <time>2012-03-25T14:55:45Z</time>
      </trkpt>
      <trkpt lat="48.66084" lon="6.12944">
        <ele>368</ele>
        <time>2012-03-25T14:55:47Z</time>
      </trkpt>
      <trkpt lat="48.66089" lon="6.12957">
        <ele>365</ele>
        <time>2012-03-25T14:55:49Z</time>
      </trkpt>
      <trkpt lat="48.66095" lon="6.12969">
        <ele>365</ele>
        <time>2012-03-25T14:55:51Z</time>
      </trkpt>
      <trkpt lat="48.661" lon="6.1298">
        <ele>368</ele>
        <time>2012-03-25T14:55:53Z</time>
      </trkpt>
      <trkpt lat="48.66105" lon="6.1299">
        <ele>371</ele>
        <time>2012-03-25T14:55:55Z</time>
      </trkpt>
      <trkpt lat="48.66109" lon="6.13">
        <ele>371</ele>
        <time>2012-03-25T14:55:57Z</time>
      </trkpt>
      <trkpt lat="48.66111" lon="6.1301">
        <ele>371</ele>
        <time>2012-03-25T14:55:59Z</time>
      </trkpt>
      <trkpt lat="48.66116" lon="6.1302">
        <ele>374</ele>
        <time>2012-03-25T14:56:01Z</time>
      </trkpt>
      <trkpt lat="48.66118" lon="6.13032">
        <ele>370</ele>
        <time>2012-03-25T14:56:03Z</time>
      </trkpt>
      <trkpt lat="48.66121" lon="6.13045">
        <ele>368</ele>
        <time>2012-03-25T14:56:05Z</time>
      </trkpt>
      <trkpt lat="48.66125" lon="6.13057">
        <ele>365</ele>
        <time>2012-03-25T14:56:07Z</time>
      </trkpt>
      <trkpt lat="48.66131" lon="6.13072">
        <ele>364</ele>
        <time>2012-03-25T14:56:09Z</time>
      </trkpt>
      <trkpt lat="48.66136" lon="6.13084">
        <ele>365</ele>
        <time>2012-03-25T14:56:11Z</time>
      </trkpt>
      <trkpt lat="48.66142" lon="6.13097">
        <ele>366</ele>
        <time>2012-03-25T14:56:13Z</time>
      </trkpt>
      <trkpt lat="48.66147" lon="6.1311">
        <ele>365</ele>
        <time>2012-03-25T14:56:15Z</time>
      </trkpt>
      <trkpt lat="48.66155" lon="6.13123">
        <ele>364</ele>
        <time>2012-03-25T14:56:17Z</time>
      </trkpt>
      <trkpt lat="48.66162" lon="6.13136">
        <ele>364</ele>
        <time>2012-03-25T14:56:19Z</time>
      </trkpt>
      <trkpt lat="48.66168" lon="6.1315">
        <ele>361</ele>
        <time>2012-03-25T14:56:21Z</time>
      </trkpt>
      <trkpt lat="48.66175" lon="6.13161">
        <ele>362</ele>
        <time>2012-03-25T14:56:23Z</time>
      </trkpt>
      <trkpt lat="48.66182" lon="6.13174">
        <ele>362</ele>
        <time>2012-03-25T14:56:25Z</time>
      </trkpt>
      <trkpt lat="48.66189" lon="6.13186">
        <ele>363</ele>
        <time>2012-03-25T14:56:27Z</time>
      </trkpt>
      <trkpt lat="48.66196" lon="6.13193">
        <ele>363</ele>
        <time>2012-03-25T14:56:29Z</time>
      </trkpt>
      <trkpt lat="48.66206" lon="6.13197">
        <ele>364</ele>
        <time>2012-03-25T14:56:31Z</time>
      </trkpt>
      <trkpt lat="48.66213" lon="6.13207">
        <ele>362</ele>
        <time>2012-03-25T14:56:33Z</time>
      </trkpt>
      <trkpt lat="48.66221" lon="6.13218">
        <ele>361</ele>
        <time>2012-03-25T14:56:35Z</time>
      </trkpt>
      <trkpt lat="48.66229" lon="6.13229">
        <ele>364</ele>
        <time>2012-03-25T14:56:37Z</time>
      </trkpt>
      <trkpt lat="48.66237" lon="6.13239">
        <ele>362</ele>
        <time>2012-03-25T14:56:39Z</time>
      </trkpt>
      <trkpt lat="48.66244" lon="6.1325">
        <ele>363</ele>
        <time>2012-03-25T14:56:41Z</time>
      </trkpt>
      <trkpt lat="48.66253" lon="6.13262">
        <ele>361</ele>
        <time>2012-03-25T14:56:43Z</time>
      </trkpt>
      <trkpt lat="48.66261" lon="6.13274">
        <ele>362</ele>
        <time>2012-03-25T14:56:45Z</time>
      </trkpt>
      <trkpt lat="48.6627" lon="6.13283">
        <ele>363</ele>
        <time>2012-03-25T14:56:47Z</time>
      </trkpt>
      <trkpt lat="48.6628" lon="6.13292">
        <ele>363</ele>
        <time>2012-03-25T14:56:49Z</time>
      </trkpt>
      <trkpt lat="48.66291" lon="6.13301">
        <ele>361</ele>
        <time>2012-03-25T14:56:51Z</time>
      </trkpt>
      <trkpt lat="48.66303" lon="6.13312">
        <ele>362</ele>
        <time>2012-03-25T14:56:53Z</time>
      </trkpt>
      <trkpt lat="48.66316" lon="6.13325">
        <ele>360</ele>
        <time>2012-03-25T14:56:55Z</time>
      </trkpt>
      <trkpt lat="48.66329" lon="6.13338">
        <ele>359</ele>
        <time>2012-03-25T14:56:57Z</time>
      </trkpt>
      <trkpt lat="48.66343" lon="6.13352">
        <ele>355</ele>
        <time>2012-03-25T14:56:59Z</time>
      </trkpt>
      <trkpt lat="48.66359" lon="6.13357">
        <ele>356</ele>
        <time>2012-03-25T14:57:01Z</time>
      </trkpt>
      <trkpt lat="48.66377" lon="6.13363">
        <ele>358</ele>
        <time>2012-03-25T14:57:03Z</time>
      </trkpt>
      <trkpt lat="48.66395" lon="6.13367">
        <ele>354</ele>
        <time>2012-03-25T14:57:05Z</time>
      </trkpt>
      <trkpt lat="48.66418" lon="6.13372">
        <ele>354</ele>
        <time>2012-03-25T14:57:07Z</time>
      </trkpt>
      <trkpt lat="48.66439" lon="6.13376">
        <ele>353</ele>
        <time>2012-03-25T14:57:09Z</time>
      </trkpt>
      <trkpt lat="48.66463" lon="6.13383">
        <ele>350</ele>
        <time>2012-03-25T14:57:11Z</time>
      </trkpt>
      <trkpt lat="48.66485" lon="6.13394">
        <ele>350</ele>
        <time>2012-03-25T14:57:13Z</time>
      </trkpt>
      <trkpt lat="48.66504" lon="6.13409">
        <ele>344</ele>
        <time>2012-03-25T14:57:15Z</time>
      </trkpt>
      <trkpt lat="48.66522" lon="6.13425">
        <ele>343</ele>
        <time>2012-03-25T14:57:17Z</time>
      </trkpt>
      <trkpt lat="48.66539" lon="6.13441">
        <ele>336</ele>
        <time>2012-03-25T14:57:19Z</time>
      </trkpt>
      <trkpt lat="48.66554" lon="6.13457">
        <ele>330</ele>
        <time>2012-03-25T14:57:21Z</time>
      </trkpt>
      <trkpt lat="48.66565" lon="6.13468">
        <ele>329</ele>
        <time>2012-03-25T14:57:23Z</time>
      </trkpt>
      <trkpt lat="48.66577" lon="6.13476">
        <ele>326</ele>
        <time>2012-03-25T14:57:25Z</time>
      </trkpt>
      <trkpt lat="48.66584" lon="6.13477">
        <ele>324</ele>
        <time>2012-03-25T14:57:27Z</time>
      </trkpt>
      <trkpt lat="48.66589" lon="6.13477">
        <ele>324</ele>
        <time>2012-03-25T14:57:29Z</time>
      </trkpt>
      <trkpt lat="48.66592" lon="6.13474">
        <ele>327</ele>
        <time>2012-03-25T14:57:31Z</time>
      </trkpt>
      <trkpt lat="48.66596" lon="6.13465">
        <ele>331</ele>
        <time>2012-03-25T14:57:33Z</time>
      </trkpt>
      <trkpt lat="48.66634" lon="6.1343">
        <ele>342</ele>
        <time>2012-03-25T14:58:07Z</time>
      </trkpt>
      <trkpt lat="48.66642" lon="6.13422">
        <ele>353</ele>
        <time>2012-03-25T14:58:13Z</time>
      </trkpt>
      <trkpt lat="48.6665" lon="6.1341">
        <ele>355</ele>
        <time>2012-03-25T14:58:19Z</time>
      </trkpt>
      <trkpt lat="48.6666" lon="6.13384">
        <ele>356</ele>
        <time>2012-03-25T14:58:27Z</time>
      </trkpt>
      <trkpt lat="48.66665" lon="6.13371">
        <ele>359</ele>
        <time>2012-03-25T14:58:31Z</time>
      </trkpt>
      <trkpt lat="48.66671" lon="6.13351">
        <ele>357</ele>
        <time>2012-03-25T14:58:39Z</time>
      </trkpt>
      <trkpt lat="48.66678" lon="6.13336">
        <ele>354</ele>
        <time>2012-03-25T14:58:45Z</time>
      </trkpt>
      <trkpt lat="48.66684" lon="6.13326">
        <ele>353</ele>
        <time>2012-03-25T14:58:49Z</time>
      </trkpt>
      <trkpt lat="48.66686" lon="6.1332">
        <ele>359</ele>
        <time>2012-03-25T14:58:51Z</time>
      </trkpt>
      <trkpt lat="48.66688" lon="6.13314">
        <ele>360</ele>
        <time>2012-03-25T14:58:53Z</time>
      </trkpt>
      <trkpt lat="48.66691" lon="6.13307">
        <ele>361</ele>
        <time>2012-03-25T14:58:55Z</time>
      </trkpt>
      <trkpt lat="48.66697" lon="6.13296">
        <ele>355</ele>
        <time>2012-03-25T14:58:59Z</time>
      </trkpt>
      <trkpt lat="48.667" lon="6.13291">
        <ele>361</ele>
        <time>2012-03-25T14:59:01Z</time>
      </trkpt>
      <trkpt lat="48.66705" lon="6.13278">
        <ele>361</ele>
        <time>2012-03-25T14:59:07Z</time>
      </trkpt>
      <trkpt lat="48.66718" lon="6.13254">
        <ele>361</ele>
        <time>2012-03-25T14:59:25Z</time>
      </trkpt>
      <trkpt lat="48.66721" lon="6.13241">
        <ele>365</ele>
        <time>2012-03-25T14:59:29Z</time>
      </trkpt>
      <trkpt lat="48.66726" lon="6.13229">
        <ele>371</ele>
        <time>2012-03-25T14:59:33Z</time>
      </trkpt>
      <trkpt lat="48.66726" lon="6.13214">
        <ele>365</ele>
        <time>2012-03-25T14:59:39Z</time>
      </trkpt>
      <trkpt lat="48.66734" lon="6.13169">
        <ele>366</ele>
        <time>2012-03-25T14:59:55Z</time>
      </trkpt>
      <trkpt lat="48.66736" lon="6.13154">
        <ele>364</ele>
        <time>2012-03-25T14:59:59Z</time>
      </trkpt>
      <trkpt lat="48.66736" lon="6.1314">
        <ele>367</ele>
        <time>2012-03-25T15:00:03Z</time>
      </trkpt>
      <trkpt lat="48.6674" lon="6.13082">
        <ele>370</ele>
        <time>2012-03-25T15:00:19Z</time>
      </trkpt>
      <trkpt lat="48.66741" lon="6.13069">
        <ele>374</ele>
        <time>2012-03-25T15:00:23Z</time>
      </trkpt>
      <trkpt lat="48.66745" lon="6.13036">
        <ele>373</ele>
        <time>2012-03-25T15:00:33Z</time>
      </trkpt>
      <trkpt lat="48.66749" lon="6.13022">
        <ele>379</ele>
        <time>2012-03-25T15:00:41Z</time>
      </trkpt>
      <trkpt lat="48.66755" lon="6.12994">
        <ele>386</ele>
        <time>2012-03-25T15:00:47Z</time>
      </trkpt>
      <trkpt lat="48.66757" lon="6.12985">
        <ele>387</ele>
        <time>2012-03-25T15:00:49Z</time>
      </trkpt>
      <trkpt lat="48.66758" lon="6.12977">
        <ele>388</ele>
        <time>2012-03-25T15:00:51Z</time>
      </trkpt>
      <trkpt lat="48.66757" lon="6.1297">
        <ele>387</ele>
        <time>2012-03-25T15:00:53Z</time>
      </trkpt>
      <trkpt lat="48.66757" lon="6.12962">
        <ele>386</ele>
        <time>2012-03-25T15:00:55Z</time>
      </trkpt>
      <trkpt lat="48.66756" lon="6.12954">
        <ele>387</ele>
        <time>2012-03-25T15:00:57Z</time>
      </trkpt>
      <trkpt lat="48.66756" lon="6.12947">
        <ele>390</ele>
        <time>2012-03-25T15:00:59Z</time>
      </trkpt>
      <trkpt lat="48.66756" lon="6.1294">
        <ele>388</ele>
        <time>2012-03-25T15:01:01Z</time>
      </trkpt>
      <trkpt lat="48.66757" lon="6.12931">
        <ele>388</ele>
        <time>2012-03-25T15:01:03Z</time>
      </trkpt>
      <trkpt lat="48.66757" lon="6.12925">
        <ele>388</ele>
        <time>2012-03-25T15:01:05Z</time>
      </trkpt>
      <trkpt lat="48.66756" lon="6.12919">
        <ele>391</ele>
        <time>2012-03-25T15:01:07Z</time>
      </trkpt>
      <trkpt lat="48.66756" lon="6.12912">
        <ele>392</ele>
        <time>2012-03-25T15:01:09Z</time>
      </trkpt>
      <trkpt lat="48.66756" lon="6.12904">
        <ele>393</ele>
        <time>2012-03-25T15:01:11Z</time>
      </trkpt>
      <trkpt lat="48.66756" lon="6.12898">
        <ele>396</ele>
        <time>2012-03-25T15:01:13Z</time>
      </trkpt>
      <trkpt lat="48.66756" lon="6.1289">
        <ele>396</ele>
        <time>2012-03-25T15:01:15Z</time>
      </trkpt>
      <trkpt lat="48.66756" lon="6.12884">
        <ele>399</ele>
        <time>2012-03-25T15:01:17Z</time>
      </trkpt>
      <trkpt lat="48.66756" lon="6.12874">
        <ele>403</ele>
        <time>2012-03-25T15:01:19Z</time>
      </trkpt>
      <trkpt lat="48.66756" lon="6.12864">
        <ele>401</ele>
        <time>2012-03-25T15:01:21Z</time>
      </trkpt>
      <trkpt lat="48.66755" lon="6.12857">
        <ele>398</ele>
        <time>2012-03-25T15:01:23Z</time>
      </trkpt>
      <trkpt lat="48.66755" lon="6.12849">
        <ele>398</ele>
        <time>2012-03-25T15:01:25Z</time>
      </trkpt>
      <trkpt lat="48.66754" lon="6.12842">
        <ele>392</ele>
        <time>2012-03-25T15:01:27Z</time>
      </trkpt>
      <trkpt lat="48.66754" lon="6.12836">
        <ele>395</ele>
        <time>2012-03-25T15:01:29Z</time>
      </trkpt>
      <trkpt lat="48.66755" lon="6.12832">
        <ele>396</ele>
        <time>2012-03-25T15:01:31Z</time>
      </trkpt>
      <trkpt lat="48.66759" lon="6.12829">
        <ele>396</ele>
        <time>2012-03-25T15:01:33Z</time>
      </trkpt>
      <trkpt lat="48.66763" lon="6.12826">
        <ele>393</ele>
        <time>2012-03-25T15:01:35Z</time>
      </trkpt>
      <trkpt lat="48.66766" lon="6.12824">
        <ele>391</ele>
        <time>2012-03-25T15:01:37Z</time>
      </trkpt>
      <trkpt lat="48.66769" lon="6.12823">
        <ele>395</ele>
        <time>2012-03-25T15:01:39Z</time>
      </trkpt>
      <trkpt lat="48.66774" lon="6.12822">
        <ele>383</ele>
        <time>2012-03-25T15:01:41Z</time>
      </trkpt>
      <trkpt lat="48.66779" lon="6.12821">
        <ele>385</ele>
        <time>2012-03-25T15:01:43Z</time>
      </trkpt>
      <trkpt lat="48.66785" lon="6.1282">
        <ele>386</ele>
        <time>2012-03-25T15:01:45Z</time>
      </trkpt>
      <trkpt lat="48.6679" lon="6.12819">
        <ele>380</ele>
        <time>2012-03-25T15:01:47Z</time>
      </trkpt>
      <trkpt lat="48.66794" lon="6.12817">
        <ele>379</ele>
        <time>2012-03-25T15:01:49Z</time>
      </trkpt>
      <trkpt lat="48.668" lon="6.12814">
        <ele>382</ele>
        <time>2012-03-25T15:01:51Z</time>
      </trkpt>
      <trkpt lat="48.66807" lon="6.12812">
        <ele>376</ele>
        <time>2012-03-25T15:01:53Z</time>
      </trkpt>
      <trkpt lat="48.66816" lon="6.12806">
        <ele>378</ele>
        <time>2012-03-25T15:01:55Z</time>
      </trkpt>
      <trkpt lat="48.66822" lon="6.12805">
        <ele>378</ele>
        <time>2012-03-25T15:01:57Z</time>
      </trkpt>
      <trkpt lat="48.6683" lon="6.12805">
        <ele>377</ele>
        <time>2012-03-25T15:01:59Z</time>
      </trkpt>
      <trkpt lat="48.66836" lon="6.12804">
        <ele>374</ele>
        <time>2012-03-25T15:02:01Z</time>
      </trkpt>
      <trkpt lat="48.66845" lon="6.12806">
        <ele>371</ele>
        <time>2012-03-25T15:02:03Z</time>
      </trkpt>
      <trkpt lat="48.66854" lon="6.12805">
        <ele>368</ele>
        <time>2012-03-25T15:02:05Z</time>
      </trkpt>
      <trkpt lat="48.66864" lon="6.12806">
        <ele>372</ele>
        <time>2012-03-25T15:02:07Z</time>
      </trkpt>
      <trkpt lat="48.66873" lon="6.12805">
        <ele>372</ele>
        <time>2012-03-25T15:02:09Z</time>
      </trkpt>
      <trkpt lat="48.66884" lon="6.12807">
        <ele>368</ele>
        <time>2012-03-25T15:02:11Z</time>
      </trkpt>
      <trkpt lat="48.66894" lon="6.12808">
        <ele>369</ele>
        <time>2012-03-25T15:02:13Z</time>
      </trkpt>
      <trkpt lat="48.66903" lon="6.12811">
        <ele>366</ele>
        <time>2012-03-25T15:02:15Z</time>
      </trkpt>
      <trkpt lat="48.66909" lon="6.12814">
        <ele>369</ele>
        <time>2012-03-25T15:02:17Z</time>
      </trkpt>
      <trkpt lat="48.66918" lon="6.12811">
        <ele>371</ele>
        <time>2012-03-25T15:02:19Z</time>
      </trkpt>
      <trkpt lat="48.66925" lon="6.12807">
        <ele>374</ele>
        <time>2012-03-25T15:02:21Z</time>
      </trkpt>
      <trkpt lat="48.66935" lon="6.12802">
        <ele>374</ele>
        <time>2012-03-25T15:02:23Z</time>
      </trkpt>
      <trkpt lat="48.66946" lon="6.12795">
        <ele>378</ele>
        <time>2012-03-25T15:02:25Z</time>
      </trkpt>
      <trkpt lat="48.66957" lon="6.12788">
        <ele>375</ele>
        <time>2012-03-25T15:02:27Z</time>
      </trkpt>
      <trkpt lat="48.66967" lon="6.12782">
        <ele>378</ele>
        <time>2012-03-25T15:02:29Z</time>
      </trkpt>
      <trkpt lat="48.66975" lon="6.12774">
        <ele>373</ele>
        <time>2012-03-25T15:02:31Z</time>
      </trkpt>
      <trkpt lat="48.66984" lon="6.12763">
        <ele>370</ele>
        <time>2012-03-25T15:02:33Z</time>
      </trkpt>
      <trkpt lat="48.66994" lon="6.12753">
        <ele>371</ele>
        <time>2012-03-25T15:02:35Z</time>
      </trkpt>
      <trkpt lat="48.67004" lon="6.12743">
        <ele>371</ele>
        <time>2012-03-25T15:02:37Z</time>
      </trkpt>
      <trkpt lat="48.67016" lon="6.12733">
        <ele>371</ele>
        <time>2012-03-25T15:02:39Z</time>
      </trkpt>
      <trkpt lat="48.67029" lon="6.12724">
        <ele>377</ele>
        <time>2012-03-25T15:02:41Z</time>
      </trkpt>
      <trkpt lat="48.67043" lon="6.12716">
        <ele>367</ele>
        <time>2012-03-25T15:02:43Z</time>
      </trkpt>
      <trkpt lat="48.67056" lon="6.12703">
        <ele>374</ele>
        <time>2012-03-25T15:02:45Z</time>
      </trkpt>
      <trkpt lat="48.67069" lon="6.12695">
        <ele>378</ele>
        <time>2012-03-25T15:02:47Z</time>
      </trkpt>
      <trkpt lat="48.67081" lon="6.12686">
        <ele>380</ele>
        <time>2012-03-25T15:02:49Z</time>
      </trkpt>
      <trkpt lat="48.67092" lon="6.12677">
        <ele>378</ele>
        <time>2012-03-25T15:02:51Z</time>
      </trkpt>
      <trkpt lat="48.67102" lon="6.12668">
        <ele>380</ele>
        <time>2012-03-25T15:02:53Z</time>
      </trkpt>
      <trkpt lat="48.67114" lon="6.12658">
        <ele>378</ele>
        <time>2012-03-25T15:02:55Z</time>
      </trkpt>
      <trkpt lat="48.67126" lon="6.1265">
        <ele>375</ele>
        <time>2012-03-25T15:02:57Z</time>
      </trkpt>
      <trkpt lat="48.67139" lon="6.1264">
        <ele>378</ele>
        <time>2012-03-25T15:02:59Z</time>
      </trkpt>
      <trkpt lat="48.67148" lon="6.12632">
        <ele>377</ele>
        <time>2012-03-25T15:03:01Z</time>
      </trkpt>
      <trkpt lat="48.67157" lon="6.12626">
        <ele>377</ele>
        <time>2012-03-25T15:03:03Z</time>
      </trkpt>
      <trkpt lat="48.67168" lon="6.12619">
        <ele>374</ele>
        <time>2012-03-25T15:03:05Z</time>
      </trkpt>
      <trkpt lat="48.67178" lon="6.12616">
        <ele>374</ele>
        <time>2012-03-25T15:03:07Z</time>
      </trkpt>
      <trkpt lat="48.67189" lon="6.12613">
        <ele>370</ele>
        <time>2012-03-25T15:03:09Z</time>
      </trkpt>
      <trkpt lat="48.67199" lon="6.12613">
        <ele>372</ele>
        <time>2012-03-25T15:03:11Z</time>
      </trkpt>
      <trkpt lat="48.6721" lon="6.12612">
        <ele>375</ele>
        <time>2012-03-25T15:03:13Z</time>
      </trkpt>
      <trkpt lat="48.67221" lon="6.12614">
        <ele>373</ele>
        <time>2012-03-25T15:03:15Z</time>
      </trkpt>
      <trkpt lat="48.6723" lon="6.12616">
        <ele>365</ele>
        <time>2012-03-25T15:03:17Z</time>
      </trkpt>
      <trkpt lat="48.67238" lon="6.12618">
        <ele>364</ele>
        <time>2012-03-25T15:03:19Z</time>
      </trkpt>
      <trkpt lat="48.67247" lon="6.12622">
        <ele>361</ele>
        <time>2012-03-25T15:03:21Z</time>
      </trkpt>
      <trkpt lat="48.67255" lon="6.12623">
        <ele>360</ele>
        <time>2012-03-25T15:03:23Z</time>
      </trkpt>
      <trkpt lat="48.67266" lon="6.12625">
        <ele>363</ele>
        <time>2012-03-25T15:03:25Z</time>
      </trkpt>
      <trkpt lat="48.67276" lon="6.12627">
        <ele>362</ele>
        <time>2012-03-25T15:03:27Z</time>
      </trkpt>
      <trkpt lat="48.67287" lon="6.12627">
        <ele>363</ele>
        <time>2012-03-25T15:03:29Z</time>
      </trkpt>
      <trkpt lat="48.67297" lon="6.12628">
        <ele>359</ele>
        <time>2012-03-25T15:03:31Z</time>
      </trkpt>
      <trkpt lat="48.6731" lon="6.12632">
        <ele>362</ele>
        <time>2012-03-25T15:03:33Z</time>
      </trkpt>
      <trkpt lat="48.67323" lon="6.12631">
        <ele>363</ele>
        <time>2012-03-25T15:03:35Z</time>
      </trkpt>
      <trkpt lat="48.67332" lon="6.12633">
        <ele>365</ele>
        <time>2012-03-25T15:03:37Z</time>
      </trkpt>
      <trkpt lat="48.67346" lon="6.1264">
        <ele>362</ele>
        <time>2012-03-25T15:03:39Z</time>
      </trkpt>
      <trkpt lat="48.67359" lon="6.12639">
        <ele>361</ele>
        <time>2012-03-25T15:03:41Z</time>
      </trkpt>
      <trkpt lat="48.67372" lon="6.12639">
        <ele>360</ele>
        <time>2012-03-25T15:03:43Z</time>
      </trkpt>
      <trkpt lat="48.67384" lon="6.1264">
        <ele>359</ele>
        <time>2012-03-25T15:03:45Z</time>
      </trkpt>
      <trkpt lat="48.67395" lon="6.12641">
        <ele>358</ele>
        <time>2012-03-25T15:03:47Z</time>
      </trkpt>
      <trkpt lat="48.67403" lon="6.12642">
        <ele>356</ele>
        <time>2012-03-25T15:03:49Z</time>
      </trkpt>
      <trkpt lat="48.67408" lon="6.12641">
        <ele>354</ele>
        <time>2012-03-25T15:03:51Z</time>
      </trkpt>
      <trkpt lat="48.67413" lon="6.12643">
        <ele>359</ele>
        <time>2012-03-25T15:03:53Z</time>
      </trkpt>
      <trkpt lat="48.67421" lon="6.12642">
        <ele>359</ele>
        <time>2012-03-25T15:03:55Z</time>
      </trkpt>
      <trkpt lat="48.67429" lon="6.12641">
        <ele>359</ele>
        <time>2012-03-25T15:03:57Z</time>
      </trkpt>
      <trkpt lat="48.67437" lon="6.1264">
        <ele>366</ele>
        <time>2012-03-25T15:03:59Z</time>
      </trkpt>
      <trkpt lat="48.67447" lon="6.1264">
        <ele>370</ele>
        <time>2012-03-25T15:04:01Z</time>
      </trkpt>
      <trkpt lat="48.67458" lon="6.12635">
        <ele>365</ele>
        <time>2012-03-25T15:04:03Z</time>
      </trkpt>
      <trkpt lat="48.6747" lon="6.12629">
        <ele>364</ele>
        <time>2012-03-25T15:04:05Z</time>
      </trkpt>
      <trkpt lat="48.67481" lon="6.12626">
        <ele>362</ele>
        <time>2012-03-25T15:04:07Z</time>
      </trkpt>
      <trkpt lat="48.67492" lon="6.12623">
        <ele>361</ele>
        <time>2012-03-25T15:04:09Z</time>
      </trkpt>
      <trkpt lat="48.67502" lon="6.12618">
        <ele>365</ele>
        <time>2012-03-25T15:04:11Z</time>
      </trkpt>
      <trkpt lat="48.67516" lon="6.12613">
        <ele>367</ele>
        <time>2012-03-25T15:04:13Z</time>
      </trkpt>
      <trkpt lat="48.67526" lon="6.12611">
        <ele>364</ele>
        <time>2012-03-25T15:04:15Z</time>
      </trkpt>
      <trkpt lat="48.67535" lon="6.1261">
        <ele>366</ele>
        <time>2012-03-25T15:04:17Z</time>
      </trkpt>
      <trkpt lat="48.67542" lon="6.12609">
        <ele>370</ele>
        <time>2012-03-25T15:04:19Z</time>
      </trkpt>
      <trkpt lat="48.67547" lon="6.1261">
        <ele>367</ele>
        <time>2012-03-25T15:04:21Z</time>
      </trkpt>
      <trkpt lat="48.67549" lon="6.12613">
        <ele>360</ele>
        <time>2012-03-25T15:04:23Z</time>
      </trkpt>
      <trkpt lat="48.67551" lon="6.12618">
        <ele>360</ele>
        <time>2012-03-25T15:04:25Z</time>
      </trkpt>
      <trkpt lat="48.67552" lon="6.12628">
        <ele>360</ele>
        <time>2012-03-25T15:04:27Z</time>
      </trkpt>
      <trkpt lat="48.67553" lon="6.12636">
        <ele>360</ele>
        <time>2012-03-25T15:04:29Z</time>
      </trkpt>
      <trkpt lat="48.67552" lon="6.12644">
        <ele>363</ele>
        <time>2012-03-25T15:04:31Z</time>
      </trkpt>
      <trkpt lat="48.67553" lon="6.12656">
        <ele>361</ele>
        <time>2012-03-25T15:04:33Z</time>
      </trkpt>
      <trkpt lat="48.67555" lon="6.12671">
        <ele>363</ele>
        <time>2012-03-25T15:04:35Z</time>
      </trkpt>
      <trkpt lat="48.67556" lon="6.12687">
        <ele>363</ele>
        <time>2012-03-25T15:04:37Z</time>
      </trkpt>
      <trkpt lat="48.67557" lon="6.12704">
        <ele>370</ele>
        <time>2012-03-25T15:04:39Z</time>
      </trkpt>
      <trkpt lat="48.67559" lon="6.1272">
        <ele>376</ele>
        <time>2012-03-25T15:04:41Z</time>
      </trkpt>
      <trkpt lat="48.67561" lon="6.12735">
        <ele>376</ele>
        <time>2012-03-25T15:04:43Z</time>
      </trkpt>
      <trkpt lat="48.67563" lon="6.12745">
        <ele>379</ele>
        <time>2012-03-25T15:04:45Z</time>
      </trkpt>
      <trkpt lat="48.6757" lon="6.12753">
        <ele>370</ele>
        <time>2012-03-25T15:04:47Z</time>
      </trkpt>
      <trkpt lat="48.6758" lon="6.12762">
        <ele>370</ele>
        <time>2012-03-25T15:04:49Z</time>
      </trkpt>
      <trkpt lat="48.67586" lon="6.12769">
        <ele>366</ele>
        <time>2012-03-25T15:04:51Z</time>
      </trkpt>
      <trkpt lat="48.67592" lon="6.12774">
        <ele>366</ele>
        <time>2012-03-25T15:04:53Z</time>
      </trkpt>
      <trkpt lat="48.676" lon="6.12776">
        <ele>365</ele>
        <time>2012-03-25T15:04:55Z</time>
      </trkpt>
      <trkpt lat="48.67606" lon="6.12778">
        <ele>364</ele>
        <time>2012-03-25T15:04:57Z</time>
      </trkpt>
      <trkpt lat="48.67615" lon="6.12775">
        <ele>365</ele>
        <time>2012-03-25T15:04:59Z</time>
      </trkpt>
      <trkpt lat="48.67625" lon="6.12772">
        <ele>365</ele>
        <time>2012-03-25T15:05:01Z</time>
      </trkpt>
      <trkpt lat="48.67636" lon="6.12771">
        <ele>360</ele>
        <time>2012-03-25T15:05:03Z</time>
      </trkpt>
      <trkpt lat="48.67648" lon="6.12771">
        <ele>354</ele>
        <time>2012-03-25T15:05:05Z</time>
      </trkpt>
      <trkpt lat="48.6766" lon="6.12769">
        <ele>355</ele>
        <time>2012-03-25T15:05:07Z</time>
      </trkpt>
      <trkpt lat="48.67669" lon="6.12767">
        <ele>352</ele>
        <time>2012-03-25T15:05:09Z</time>
      </trkpt>
      <trkpt lat="48.67677" lon="6.12764">
        <ele>355</ele>
        <time>2012-03-25T15:05:11Z</time>
      </trkpt>
      <trkpt lat="48.67687" lon="6.1276">
        <ele>355</ele>
        <time>2012-03-25T15:05:13Z</time>
      </trkpt>
      <trkpt lat="48.67699" lon="6.12754">
        <ele>355</ele>
        <time>2012-03-25T15:05:15Z</time>
      </trkpt>
      <trkpt lat="48.67709" lon="6.12747">
        <ele>354</ele>
        <time>2012-03-25T15:05:17Z</time>
      </trkpt>
      <trkpt lat="48.67719" lon="6.12742">
        <ele>355</ele>
        <time>2012-03-25T15:05:19Z</time>
      </trkpt>
      <trkpt lat="48.6773" lon="6.12736">
        <ele>356</ele>
        <time>2012-03-25T15:05:21Z</time>
      </trkpt>
      <trkpt lat="48.67742" lon="6.12732">
        <ele>352</ele>
        <time>2012-03-25T15:05:23Z</time>
      </trkpt>
      <trkpt lat="48.67754" lon="6.12731">
        <ele>351</ele>
        <time>2012-03-25T15:05:25Z</time>
      </trkpt>
      <trkpt lat="48.67765" lon="6.1273">
        <ele>350</ele>
        <time>2012-03-25T15:05:27Z</time>
      </trkpt>
      <trkpt lat="48.67777" lon="6.12728">
        <ele>351</ele>
        <time>2012-03-25T15:05:29Z</time>
      </trkpt>
      <trkpt lat="48.67786" lon="6.12725">
        <ele>356</ele>
        <time>2012-03-25T15:05:31Z</time>
      </trkpt>
      <trkpt lat="48.67795" lon="6.12722">
        <ele>360</ele>
        <time>2012-03-25T15:05:33Z</time>
      </trkpt>
      <trkpt lat="48.67805" lon="6.12719">
        <ele>361</ele>
        <time>2012-03-25T15:05:35Z</time>
      </trkpt>
      <trkpt lat="48.67813" lon="6.12718">
        <ele>360</ele>
        <time>2012-03-25T15:05:37Z</time>
      </trkpt>
      <trkpt lat="48.67824" lon="6.12716">
        <ele>360</ele>
        <time>2012-03-25T15:05:39Z</time>
      </trkpt>
      <trkpt lat="48.67836" lon="6.12711">
        <ele>363</ele>
        <time>2012-03-25T15:05:41Z</time>
      </trkpt>
      <trkpt lat="48.67846" lon="6.12709">
        <ele>366</ele>
        <time>2012-03-25T15:05:43Z</time>
      </trkpt>
      <trkpt lat="48.67858" lon="6.12706">
        <ele>365</ele>
        <time>2012-03-25T15:05:45Z</time>
      </trkpt>
      <trkpt lat="48.6787" lon="6.127">
        <ele>365</ele>
        <time>2012-03-25T15:05:47Z</time>
      </trkpt>
      <trkpt lat="48.67883" lon="6.12695">
        <ele>366</ele>
        <time>2012-03-25T15:05:49Z</time>
      </trkpt>
      <trkpt lat="48.67892" lon="6.1269">
        <ele>362</ele>
        <time>2012-03-25T15:05:51Z</time>
      </trkpt>
      <trkpt lat="48.67901" lon="6.12685">
        <ele>362</ele>
        <time>2012-03-25T15:05:53Z</time>
      </trkpt>
      <trkpt lat="48.67912" lon="6.12679">
        <ele>363</ele>
        <time>2012-03-25T15:05:55Z</time>
      </trkpt>
      <trkpt lat="48.67921" lon="6.12679">
        <ele>362</ele>
        <time>2012-03-25T15:05:57Z</time>
      </trkpt>
      <trkpt lat="48.6793" lon="6.12675">
        <ele>362</ele>
        <time>2012-03-25T15:05:59Z</time>
      </trkpt>
      <trkpt lat="48.67939" lon="6.12672">
        <ele>363</ele>
        <time>2012-03-25T15:06:01Z</time>
      </trkpt>
      <trkpt lat="48.67949" lon="6.12672">
        <ele>365</ele>
        <time>2012-03-25T15:06:03Z</time>
      </trkpt>
      <trkpt lat="48.67959" lon="6.12672">
        <ele>367</ele>
        <time>2012-03-25T15:06:05Z</time>
      </trkpt>
      <trkpt lat="48.6797" lon="6.1267">
        <ele>369</ele>
        <time>2012-03-25T15:06:07Z</time>
      </trkpt>
      <trkpt lat="48.67979" lon="6.12667">
        <ele>369</ele>
        <time>2012-03-25T15:06:09Z</time>
      </trkpt>
      <trkpt lat="48.67989" lon="6.12665">
        <ele>373</ele>
        <time>2012-03-25T15:06:11Z</time>
      </trkpt>
      <trkpt lat="48.68" lon="6.1266">
        <ele>368</ele>
        <time>2012-03-25T15:06:13Z</time>
      </trkpt>
      <trkpt lat="48.6801" lon="6.12657">
        <ele>366</ele>
        <time>2012-03-25T15:06:15Z</time>
      </trkpt>
      <trkpt lat="48.68022" lon="6.12654">
        <ele>370</ele>
        <time>2012-03-25T15:06:17Z</time>
      </trkpt>
      <trkpt lat="48.68033" lon="6.12651">
        <ele>368</ele>
        <time>2012-03-25T15:06:19Z</time>
      </trkpt>
      <trkpt lat="48.68044" lon="6.12649">
        <ele>367</ele>
        <time>2012-03-25T15:06:21Z</time>
      </trkpt>
      <trkpt lat="48.68055" lon="6.12647">
        <ele>362</ele>
        <time>2012-03-25T15:06:23Z</time>
      </trkpt>
      <trkpt lat="48.68066" lon="6.12644">
        <ele>358</ele>
        <time>2012-03-25T15:06:25Z</time>
      </trkpt>
      <trkpt lat="48.68076" lon="6.12641">
        <ele>362</ele>
        <time>2012-03-25T15:06:27Z</time>
      </trkpt>
      <trkpt lat="48.68088" lon="6.12635">
        <ele>363</ele>
        <time>2012-03-25T15:06:29Z</time>
      </trkpt>
      <trkpt lat="48.681" lon="6.12629">
        <ele>365</ele>
        <time>2012-03-25T15:06:31Z</time>
      </trkpt>
      <trkpt lat="48.6811" lon="6.12626">
        <ele>365</ele>
        <time>2012-03-25T15:06:33Z</time>
      </trkpt>
      <trkpt lat="48.68118" lon="6.12622">
        <ele>365</ele>
        <time>2012-03-25T15:06:35Z</time>
      </trkpt>
      <trkpt lat="48.68126" lon="6.12621">
        <ele>362</ele>
        <time>2012-03-25T15:06:37Z</time>
      </trkpt>
      <trkpt lat="48.68131" lon="6.12623">
        <ele>363</ele>
        <time>2012-03-25T15:06:39Z</time>
      </trkpt>
      <trkpt lat="48.6814" lon="6.12625">
        <ele>364</ele>
        <time>2012-03-25T15:06:41Z</time>
      </trkpt>
      <trkpt lat="48.68148" lon="6.12625">
        <ele>357</ele>
        <time>2012-03-25T15:06:43Z</time>
      </trkpt>
      <trkpt lat="48.68153" lon="6.12627">
        <ele>354</ele>
        <time>2012-03-25T15:06:45Z</time>
      </trkpt>
      <trkpt lat="48.6816" lon="6.12629">
        <ele>354</ele>
        <time>2012-03-25T15:06:47Z</time>
      </trkpt>
      <trkpt lat="48.68168" lon="6.1263">
        <ele>357</ele>
        <time>2012-03-25T15:06:49Z</time>
      </trkpt>
      <trkpt lat="48.68177" lon="6.12636">
        <ele>364</ele>
        <time>2012-03-25T15:06:51Z</time>
      </trkpt>
      <trkpt lat="48.68186" lon="6.1264">
        <ele>363</ele>
        <time>2012-03-25T15:06:53Z</time>
      </trkpt>
      <trkpt lat="48.68195" lon="6.12649">
        <ele>359</ele>
        <time>2012-03-25T15:06:55Z</time>
      </trkpt>
      <trkpt lat="48.68206" lon="6.1266">
        <ele>358</ele>
        <time>2012-03-25T15:06:57Z</time>
      </trkpt>
      <trkpt lat="48.68218" lon="6.12669">
        <ele>360</ele>
        <time>2012-03-25T15:06:59Z</time>
      </trkpt>
      <trkpt lat="48.68228" lon="6.12677">
        <ele>358</ele>
        <time>2012-03-25T15:07:01Z</time>
      </trkpt>
      <trkpt lat="48.6824" lon="6.12684">
        <ele>353</ele>
        <time>2012-03-25T15:07:03Z</time>
      </trkpt>
      <trkpt lat="48.68251" lon="6.12693">
        <ele>355</ele>
        <time>2012-03-25T15:07:05Z</time>
      </trkpt>
      <trkpt lat="48.68261" lon="6.12702">
        <ele>355</ele>
        <time>2012-03-25T15:07:07Z</time>
      </trkpt>
      <trkpt lat="48.6827" lon="6.12708">
        <ele>356</ele>
        <time>2012-03-25T15:07:09Z</time>
      </trkpt>
      <trkpt lat="48.68279" lon="6.12719">
        <ele>357</ele>
        <time>2012-03-25T15:07:11Z</time>
      </trkpt>
      <trkpt lat="48.68288" lon="6.12729">
        <ele>357</ele>
        <time>2012-03-25T15:07:13Z</time>
      </trkpt>
      <trkpt lat="48.68297" lon="6.12737">
        <ele>356</ele>
        <time>2012-03-25T15:07:15Z</time>
      </trkpt>
      <trkpt lat="48.68304" lon="6.12747">
        <ele>359</ele>
        <time>2012-03-25T15:07:17Z</time>
      </trkpt>
      <trkpt lat="48.68312" lon="6.12754">
        <ele>364</ele>
        <time>2012-03-25T15:07:19Z</time>
      </trkpt>
      <trkpt lat="48.68321" lon="6.12762">
        <ele>358</ele>
        <time>2012-03-25T15:07:21Z</time>
      </trkpt>
      <trkpt lat="48.68329" lon="6.12772">
        <ele>356</ele>
        <time>2012-03-25T15:07:23Z</time>
      </trkpt>
      <trkpt lat="48.68338" lon="6.1278">
        <ele>356</ele>
        <time>2012-03-25T15:07:25Z</time>
      </trkpt>
      <trkpt lat="48.68348" lon="6.12791">
        <ele>355</ele>
        <time>2012-03-25T15:07:27Z</time>
      </trkpt>
      <trkpt lat="48.68356" lon="6.128">
        <ele>357</ele>
        <time>2012-03-25T15:07:29Z</time>
      </trkpt>
      <trkpt lat="48.68364" lon="6.12807">
        <ele>358</ele>
        <time>2012-03-25T15:07:31Z</time>
      </trkpt>
      <trkpt lat="48.68374" lon="6.12816">
        <ele>355</ele>
        <time>2012-03-25T15:07:33Z</time>
      </trkpt>
      <trkpt lat="48.68384" lon="6.12825">
        <ele>354</ele>
        <time>2012-03-25T15:07:35Z</time>
      </trkpt>
      <trkpt lat="48.68393" lon="6.12835">
        <ele>350</ele>
        <time>2012-03-25T15:07:37Z</time>
      </trkpt>
      <trkpt lat="48.68401" lon="6.12845">
        <ele>352</ele>
        <time>2012-03-25T15:07:39Z</time>
      </trkpt>
      <trkpt lat="48.68409" lon="6.12854">
        <ele>350</ele>
        <time>2012-03-25T15:07:41Z</time>
      </trkpt>
      <trkpt lat="48.68417" lon="6.12863">
        <ele>352</ele>
        <time>2012-03-25T15:07:43Z</time>
      </trkpt>
      <trkpt lat="48.68428" lon="6.12873">
        <ele>352</ele>
        <time>2012-03-25T15:07:45Z</time>
      </trkpt>
      <trkpt lat="48.6844" lon="6.12882">
        <ele>351</ele>
        <time>2012-03-25T15:07:47Z</time>
      </trkpt>
      <trkpt lat="48.68449" lon="6.12885">
        <ele>352</ele>
        <time>2012-03-25T15:07:49Z</time>
      </trkpt>
      <trkpt lat="48.68459" lon="6.12885">
        <ele>349</ele>
        <time>2012-03-25T15:07:51Z</time>
      </trkpt>
      <trkpt lat="48.68467" lon="6.12881">
        <ele>346</ele>
        <time>2012-03-25T15:07:53Z</time>
      </trkpt>
      <trkpt lat="48.68473" lon="6.1288">
        <ele>345</ele>
        <time>2012-03-25T15:07:55Z</time>
      </trkpt>
      <trkpt lat="48.6848" lon="6.12876">
        <ele>344</ele>
        <time>2012-03-25T15:07:57Z</time>
      </trkpt>
      <trkpt lat="48.68487" lon="6.12871">
        <ele>346</ele>
        <time>2012-03-25T15:07:59Z</time>
      </trkpt>
      <trkpt lat="48.68495" lon="6.12865">
        <ele>341</ele>
        <time>2012-03-25T15:08:01Z</time>
      </trkpt>
      <trkpt lat="48.68504" lon="6.12861">
        <ele>343</ele>
        <time>2012-03-25T15:08:03Z</time>
      </trkpt>
      <trkpt lat="48.68512" lon="6.12857">
        <ele>345</ele>
        <time>2012-03-25T15:08:05Z</time>
      </trkpt>
      <trkpt lat="48.6852" lon="6.12852">
        <ele>344</ele>
        <time>2012-03-25T15:08:07Z</time>
      </trkpt>
      <trkpt lat="48.68529" lon="6.12845">
        <ele>342</ele>
        <time>2012-03-25T15:08:09Z</time>
      </trkpt>
      <trkpt lat="48.68538" lon="6.12839">
        <ele>345</ele>
        <time>2012-03-25T15:08:11Z</time>
      </trkpt>
      <trkpt lat="48.68548" lon="6.12833">
        <ele>346</ele>
        <time>2012-03-25T15:08:13Z</time>
      </trkpt>
      <trkpt lat="48.68559" lon="6.12827">
        <ele>348</ele>
        <time>2012-03-25T15:08:15Z</time>
      </trkpt>
      <trkpt lat="48.68568" lon="6.12822">
        <ele>347</ele>
        <time>2012-03-25T15:08:17Z</time>
      </trkpt>
      <trkpt lat="48.68578" lon="6.12816">
        <ele>345</ele>
        <time>2012-03-25T15:08:19Z</time>
      </trkpt>
      <trkpt lat="48.68586" lon="6.12812">
        <ele>344</ele>
        <time>2012-03-25T15:08:21Z</time>
      </trkpt>
      <trkpt lat="48.68595" lon="6.12809">
        <ele>344</ele>
        <time>2012-03-25T15:08:23Z</time>
      </trkpt>
      <trkpt lat="48.68604" lon="6.12806">
        <ele>341</ele>
        <time>2012-03-25T15:08:25Z</time>
      </trkpt>
      <trkpt lat="48.68613" lon="6.12802">
        <ele>341</ele>
        <time>2012-03-25T15:08:27Z</time>
      </trkpt>
      <trkpt lat="48.68623" lon="6.12798">
        <ele>344</ele>
        <time>2012-03-25T15:08:29Z</time>
      </trkpt>
      <trkpt lat="48.68633" lon="6.12796">
        <ele>343</ele>
        <time>2012-03-25T15:08:31Z</time>
      </trkpt>
      <trkpt lat="48.68641" lon="6.12793">
        <ele>342</ele>
        <time>2012-03-25T15:08:33Z</time>
      </trkpt>
      <trkpt lat="48.6865" lon="6.1279">
        <ele>343</ele>
        <time>2012-03-25T15:08:35Z</time>
      </trkpt>
      <trkpt lat="48.68659" lon="6.12788">
        <ele>342</ele>
        <time>2012-03-25T15:08:37Z</time>
      </trkpt>
      <trkpt lat="48.68667" lon="6.12786">
        <ele>342</ele>
        <time>2012-03-25T15:08:39Z</time>
      </trkpt>
      <trkpt lat="48.68675" lon="6.12784">
        <ele>348</ele>
        <time>2012-03-25T15:08:41Z</time>
      </trkpt>
      <trkpt lat="48.68686" lon="6.12779">
        <ele>349</ele>
        <time>2012-03-25T15:08:43Z</time>
      </trkpt>
      <trkpt lat="48.68697" lon="6.12773">
        <ele>351</ele>
        <time>2012-03-25T15:08:45Z</time>
      </trkpt>
      <trkpt lat="48.68707" lon="6.12768">
        <ele>351</ele>
        <time>2012-03-25T15:08:47Z</time>
      </trkpt>
      <trkpt lat="48.68716" lon="6.12764">
        <ele>350</ele>
        <time>2012-03-25T15:08:49Z</time>
      </trkpt>
      <trkpt lat="48.68725" lon="6.12759">
        <ele>352</ele>
        <time>2012-03-25T15:08:51Z</time>
      </trkpt>
      <trkpt lat="48.68734" lon="6.12755">
        <ele>351</ele>
        <time>2012-03-25T15:08:53Z</time>
      </trkpt>
      <trkpt lat="48.68743" lon="6.12752">
        <ele>350</ele>
        <time>2012-03-25T15:08:55Z</time>
      </trkpt>
      <trkpt lat="48.68751" lon="6.12748">
        <ele>351</ele>
        <time>2012-03-25T15:08:57Z</time>
      </trkpt>
      <trkpt lat="48.68759" lon="6.12744">
        <ele>353</ele>
        <time>2012-03-25T15:08:59Z</time>
      </trkpt>
      <trkpt lat="48.68767" lon="6.1274">
        <ele>354</ele>
        <time>2012-03-25T15:09:01Z</time>
      </trkpt>
      <trkpt lat="48.68775" lon="6.12737">
        <ele>355</ele>
        <time>2012-03-25T15:09:03Z</time>
      </trkpt>
      <trkpt lat="48.68782" lon="6.12739">
        <ele>353</ele>
        <time>2012-03-25T15:09:05Z</time>
      </trkpt>
      <trkpt lat="48.68787" lon="6.12745">
        <ele>351</ele>
        <time>2012-03-25T15:09:07Z</time>
      </trkpt>
      <trkpt lat="48.6879" lon="6.12753">
        <ele>352</ele>
        <time>2012-03-25T15:09:09Z</time>
      </trkpt>
      <trkpt lat="48.68791" lon="6.12764">
        <ele>352</ele>
        <time>2012-03-25T15:09:11Z</time>
      </trkpt>
      <trkpt lat="48.68791" lon="6.12776">
        <ele>352</ele>
        <time>2012-03-25T15:09:13Z</time>
      </trkpt>
      <trkpt lat="48.68791" lon="6.12791">
        <ele>350</ele>
        <time>2012-03-25T15:09:15Z</time>
      </trkpt>
      <trkpt lat="48.68792" lon="6.12807">
        <ele>351</ele>
        <time>2012-03-25T15:09:17Z</time>
      </trkpt>
      <trkpt lat="48.68794" lon="6.12824">
        <ele>352</ele>
        <time>2012-03-25T15:09:19Z</time>
      </trkpt>
      <trkpt lat="48.68795" lon="6.12842">
        <ele>353</ele>
        <time>2012-03-25T15:09:21Z</time>
      </trkpt>
      <trkpt lat="48.68797" lon="6.1286">
        <ele>353</ele>
        <time>2012-03-25T15:09:23Z</time>
      </trkpt>
      <trkpt lat="48.68797" lon="6.12879">
        <ele>353</ele>
        <time>2012-03-25T15:09:25Z</time>
      </trkpt>
      <trkpt lat="48.68798" lon="6.129">
        <ele>351</ele>
        <time>2012-03-25T15:09:27Z</time>
      </trkpt>
      <trkpt lat="48.68799" lon="6.12921">
        <ele>352</ele>
        <time>2012-03-25T15:09:29Z</time>
      </trkpt>
      <trkpt lat="48.688" lon="6.12943">
        <ele>352</ele>
        <time>2012-03-25T15:09:31Z</time>
      </trkpt>
      <trkpt lat="48.68802" lon="6.12966">
        <ele>351</ele>
        <time>2012-03-25T15:09:33Z</time>
      </trkpt>
      <trkpt lat="48.68804" lon="6.12989">
        <ele>350</ele>
        <time>2012-03-25T15:09:35Z</time>
      </trkpt>
      <trkpt lat="48.68805" lon="6.13013">
        <ele>350</ele>
        <time>2012-03-25T15:09:37Z</time>
      </trkpt>
      <trkpt lat="48.68807" lon="6.13038">
        <ele>347</ele>
        <time>2012-03-25T15:09:39Z</time>
      </trkpt>
      <trkpt lat="48.68808" lon="6.13063">
        <ele>347</ele>
        <time>2012-03-25T15:09:41Z</time>
      </trkpt>
      <trkpt lat="48.6881" lon="6.13088">
        <ele>345</ele>
        <time>2012-03-25T15:09:43Z</time>
      </trkpt>
      <trkpt lat="48.68813" lon="6.13112">
        <ele>345</ele>
        <time>2012-03-25T15:09:45Z</time>
      </trkpt>
      <trkpt lat="48.68815" lon="6.13137">
        <ele>347</ele>
        <time>2012-03-25T15:09:47Z</time>
      </trkpt>
      <trkpt lat="48.68818" lon="6.13158">
        <ele>347</ele>
        <time>2012-03-25T15:09:49Z</time>
      </trkpt>
      <trkpt lat="48.68818" lon="6.13174">
        <ele>346</ele>
        <time>2012-03-25T15:09:51Z</time>
      </trkpt>
      <trkpt lat="48.68813" lon="6.13178">
        <ele>346</ele>
        <time>2012-03-25T15:09:53Z</time>
      </trkpt>
      <trkpt lat="48.68808" lon="6.13175">
        <ele>346</ele>
        <time>2012-03-25T15:09:55Z</time>
      </trkpt>
      <trkpt lat="48.68798" lon="6.13162">
        <ele>345</ele>
        <time>2012-03-25T15:09:57Z</time>
      </trkpt>
      <trkpt lat="48.68784" lon="6.13152">
        <ele>346</ele>
        <time>2012-03-25T15:09:59Z</time>
      </trkpt>
      <trkpt lat="48.68767" lon="6.13143">
        <ele>343</ele>
        <time>2012-03-25T15:10:01Z</time>
      </trkpt>
      <trkpt lat="48.68747" lon="6.13136">
        <ele>344</ele>
        <time>2012-03-25T15:10:03Z</time>
      </trkpt>
      <trkpt lat="48.68724" lon="6.13132">
        <ele>345</ele>
        <time>2012-03-25T15:10:05Z</time>
      </trkpt>
      <trkpt lat="48.68701" lon="6.1313">
        <ele>342</ele>
        <time>2012-03-25T15:10:07Z</time>
      </trkpt>
      <trkpt lat="48.68678" lon="6.1313">
        <ele>336</ele>
        <time>2012-03-25T15:10:09Z</time>
      </trkpt>
      <trkpt lat="48.68653" lon="6.13132">
        <ele>335</ele>
        <time>2012-03-25T15:10:11Z</time>
      </trkpt>
      <trkpt lat="48.68627" lon="6.1314">
        <ele>334</ele>
        <time>2012-03-25T15:10:13Z</time>
      </trkpt>
      <trkpt lat="48.68601" lon="6.13152">
        <ele>329</ele>
        <time>2012-03-25T15:10:15Z</time>
      </trkpt>
      <trkpt lat="48.68578" lon="6.13168">
        <ele>329</ele>
        <time>2012-03-25T15:10:17Z</time>
      </trkpt>
      <trkpt lat="48.68555" lon="6.13189">
        <ele>329</ele>
        <time>2012-03-25T15:10:19Z</time>
      </trkpt>
      <trkpt lat="48.68534" lon="6.13212">
        <ele>321</ele>
        <time>2012-03-25T15:10:21Z</time>
      </trkpt>
      <trkpt lat="48.68515" lon="6.1324">
        <ele>319</ele>
        <time>2012-03-25T15:10:23Z</time>
      </trkpt>
      <trkpt lat="48.68498" lon="6.1327">
        <ele>316</ele>
        <time>2012-03-25T15:10:25Z</time>
      </trkpt>
      <trkpt lat="48.68486" lon="6.13306">
        <ele>315</ele>
        <time>2012-03-25T15:10:27Z</time>
      </trkpt>
      <trkpt lat="48.68476" lon="6.13343">
        <ele>310</ele>
        <time>2012-03-25T15:10:29Z</time>
      </trkpt>
      <trkpt lat="48.68467" lon="6.1338">
        <ele>310</ele>
        <time>2012-03-25T15:10:31Z</time>
      </trkpt>
      <trkpt lat="48.68463" lon="6.13417">
        <ele>307</ele>
        <time>2012-03-25T15:10:33Z</time>
      </trkpt>
      <trkpt lat="48.68462" lon="6.13456">
        <ele>309</ele>
        <time>2012-03-25T15:10:35Z</time>
      </trkpt>
      <trkpt lat="48.68462" lon="6.13496">
        <ele>314</ele>
        <time>2012-03-25T15:10:37Z</time>
      </trkpt>
      <trkpt lat="48.68464" lon="6.13539">
        <ele>309</ele>
        <time>2012-03-25T15:10:39Z</time>
      </trkpt>
      <trkpt lat="48.68466" lon="6.13582">
        <ele>308</ele>
        <time>2012-03-25T15:10:41Z</time>
      </trkpt>
      <trkpt lat="48.68469" lon="6.13626">
        <ele>304</ele>
        <time>2012-03-25T15:10:43Z</time>
      </trkpt>
      <trkpt lat="48.68469" lon="6.13669">
        <ele>302</ele>
        <time>2012-03-25T15:10:45Z</time>
      </trkpt>
      <trkpt lat="48.68466" lon="6.1371">
        <ele>301</ele>
        <time>2012-03-25T15:10:47Z</time>
      </trkpt>
      <trkpt lat="48.6846" lon="6.13751">
        <ele>296</ele>
        <time>2012-03-25T15:10:49Z</time>
      </trkpt>
      <trkpt lat="48.68451" lon="6.13788">
        <ele>297</ele>
        <time>2012-03-25T15:10:51Z</time>
      </trkpt>
      <trkpt lat="48.68435" lon="6.1382">
        <ele>293</ele>
        <time>2012-03-25T15:10:53Z</time>
      </trkpt>
      <trkpt lat="48.68417" lon="6.13848">
        <ele>292</ele>
        <time>2012-03-25T15:10:55Z</time>
      </trkpt>
      <trkpt lat="48.68398" lon="6.13872">
        <ele>287</ele>
        <time>2012-03-25T15:10:57Z</time>
      </trkpt>
      <trkpt lat="48.68376" lon="6.13896">
        <ele>284</ele>
        <time>2012-03-25T15:10:59Z</time>
      </trkpt>
      <trkpt lat="48.68359" lon="6.13912">
        <ele>275</ele>
        <time>2012-03-25T15:11:01Z</time>
      </trkpt>
      <trkpt lat="48.68343" lon="6.1392">
        <ele>275</ele>
        <time>2012-03-25T15:11:03Z</time>
      </trkpt>
      <trkpt lat="48.68332" lon="6.13917">
        <ele>274</ele>
        <time>2012-03-25T15:11:05Z</time>
      </trkpt>
      <trkpt lat="48.68324" lon="6.13916">
        <ele>273</ele>
        <time>2012-03-25T15:11:07Z</time>
      </trkpt>
      <trkpt lat="48.68315" lon="6.13921">
        <ele>270</ele>
        <time>2012-03-25T15:11:09Z</time>
      </trkpt>
      <trkpt lat="48.68306" lon="6.13929">
        <ele>270</ele>
        <time>2012-03-25T15:11:11Z</time>
      </trkpt>
      <trkpt lat="48.68293" lon="6.13939">
        <ele>271</ele>
        <time>2012-03-25T15:11:13Z</time>
      </trkpt>
      <trkpt lat="48.68278" lon="6.13951">
        <ele>270</ele>
        <time>2012-03-25T15:11:15Z</time>
      </trkpt>
      <trkpt lat="48.68262" lon="6.13964">
        <ele>267</ele>
        <time>2012-03-25T15:11:17Z</time>
      </trkpt>
      <trkpt lat="48.68244" lon="6.13978">
        <ele>266</ele>
        <time>2012-03-25T15:11:19Z</time>
      </trkpt>
      <trkpt lat="48.68225" lon="6.13993">
        <ele>265</ele>
        <time>2012-03-25T15:11:21Z</time>
      </trkpt>
      <trkpt lat="48.68204" lon="6.1401">
        <ele>265</ele>
        <time>2012-03-25T15:11:23Z</time>
      </trkpt>
      <trkpt lat="48.68183" lon="6.14027">
        <ele>265</ele>
        <time>2012-03-25T15:11:25Z</time>
      </trkpt>
      <trkpt lat="48.68162" lon="6.14044">
        <ele>265</ele>
        <time>2012-03-25T15:11:27Z</time>
      </trkpt>
      <trkpt lat="48.6814" lon="6.14061">
        <ele>264</ele>
        <time>2012-03-25T15:11:29Z</time>
      </trkpt>
      <trkpt lat="48.68118" lon="6.14077">
        <ele>263</ele>
        <time>2012-03-25T15:11:31Z</time>
      </trkpt>
      <trkpt lat="48.68095" lon="6.14092">
        <ele>260</ele>
        <time>2012-03-25T15:11:33Z</time>
      </trkpt>
      <trkpt lat="48.68072" lon="6.14105">
        <ele>260</ele>
        <time>2012-03-25T15:11:35Z</time>
      </trkpt>
      <trkpt lat="48.68048" lon="6.14117">
        <ele>258</ele>
        <time>2012-03-25T15:11:37Z</time>
      </trkpt>
      <trkpt lat="48.68023" lon="6.14129">
        <ele>258</ele>
        <time>2012-03-25T15:11:39Z</time>
      </trkpt>
      <trkpt lat="48.67972" lon="6.14151">
        <ele>258</ele>
        <time>2012-03-25T15:11:43Z</time>
      </trkpt>
      <trkpt lat="48.6795" lon="6.14152">
        <ele>259</ele>
        <time>2012-03-25T15:11:45Z</time>
      </trkpt>
      <trkpt lat="48.67933" lon="6.14144">
        <ele>261</ele>
        <time>2012-03-25T15:11:47Z</time>
      </trkpt>
      <trkpt lat="48.67918" lon="6.14137">
        <ele>259</ele>
        <time>2012-03-25T15:11:49Z</time>
      </trkpt>
      <trkpt lat="48.67903" lon="6.14135">
        <ele>257</ele>
        <time>2012-03-25T15:11:51Z</time>
      </trkpt>
      <trkpt lat="48.67893" lon="6.14145">
        <ele>258</ele>
        <time>2012-03-25T15:11:53Z</time>
      </trkpt>
      <trkpt lat="48.67882" lon="6.14155">
        <ele>258</ele>
        <time>2012-03-25T15:11:55Z</time>
      </trkpt>
      <trkpt lat="48.67873" lon="6.14164">
        <ele>253</ele>
        <time>2012-03-25T15:11:57Z</time>
      </trkpt>
      <trkpt lat="48.6787" lon="6.14179">
        <ele>255</ele>
        <time>2012-03-25T15:11:59Z</time>
      </trkpt>
      <trkpt lat="48.67879" lon="6.1419">
        <ele>254</ele>
        <time>2012-03-25T15:12:01Z</time>
      </trkpt>
      <trkpt lat="48.67889" lon="6.14203">
        <ele>247</ele>
        <time>2012-03-25T15:12:03Z</time>
      </trkpt>
      <trkpt lat="48.679" lon="6.1422">
        <ele>244</ele>
        <time>2012-03-25T15:12:05Z</time>
      </trkpt>
      <trkpt lat="48.6791" lon="6.14236">
        <ele>244</ele>
        <time>2012-03-25T15:12:07Z</time>
      </trkpt>
      <trkpt lat="48.67921" lon="6.14257">
        <ele>241</ele>
        <time>2012-03-25T15:12:09Z</time>
      </trkpt>
      <trkpt lat="48.67931" lon="6.14275">
        <ele>240</ele>
        <time>2012-03-25T15:12:11Z</time>
      </trkpt>
      <trkpt lat="48.67942" lon="6.14293">
        <ele>239</ele>
        <time>2012-03-25T15:12:13Z</time>
      </trkpt>
      <trkpt lat="48.67953" lon="6.14312">
        <ele>240</ele>
        <time>2012-03-25T15:12:15Z</time>
      </trkpt>
      <trkpt lat="48.67964" lon="6.14332">
        <ele>241</ele>
        <time>2012-03-25T15:12:17Z</time>
      </trkpt>
      <trkpt lat="48.67976" lon="6.14354">
        <ele>239</ele>
        <time>2012-03-25T15:12:19Z</time>
      </trkpt>
      <trkpt lat="48.67986" lon="6.14376">
        <ele>237</ele>
        <time>2012-03-25T15:12:21Z</time>
      </trkpt>
      <trkpt lat="48.67996" lon="6.14399">
        <ele>238</ele>
        <time>2012-03-25T15:12:23Z</time>
      </trkpt>
      <trkpt lat="48.68006" lon="6.14422">
        <ele>238</ele>
        <time>2012-03-25T15:12:25Z</time>
      </trkpt>
      <trkpt lat="48.68016" lon="6.14442">
        <ele>234</ele>
        <time>2012-03-25T15:12:27Z</time>
      </trkpt>
      <trkpt lat="48.68029" lon="6.14463">
        <ele>233</ele>
        <time>2012-03-25T15:12:29Z</time>
      </trkpt>
      <trkpt lat="48.6804" lon="6.14483">
        <ele>231</ele>
        <time>2012-03-25T15:12:31Z</time>
      </trkpt>
      <trkpt lat="48.68051" lon="6.14502">
        <ele>233</ele>
        <time>2012-03-25T15:12:33Z</time>
      </trkpt>
      <trkpt lat="48.68061" lon="6.1452">
        <ele>235</ele>
        <time>2012-03-25T15:12:35Z</time>
      </trkpt>
      <trkpt lat="48.68071" lon="6.14539">
        <ele>234</ele>
        <time>2012-03-25T15:12:37Z</time>
      </trkpt>
      <trkpt lat="48.68081" lon="6.14559">
        <ele>235</ele>
        <time>2012-03-25T15:12:39Z</time>
      </trkpt>
      <trkpt lat="48.68092" lon="6.1458">
        <ele>233</ele>
        <time>2012-03-25T15:12:41Z</time>
      </trkpt>
      <trkpt lat="48.68103" lon="6.146">
        <ele>232</ele>
        <time>2012-03-25T15:12:43Z</time>
      </trkpt>
      <trkpt lat="48.68115" lon="6.14619">
        <ele>233</ele>
        <time>2012-03-25T15:12:45Z</time>
      </trkpt>
      <trkpt lat="48.68125" lon="6.14636">
        <ele>233</ele>
        <time>2012-03-25T15:12:47Z</time>
      </trkpt>
      <trkpt lat="48.68135" lon="6.14653">
        <ele>232</ele>
        <time>2012-03-25T15:12:49Z</time>
      </trkpt>
      <trkpt lat="48.68144" lon="6.1467">
        <ele>232</ele>
        <time>2012-03-25T15:12:51Z</time>
      </trkpt>
      <trkpt lat="48.68153" lon="6.14687">
        <ele>234</ele>
        <time>2012-03-25T15:12:53Z</time>
      </trkpt>
      <trkpt lat="48.68162" lon="6.14705">
        <ele>233</ele>
        <time>2012-03-25T15:12:55Z</time>
      </trkpt>
      <trkpt lat="48.68171" lon="6.14722">
        <ele>234</ele>
        <time>2012-03-25T15:12:57Z</time>
      </trkpt>
      <trkpt lat="48.68179" lon="6.1474">
        <ele>235</ele>
        <time>2012-03-25T15:12:59Z</time>
      </trkpt>
      <trkpt lat="48.68187" lon="6.14755">
        <ele>237</ele>
        <time>2012-03-25T15:13:01Z</time>
      </trkpt>
      <trkpt lat="48.68195" lon="6.14771">
        <ele>237</ele>
        <time>2012-03-25T15:13:03Z</time>
      </trkpt>
      <trkpt lat="48.68204" lon="6.1479">
        <ele>234</ele>
        <time>2012-03-25T15:13:05Z</time>
      </trkpt>
      <trkpt lat="48.68213" lon="6.14808">
        <ele>235</ele>
        <time>2012-03-25T15:13:07Z</time>
      </trkpt>
      <trkpt lat="48.68224" lon="6.14827">
        <ele>235</ele>
        <time>2012-03-25T15:13:09Z</time>
      </trkpt>
      <trkpt lat="48.68237" lon="6.14843">
        <ele>233</ele>
        <time>2012-03-25T15:13:11Z</time>
      </trkpt>
      <trkpt lat="48.6825" lon="6.14862">
        <ele>232</ele>
        <time>2012-03-25T15:13:13Z</time>
      </trkpt>
      <trkpt lat="48.68263" lon="6.14883">
        <ele>232</ele>
        <time>2012-03-25T15:13:15Z</time>
      </trkpt>
      <trkpt lat="48.68274" lon="6.14901">
        <ele>230</ele>
        <time>2012-03-25T15:13:17Z</time>
      </trkpt>
      <trkpt lat="48.68288" lon="6.14923">
        <ele>226</ele>
        <time>2012-03-25T15:13:19Z</time>
      </trkpt>
      <trkpt lat="48.68303" lon="6.14946">
        <ele>223</ele>
        <time>2012-03-25T15:13:21Z</time>
      </trkpt>
      <trkpt lat="48.68317" lon="6.14968">
        <ele>224</ele>
        <time>2012-03-25T15:13:23Z</time>
      </trkpt>
      <trkpt lat="48.6833" lon="6.14989">
        <ele>226</ele>
        <time>2012-03-25T15:13:25Z</time>
      </trkpt>
      <trkpt lat="48.68343" lon="6.15011">
        <ele>226</ele>
        <time>2012-03-25T15:13:27Z</time>
      </trkpt>
      <trkpt lat="48.68355" lon="6.15032">
        <ele>224</ele>
        <time>2012-03-25T15:13:29Z</time>
      </trkpt>
      <trkpt lat="48.68367" lon="6.15053">
        <ele>223</ele>
        <time>2012-03-25T15:13:31Z</time>
      </trkpt>
      <trkpt lat="48.68378" lon="6.15075">
        <ele>222</ele>
        <time>2012-03-25T15:13:33Z</time>
      </trkpt>
      <trkpt lat="48.68389" lon="6.15097">
        <ele>221</ele>
        <time>2012-03-25T15:13:35Z</time>
      </trkpt>
      <trkpt lat="48.68397" lon="6.15116">
        <ele>222</ele>
        <time>2012-03-25T15:13:37Z</time>
      </trkpt>
      <trkpt lat="48.68405" lon="6.1514">
        <ele>225</ele>
        <time>2012-03-25T15:13:39Z</time>
      </trkpt>
      <trkpt lat="48.68412" lon="6.15166">
        <ele>225</ele>
        <time>2012-03-25T15:13:41Z</time>
      </trkpt>
      <trkpt lat="48.68419" lon="6.15191">
        <ele>224</ele>
        <time>2012-03-25T15:13:43Z</time>
      </trkpt>
      <trkpt lat="48.68425" lon="6.15214">
        <ele>226</ele>
        <time>2012-03-25T15:13:45Z</time>
      </trkpt>
      <trkpt lat="48.68431" lon="6.15237">
        <ele>223</ele>
        <time>2012-03-25T15:13:47Z</time>
      </trkpt>
      <trkpt lat="48.68437" lon="6.15262">
        <ele>224</ele>
        <time>2012-03-25T15:13:49Z</time>
      </trkpt>
      <trkpt lat="48.68443" lon="6.15285">
        <ele>226</ele>
        <time>2012-03-25T15:13:51Z</time>
      </trkpt>
      <trkpt lat="48.68447" lon="6.15307">
        <ele>224</ele>
        <time>2012-03-25T15:13:53Z</time>
      </trkpt>
      <trkpt lat="48.6845" lon="6.15329">
        <ele>225</ele>
        <time>2012-03-25T15:13:55Z</time>
      </trkpt>
      <trkpt lat="48.68453" lon="6.15353">
        <ele>227</ele>
        <time>2012-03-25T15:13:57Z</time>
      </trkpt>
      <trkpt lat="48.68456" lon="6.15378">
        <ele>231</ele>
        <time>2012-03-25T15:13:59Z</time>
      </trkpt>
      <trkpt lat="48.68459" lon="6.15402">
        <ele>230</ele>
        <time>2012-03-25T15:14:01Z</time>
      </trkpt>
      <trkpt lat="48.68462" lon="6.15425">
        <ele>230</ele>
        <time>2012-03-25T15:14:03Z</time>
      </trkpt>
      <trkpt lat="48.68466" lon="6.15447">
        <ele>229</ele>
        <time>2012-03-25T15:14:05Z</time>
      </trkpt>
      <trkpt lat="48.68468" lon="6.15468">
        <ele>234</ele>
        <time>2012-03-25T15:14:07Z</time>
      </trkpt>
      <trkpt lat="48.68471" lon="6.15489">
        <ele>233</ele>
        <time>2012-03-25T15:14:09Z</time>
      </trkpt>
      <trkpt lat="48.68473" lon="6.15509">
        <ele>233</ele>
        <time>2012-03-25T15:14:11Z</time>
      </trkpt>
      <trkpt lat="48.68472" lon="6.15527">
        <ele>230</ele>
        <time>2012-03-25T15:14:13Z</time>
      </trkpt>
      <trkpt lat="48.68472" lon="6.15546">
        <ele>231</ele>
        <time>2012-03-25T15:14:15Z</time>
      </trkpt>
      <trkpt lat="48.68471" lon="6.15564">
        <ele>233</ele>
        <time>2012-03-25T15:14:17Z</time>
      </trkpt>
      <trkpt lat="48.68471" lon="6.15583">
        <ele>233</ele>
        <time>2012-03-25T15:14:19Z</time>
      </trkpt>
      <trkpt lat="48.68472" lon="6.15603">
        <ele>237</ele>
        <time>2012-03-25T15:14:21Z</time>
      </trkpt>
      <trkpt lat="48.6847" lon="6.15621">
        <ele>238</ele>
        <time>2012-03-25T15:14:23Z</time>
      </trkpt>
      <trkpt lat="48.68467" lon="6.15639">
        <ele>236</ele>
        <time>2012-03-25T15:14:25Z</time>
      </trkpt>
      <trkpt lat="48.68464" lon="6.15657">
        <ele>233</ele>
        <time>2012-03-25T15:14:27Z</time>
      </trkpt>
      <trkpt lat="48.68461" lon="6.15674">
        <ele>234</ele>
        <time>2012-03-25T15:14:29Z</time>
      </trkpt>
      <trkpt lat="48.68457" lon="6.1569">
        <ele>237</ele>
        <time>2012-03-25T15:14:31Z</time>
      </trkpt>
      <trkpt lat="48.68453" lon="6.15707">
        <ele>236</ele>
        <time>2012-03-25T15:14:33Z</time>
      </trkpt>
      <trkpt lat="48.68448" lon="6.15725">
        <ele>234</ele>
        <time>2012-03-25T15:14:35Z</time>
      </trkpt>
      <trkpt lat="48.68444" lon="6.15745">
        <ele>233</ele>
        <time>2012-03-25T15:14:37Z</time>
      </trkpt>
      <trkpt lat="48.68441" lon="6.15763">
        <ele>235</ele>
        <time>2012-03-25T15:14:39Z</time>
      </trkpt>
      <trkpt lat="48.68443" lon="6.15784">
        <ele>231</ele>
        <time>2012-03-25T15:14:41Z</time>
      </trkpt>
      <trkpt lat="48.68444" lon="6.15801">
        <ele>235</ele>
        <time>2012-03-25T15:14:43Z</time>
      </trkpt>
      <trkpt lat="48.68449" lon="6.15815">
        <ele>233</ele>
        <time>2012-03-25T15:14:45Z</time>
      </trkpt>
      <trkpt lat="48.68455" lon="6.1583">
        <ele>230</ele>
        <time>2012-03-25T15:14:47Z</time>
      </trkpt>
      <trkpt lat="48.68459" lon="6.15845">
        <ele>229</ele>
        <time>2012-03-25T15:14:49Z</time>
      </trkpt>
      <trkpt lat="48.68464" lon="6.15858">
        <ele>225</ele>
        <time>2012-03-25T15:14:51Z</time>
      </trkpt>
      <trkpt lat="48.68465" lon="6.15865">
        <ele>223</ele>
        <time>2012-03-25T15:14:53Z</time>
      </trkpt>
      <trkpt lat="48.68468" lon="6.15873">
        <ele>225</ele>
        <time>2012-03-25T15:14:55Z</time>
      </trkpt>
      <trkpt lat="48.68472" lon="6.1588">
        <ele>225</ele>
        <time>2012-03-25T15:14:57Z</time>
      </trkpt>
      <trkpt lat="48.68477" lon="6.15888">
        <ele>223</ele>
        <time>2012-03-25T15:14:59Z</time>
      </trkpt>
      <trkpt lat="48.68481" lon="6.15895">
        <ele>224</ele>
        <time>2012-03-25T15:15:01Z</time>
      </trkpt>
      <trkpt lat="48.68484" lon="6.15903">
        <ele>223</ele>
        <time>2012-03-25T15:15:03Z</time>
      </trkpt>
      <trkpt lat="48.68487" lon="6.15911">
        <ele>223</ele>
        <time>2012-03-25T15:15:05Z</time>
      </trkpt>
      <trkpt lat="48.6849" lon="6.15919">
        <ele>222</ele>
        <time>2012-03-25T15:15:07Z</time>
      </trkpt>
      <trkpt lat="48.68493" lon="6.15927">
        <ele>224</ele>
        <time>2012-03-25T15:15:09Z</time>
      </trkpt>
      <trkpt lat="48.68496" lon="6.15935">
        <ele>224</ele>
        <time>2012-03-25T15:15:11Z</time>
      </trkpt>
      <trkpt lat="48.68499" lon="6.15943">
        <ele>222</ele>
        <time>2012-03-25T15:15:13Z</time>
      </trkpt>
      <trkpt lat="48.68502" lon="6.15951">
        <ele>222</ele>
        <time>2012-03-25T15:15:15Z</time>
      </trkpt>
      <trkpt lat="48.68506" lon="6.15958">
        <ele>223</ele>
        <time>2012-03-25T15:15:17Z</time>
      </trkpt>
      <trkpt lat="48.68509" lon="6.15964">
        <ele>226</ele>
        <time>2012-03-25T15:15:19Z</time>
      </trkpt>
      <trkpt lat="48.68511" lon="6.1597">
        <ele>224</ele>
        <time>2012-03-25T15:15:21Z</time>
      </trkpt>
      <trkpt lat="48.68514" lon="6.15975">
        <ele>224</ele>
        <time>2012-03-25T15:15:23Z</time>
      </trkpt>
      <trkpt lat="48.68517" lon="6.15978">
        <ele>225</ele>
        <time>2012-03-25T15:15:25Z</time>
      </trkpt>
      <trkpt lat="48.68522" lon="6.1598">
        <ele>221</ele>
        <time>2012-03-25T15:15:27Z</time>
      </trkpt>
      <trkpt lat="48.68527" lon="6.15979">
        <ele>222</ele>
        <time>2012-03-25T15:15:29Z</time>
      </trkpt>
      <trkpt lat="48.68532" lon="6.15977">
        <ele>222</ele>
        <time>2012-03-25T15:15:31Z</time>
      </trkpt>
      <trkpt lat="48.68535" lon="6.15976">
        <ele>223</ele>
        <time>2012-03-25T15:15:33Z</time>
      </trkpt>
      <trkpt lat="48.68539" lon="6.15974">
        <ele>225</ele>
        <time>2012-03-25T15:15:35Z</time>
      </trkpt>
      <trkpt lat="48.68547" lon="6.1597">
        <ele>229</ele>
        <time>2012-03-25T15:15:39Z</time>
      </trkpt>
    </trkseg>
  </trk>
</gpx>